     2              OBSERVATION DATA    GPS                 RINEX VERSION / TYPE
FIC2RX 9.60 97/08/04                                        PGM / RUN BY / DATE
                                                            COMMENT
Operator input collection int (sec) 30.0000                 COMMENT
Operator input collection int (sec) 30.0000                 COMMENT
Operator input collection int (sec) 30.0000                 COMMENT
Operator input collection int (sec) 30.0000                 COMMENT
Original Marker Name: GLOC55460                             COMMENT
Campaign Name: STRC 1988 University                         COMMENT
4-Character Station Name: GLOC                              COMMENT
6-Character Antenna Code: TI4100                            COMMENT
Vertical Measurement Point: PAE                             COMMENT
Vertical Offset to Rinex Ref. Point: 0.0000                 COMMENT
Radial Measurement Point: PAE                               COMMENT
Radial Offset to Rinex Ref. Point: 0.0842                   COMMENT
Antenna Height from Field Measurement: 0.7180 m             COMMENT
Original XYZ: 0.0000 0.0000 0.0000                          COMMENT
New XYZ position is based on association with SCEC monument COMMENT
E1C9N8F2+0011. Position of that monument is believed to be  COMMENT
valid to within 1 m horizontally; vertical accuracy         COMMENT
should be no worse than 3-times this value.                 COMMENT
                                                            COMMENT
Revised Rinex header created by UCSD GPS archive for        COMMENT
GSAC on 26-May-1999 (1999:146) 23:24:23 GMT                 COMMENT
For assistance contact dagnew@ucsd.edu or hjohnson@ucsd.edu COMMENT
                                                            COMMENT
GLO CORNER 1934                                             MARKER NAME
ER MASS INST. OF TECHNOLOGY                                 OBSERVER / AGENCY
UN03 TI 4100 GES 1.50                                       REC # / TYPE / VERS
UN03 TI 4100                                                ANT # / TYPE
 -2287875.0000 -4851752.0000  3439018.0000                  APPROX POSITION XYZ
        0.7131        0.0000        0.0000                  ANTENNA: DELTA H/E/N
     1     1     0                                          WAVELENGTH FACT L1/2
     4    L1    L2    P1    P2                              # / TYPES OF OBSERV
    30                                                      INTERVAL
  1988     2    25     5     0   29.000000                  TIME OF FIRST OBS
  1988     2    25    12    11   59.000000                  TIME OF LAST OBS
     7                                                      # OF SATELLITES
           6   384   384   384   384                        PRN / # OF OBS
           8   288   288   288   288                        PRN / # OF OBS
          11   560   560   560   560                        PRN / # OF OBS
           9   628   628   628   628                        PRN / # OF OBS
          13   576   576   576   576                        PRN / # OF OBS
           3   480   480   480   480                        PRN / # OF OBS
                                                            END OF HEADER
 88  2 25  5  0 29.0800000  0  2  6  8
          .405 7         -.295 8  21759779.270 0  21759780.186 0
         -.472 7         -.307 6  20248135.471 0  20248134.936 0
 88  2 25  5  0 59.0800000  0  2  6  8
    -58514.460 8    -45596.293 7  21748645.117 0  21748645.119 0
    -35334.890 7    -27533.605 7  20241409.911 0  20241410.145 0
 88  2 25  5  1 29.0800000  0  2  6  8
   -116900.263 8    -91091.729 7  21737534.532 0  21737534.661 0
    -69991.333 7    -54538.629 7  20234814.164 0  20234815.375 0
 88  2 25  5  1 59.0800000  0  2  6  8
   -175153.200 8   -136483.629 7  21726449.321 0  21726449.178 0
   -103967.101 7    -81013.248 6  20228350.605 0  20228348.698 0
 88  2 25  5  2 29.0800000  0  2  6  8
   -233270.844 8   -181770.105 7  21715390.050 0  21715389.626 0
   -137260.406 7   -106956.059 7  20222014.217 0  20222015.038 0
 88  2 25  5  2 59.0800000  0  2  6  8
   -291252.939 8   -226950.953 7  21704356.289 0  21704355.311 0
   -169871.680 7   -132367.461 7  20215808.034 0  20215807.938 0
 88  2 25  5  3 29.0800000  0  2  6  8
   -349097.361 8   -272024.527 7  21693348.955 0  21693349.072 0
   -201800.037 7   -157246.684 7  20209733.933 0  20209733.270 0
 88  2 25  5  3 59.0800000  0  2  6  8
   -406802.066 8   -316989.226 7  21682368.590 0  21682367.571 0
   -233043.962 7   -181592.592 7  20203788.234 0  20203788.120 0
 88  2 25  5  4 29.0800000  0  2  6  8
   -464364.748 7   -361843.267 7  21671413.856 0  21671413.799 0
   -263602.420 7   -205404.376 7  20197972.452 0  20197971.145 0
 88  2 25  5  4 59.0800000  0  2  6  8
   -521783.083 7   -406584.822 7  21660487.580 0  21660487.177 0
   -293474.023 7   -228680.937 6  20192288.487 0  20192288.545 0
 88  2 25  5  5 29.0800000  0  2  6  8
   -579055.645 7   -451212.807 8  21649589.356 0  21649588.898 0
   -322658.882 7   -251422.382 7  20186734.269 0  20186734.120 0
 88  2 25  5  5 59.0800000  0  2  6  8
   -636181.747 8   -495726.653 7  21638718.818 0  21638717.592 0
   -351157.462 7   -273629.051 7  20181311.676 0  20181311.046 0
 88  2 25  5  6 29.0800000  0  2  6  8
   -693157.353 8   -540123.238 7  21627876.777 0  21627876.245 0
   -378966.766 8   -295298.642 6  20176019.314 0  20176017.608 0
 88  2 25  5  6 59.0800000  0  2  6  8
   -749979.866 8   -584400.516 7  21617063.801 0  21617062.914 0
   -406085.348 7   -316429.994 7  20170858.502 0  20170858.813 0
 88  2 25  5  7 29.0800000  0  2  6  8
   -806650.395 8   -628559.368 7  21606279.902 0  21606278.517 0
   -432515.813 7   -337025.163 7  20165829.488 0  20165829.731 0
 88  2 25  5  7 59.0800000  0  2  6  8
   -863165.384 8   -672597.023 7  21595525.251 0  21595525.314 0
   -458255.643 7   -357082.172 6  20160930.850 0  20160930.316 0
 88  2 25  5  8 29.0800000  0  4  6  8 11  9
   -919521.653 7   -716510.997 7  21584800.557 0  21584801.109 0
   -483303.286 8   -376599.809 6  20156164.766 0  20156164.406 0
          .306 8          .000 1          .000 0          .000 0
          .037 8          .000 1  23963969.784 0          .000 0
 88  2 25  5  8 59.0800000  0  4  6  8 11  9
   -975718.889 7   -760301.049 8  21574106.923 0  21574106.273 0
   -507660.147 8   -395579.164 7  20151530.219 0  20151529.543 0
    -93398.747 8    143526.657 7  22376264.152 0  22376265.426 0
    -89792.969 8     84740.064 7  23946910.668 0  23946911.440 0
 88  2 25  5  9 29.0800000  0  4  6  8 11  9
  -1031755.098 8   -803965.625 7  21563443.211 0  21563443.407 0
   -531325.280 8   -414019.518 7  20147026.447 0  20147026.010 0
   -186453.704 7     71016.313 7  22358556.424 0  22358557.352 0
   -179638.005 8     14730.975 8  23929813.587 0  23929813.943 0
 88  2 25  5  9 59.0800000  0  4  6  8 11  9
  -1087626.113 8   -847501.484 7  21552811.793 0  21552811.418 0
   -554296.411 7   -431919.112 7  20142654.806 0  20142655.285 0
   -279160.331 8     -1222.603 6  22340915.257 0  22340916.416 0
   -269532.035 7    -55316.301 7  23912707.666 0  23912708.204 0
 88  2 25  5 10 29.0800000  0  4  6  8 11  9
  -1143331.425 8   -890908.222 7  21542210.784 0  21542211.189 0
   -576574.254 7   -449278.448 7  20138415.841 0  20138415.534 0
   -371517.292 7    -73189.044 7  22323339.831 0  22323341.133 0
   -359475.508 8   -125402.094 7  23895591.952 0  23895592.925 0
 88  2 25  5 10 59.0800000  0  4  6  8 11  9
  -1198869.732 8   -934184.830 7  21531642.930 0  21531642.279 0
   -598159.273 8   -466097.929 7  20134308.739 0  20134308.703 0
   -463522.756 7   -144881.599 6  22305831.940 0  22305833.193 0
   -449467.741 9   -195525.892 7  23878467.312 0  23878467.169 0
 88  2 25  5 11 29.0800000  0  4  6  8 11  9
  -1254239.075 8   -977329.752 7  21521105.852 0  21521106.193 0
   -619051.328 8   -482377.450 6  20130332.815 0  20130332.545 0
   -555174.862 7   -216298.801 7  22288390.368 0  22288392.028 0
   -539507.979 8   -265687.097 7  23861333.194 0  23861332.703 0
 88  2 25  5 11 59.0800000  0  4  6  8 11  9
  -1309435.989 8  -1020340.329 7  21510602.699 0  21510603.008 0
   -639248.477 7   -498115.477 6  20126490.157 0  20126489.992 0
   -646469.389 8   -287437.388 7  22271018.855 0  22271018.534 0
   -629593.387 8   -335883.495 7  23844190.696 0  23844190.684 0
 88  2 25  5 12 29.0800000  0  4  6  8 11  9
  -1364458.328 7  -1063214.878 7  21500131.766 0  21500132.175 0
   -658750.158 8   -513311.589 7  20122777.474 0  20122777.313 0
   -737403.934 8   -358295.456 7  22253714.308 0  22253714.623 0
   -719722.938 7   -406114.303 7  23827039.527 0  23827038.902 0
 88  2 25  5 12 59.0800000  0  4  6  8 11  9
  -1419304.963 7  -1105952.508 7  21489694.263 0  21489694.617 0
   -677556.904 7   -527966.188 7  20119198.925 0  20119200.557 0
   -827977.203 7   -428872.018 7  22236478.995 0  22236478.415 0
   -809896.401 7   -476379.345 7  23809879.426 0  23809878.595 0
 88  2 25  5 13 29.0800000  0  4  6  8 11  9
  -1473973.231 8  -1148551.166 8  21479292.006 0  21479291.661 0
   -695668.298 8   -542078.970 6  20115753.585 0  20115752.753 0
   -918185.820 8   -499164.435 7  22219311.805 0  22219313.010 0
   -900111.750 8   -546677.002 6  23792712.171 0  23792711.648 0
 88  2 25  5 13 59.0800000  0  4  6  8 11  9
  -1528461.237 8  -1191009.348 7  21468924.624 0  21468922.701 0
   -713084.000 7   -555649.628 7  20112438.840 0  20112438.890 0
  -1008027.509 7   -569170.928 7  22202216.505 0  22202217.309 0
   -990367.982 7   -617006.543 7  23775537.030 0  23775536.979 0
 88  2 25  5 14 29.0800000  0  4  6  8 11  9
  -1582767.564 8  -1233325.971 7  21458589.048 0  21458588.713 0
   -729804.873 7   -568678.876 7  20109256.800 0  20109257.021 0
  -1097500.596 7   -638890.215 7  22185189.769 0  22185191.265 0
  -1080664.817 7   -687367.691 7  23758354.321 0  23758355.314 0
 88  2 25  5 14 59.0800000  0  4  6  8 11  9
  -1636889.771 8  -1275499.125 7  21448290.144 0  21448290.130 0
   -745830.396 8   -581166.284 7  20106206.594 0  20106207.817 0
  -1186602.360 7   -708320.151 7  22168233.376 0  22168235.436 0
  -1171000.576 7   -757759.176 6  23741163.911 0  23741164.728 0
 88  2 25  5 15 29.0800000  0  4  6  8 11  9
  -1690824.993 8  -1317526.563 7  21438026.478 0  21438026.462 0
   -761159.540 7   -593111.070 7  20103289.693 0  20103290.339 0
  -1275329.738 7   -777458.354 7  22151349.279 0  22151351.222 0
  -1261373.384 6   -828179.544 7  23723966.953 0  23723967.611 0
 88  2 25  5 15 59.0800000  0  4  6  8 11  9
  -1744570.495 8  -1359406.174 7  21427799.282 0  21427798.994 0
   -775791.493 7   -604512.577 7  20100505.218 0  20100506.908 0
  -1363679.622 8   -846302.412 6  22134537.473 0  22134538.386 0
  -1351781.273 6   -898627.203 7  23706762.088 0  23706762.695 0
 88  2 25  5 16 29.0800000  0  4  6  8 11  9
  -1798126.153 8  -1401137.854 7  21417607.927 0  21417607.693 0
   -789728.277 7   -615372.393 7  20097854.983 0  20097853.955 0
  -1451651.907 7   -914852.234 6  22117796.279 0  22117798.331 0
  -1442224.687 7   -969102.577 7  23689551.047 0  23689551.975 0
 88  2 25  5 16 59.0800000  0  4  6  8 11  9
  -1851490.041 8  -1442720.114 7  21407452.407 0  21407453.686 0
   -802969.833 7   -625690.490 7  20095334.351 0  20095333.957 0
  -1539244.114 8   -983105.884 7  22101128.863 0  22101130.275 0
  -1532702.921 6  -1039605.084 6  23672334.484 0  23672333.201 0
 88  2 25  5 17 29.0800000  0  4  6  8 11  9
  -1904658.980 8  -1484150.448 7  21397335.319 0  21397335.227 0
   -815515.207 8   -635466.098 7  20092946.728 0  20092946.458 0
  -1626452.712 7  -1051060.630 7  22084532.862 0  22084534.740 0
  -1623213.425 7  -1110132.744 7  23655110.710 0  23655110.531 0
 88  2 25  5 17 59.0800000  0  4  6  8 11  9
  -1957629.983 7  -1525426.575 7  21387255.590 0  21387254.515 0
   -827363.560 7   -644698.564 7  20090692.695 0  20090692.082 0
  -1713274.754 8  -1118714.156 7  22068010.977 0  22068013.447 0
  -1713754.106 6  -1180683.918 6  23637879.695 0  23637881.589 0
 88  2 25  5 18 29.0800000  0  4  6  8 11  9
  -2010401.875 7  -1566547.528 7  21377213.943 0  21377212.804 0
   -838516.098 7   -653388.852 6  20088570.078 0  20088569.733 0
  -1799709.023 7  -1186065.529 6  22051563.923 0  22051565.369 0
  -1804324.799 7  -1251258.477 7  23620645.907 0  23620646.506 0
 88  2 25  5 18 59.0800000  0  4  6  8 11  9
  -2062972.362 8  -1607511.538 7  21367209.552 0  21367209.020 0
   -848972.805 8   -661536.928 7  20086580.699 0  20086580.004 0
  -1885753.131 8  -1253112.866 6  22035189.840 0  22035191.306 0
  -1894923.805 8  -1321855.113 7  23603406.104 0  23603406.063 0
 88  2 25  5 19 29.0800000  0  4  6  8 11  9
  -2115338.687 7  -1648316.467 7  21357244.589 0  21357244.352 0
   -858733.248 7   -669142.473 7  20084720.989 0  20084722.994 0
  -1971404.480 8  -1319854.168 7  22018890.772 0  22018892.166 0
  -1985549.339 7  -1392472.409 7  23586160.985 0  23586161.230 0
 88  2 25  5 19 59.0800000  0  4  6  8 11  9
  -2167499.085 7  -1688960.951 8  21347318.372 0  21347319.467 0
   -867798.439 7   -676206.247 7  20082996.998 0  20082998.416 0
  -2056660.716 7  -1386287.584 7  22002667.577 0  22002668.484 0
  -2076200.223 7  -1463109.451 7  23568909.503 0  23568909.752 0
 88  2 25  5 20 29.0800000  0  4  6  8 11  9
  -2219451.248 8  -1729443.153 7  21337432.344 0  21337432.983 0
   -876167.924 7   -682727.922 7  20081404.355 0  20081405.783 0
  -2141519.266 7  -1452411.115 7  21986519.379 0  21986520.727 0
  -2166875.112 8  -1533765.205 7  23551655.561 0  23551654.739 0
 88  2 25  5 20 59.0800000  0  4  6  8 11  9
  -2271193.646 8  -1769761.915 7  21327585.647 0  21327586.054 0
   -883842.606 8   -688708.185 6  20079944.254 0  20079944.385 0
  -2225978.542 7  -1518223.530 7  21970447.077 0  21970448.090 0
  -2257573.272 8  -1604439.084 7  23534396.414 0  23534396.362 0
 88  2 25  5 21 29.0800000  0  4  6  8 11  9
  -2322723.449 8  -1809914.992 7  21317779.969 0  21317779.791 0
   -890822.267 7   -694146.873 7  20078615.844 0  20078615.460 0
  -2310035.852 7  -1583722.715 7  21954451.283 0  21954453.315 0
  -2348292.619 8  -1675129.489 8  23517132.378 0  23517133.151 0
 88  2 25  5 21 59.0800000  0  4  6  8 11  9
  -2374038.298 8  -1849900.585 7  21308015.974 0  21308014.737 0
   -897107.035 8   -699044.089 7  20077420.291 0  20077419.812 0
  -2393688.701 8  -1648906.742 7  21938534.259 0  21938534.119 0
  -2439031.588 8  -1745835.177 7  23499866.132 0  23499866.702 0
 88  2 25  5 22 29.0800000  0  4  6  8 11  9
  -2425136.781 8  -1889717.594 7  21298291.588 0  21298291.269 0
   -902698.182 7   -703400.829 6  20076356.144 0  20076356.533 0
  -2476935.715 7  -1713774.526 7  21922691.483 0  21922693.783 0
  -2529789.522 8  -1816555.637 7  23482594.827 0  23482595.164 0
 88  2 25  5 22 59.0800000  0  4  6  8 11  9
  -2476016.126 8  -1929363.833 8  21288609.671 0  21288609.692 0
   -907595.917 8   -707217.225 7  20075424.567 0  20075424.063 0
  -2559774.372 7  -1778324.119 7  21906927.790 0  21906929.218 0
  -2620564.523 7  -1887289.405 7  23465321.622 0  23465321.782 0
 88  2 25  5 23 29.0800000  0  4  6  8 11  9
  -2526673.875 8  -1968837.413 7  21278969.305 0  21278970.364 0
   -911800.039 7   -710493.167 7  20074623.118 0  20074624.513 0
  -2642201.765 7  -1842553.228 7  21891242.420 0  21891243.668 0
  -2711354.899 7  -1958035.149 7  23448043.471 0  23448043.645 0
 88  2 25  5 23 59.0800000  0  4  6  8 11  9
  -2577108.417 7  -2008137.036 7  21269371.987 0  21269372.383 0
   -915311.290 7   -713229.207 7  20073956.414 0  20073956.025 0
  -2724216.707 7  -1906460.972 7  21875635.196 0  21875638.078 0
  -2802159.746 7  -2028792.165 7  23430763.750 0  23430764.420 0
 88  2 25  5 24 29.0800000  0  4  6  8 11  9
  -2627317.082 8  -2047260.661 7  21259818.150 0  21259818.332 0
   -918130.361 7   -715425.861 7  20073419.656 0  20073418.785 0
  -2805816.700 7  -1970045.364 7  21860107.570 0  21860109.107 0
  -2892977.078 7  -2099558.886 8  23413482.080 0  23413481.888 0
 88  2 25  5 24 59.0800000  0  4  6  8 11  9
  -2677297.204 8  -2086206.211 8  21250307.415 0  21250307.208 0
   -920256.792 7   -717082.831 7  20073014.609 0  20073015.093 0
  -2886998.972 7  -2033304.252 8  21844659.080 0  21844661.035 0
  -2983805.246 7  -2170334.052 7  23396198.610 0  23396198.625 0
 88  2 25  5 25 29.0800000  0  4  6  8 11  9
  -2727046.898 8  -2124972.197 8  21240839.920 0  21240839.787 0
   -921691.779 7   -718201.003 7  20072741.160 0  20072741.886 0
  -2967761.781 8  -2096236.306 7  21829290.842 0  21829291.916 0
  -3074642.609 7  -2241116.384 7  23378912.298 0  23378913.047 0
 88  2 25  5 25 59.0800000  0  4  6  8 11  9
  -2776565.225 8  -2163557.903 7  21231416.700 0  21231416.639 0
   -922437.384 7   -718781.988 7  20072599.765 0  20072599.852 0
  -3048104.461 7  -2158840.987 7  21814001.614 0  21814003.067 0
  -3165489.302 7  -2311906.005 7  23361625.026 0  23361625.253 0
 88  2 25  5 26 29.0800000  0  4  6  8 11  9
  -2825848.492 7  -2201960.430 7  21222038.583 0  21222038.679 0
   -922492.912 7   -718825.247 7  20072589.585 0  20072588.690 0
  -3128023.289 7  -2221115.378 7  21798793.570 0  21798794.217 0
  -3256342.309 7  -2382700.530 7  23344335.685 0  23344337.262 0
 88  2 25  5 26 59.0800000  0  4  6  8 11  9
  -2874893.707 8  -2240177.481 7  21212706.640 0  21212705.217 0
   -921857.866 7   -718330.412 7  20072709.734 0  20072711.180 0
  -3207515.772 8  -2283057.572 7  21783666.854 0  21783667.896 0
  -3347199.482 7  -2453498.289 7  23327046.223 0  23327046.120 0
 88  2 25  5 27 29.0800000  0  4  6  8 11  9
  -2923700.151 8  -2278208.477 7  21203418.268 0  21203418.205 0
   -920534.695 7   -717299.380 7  20072961.469 0  20072961.576 0
  -3286581.536 8  -2344667.252 6  21768621.420 0  21768621.852 0
  -3438060.727 6  -2524299.231 7  23309757.553 0  23309755.462 0
 88  2 25  5 27 59.0800000  0  4  6  8 11  9
  -2972265.165 8  -2316051.336 7  21194176.515 0  21194176.985 0
   -918523.711 7   -715732.365 7  20073344.659 0  20073344.895 0
  -3365217.567 7  -2405942.058 6  21753656.992 0  21753657.353 0
  -3528923.969 7  -2595101.729 7  23292464.866 0  23292465.326 0
 88  2 25  5 28 29.0800000  0  4  6  8 11  9
  -3020586.032 8  -2353703.960 7  21184981.082 0  21184981.548 0
   -915824.896 7   -713629.389 7  20073858.244 0  20073858.575 0
  -3443421.599 7  -2466880.255 7  21738775.101 0  21738776.669 0
  -3619787.260 7  -2665904.257 7  23275174.014 0  23275175.553 0
 88  2 25  5 28 59.0800000  0  4  6  8 11  9
  -3068659.776 8  -2391164.010 7  21175832.723 0  21175832.710 0
   -912439.066 7   -710991.095 7  20074502.738 0  20074503.484 0
  -3521190.769 8  -2527479.597 6  21723975.768 0  21723977.399 0
  -3710648.367 7  -2736705.099 6  23257884.495 0  23257885.119 0
 88  2 25  5 29 29.0800000  0  4  6  8 11  9
  -3116485.903 7  -2428431.121 7  21166732.259 0  21166731.829 0
   -908368.396 7   -707819.119 7  20075277.237 0  20075277.225 0
  -3598524.994 8  -2587740.019 7  21709260.658 0  21709261.611 0
  -3801507.176 7  -2807504.170 7  23240594.872 0  23240594.025 0
 88  2 25  5 29 59.0800000  0  4  6  8 11  9
  -3164061.984 8  -2465503.393 7  21157678.745 0  21157679.225 0
   -903613.878 7   -704114.313 7  20076181.710 0  20076181.807 0
  -3675422.146 8  -2647659.859 7  21694627.283 0  21694628.162 0
  -3892362.302 7  -2878300.359 7  23223304.762 0  23223305.454 0
 88  2 25  5 30 29.0800000  0  4  6  8 11  9
  -3211383.536 8  -2502377.326 7  21148674.269 0  21148673.195 0
   -898174.230 8   -699875.610 7  20077217.370 0  20077217.038 0
  -3751878.012 7  -2707235.849 7  21680078.098 0  21680079.417 0
  -3983209.827 7  -2949090.612 7  23206017.887 0  23206017.694 0
 88  2 25  5 30 59.0800000  0  4  6  8 11  9
  -3258449.439 7  -2539052.062 7  21139717.542 0  21139717.381 0
   -892051.352 7   -695104.526 7  20078381.546 0  20078382.077 0
  -3827891.779 8  -2766467.332 7  21665613.319 0  21665614.810 0
  -4074049.045 8  -3019874.404 7  23188732.206 0  23188731.732 0
 88  2 25  5 31 29.0800000  0  4  6  8 11  9
  -3305259.157 7  -2575527.161 7  21130809.282 0  21130809.675 0
   -885248.084 8   -689803.273 7  20079676.021 0  20079676.414 0
  -3903463.695 7  -2825354.525 7  21651232.123 0  21651233.411 0
  -4164880.529 8  -3090652.176 7  23171447.094 0  23171446.890 0
 88  2 25  5 31 59.0800000  0  4  6  8 11  9
  -3351808.594 7  -2611799.436 7  21121950.939 0  21121952.032 0
   -877763.794 8   -683971.351 7  20081101.645 0  20081101.142 0
  -3978590.097 7  -2883894.572 7  21636936.462 0  21636937.329 0
  -4255700.549 8  -3161421.012 8  23154164.747 0  23154165.028 0
 88  2 25  5 32 29.0800000  0  4  6  8 11  9
  -3398094.046 8  -2647866.030 7  21113144.420 0  21113143.884 0
   -869598.013 7   -677608.403 7  20082655.232 0  20082654.055 0
  -4053267.161 7  -2942084.486 6  21622725.992 0  21622727.206 0
  -4346506.101 7  -3232178.590 7  23136884.132 0  23136885.183 0
 88  2 25  5 32 59.0800000  0  4  6  8 11  9
  -3444115.735 8  -2683727.084 7  21104386.546 0  21104385.997 0
   -860753.891 7   -670716.877 7  20084338.601 0  20084338.217 0
  -4127495.789 7  -2999924.956 7  21608600.897 0  21608601.958 0
  -4437297.811 8  -3302925.364 7  23119607.620 0  23119607.749 0
 88  2 25  5 33 29.0800000  0  4  6  8 11  9
  -3489871.130 7  -2719380.641 7  21095678.512 0  21095679.392 0
   -851232.371 7   -663297.498 7  20086150.364 0  20086149.889 0
  -4201273.855 7  -3057414.353 6  21594560.981 0  21594561.447 0
  -4528073.788 7  -3373659.876 6  23102333.530 0  23102333.683 0
 88  2 25  5 33 59.0800000  0  4  6  8 11  9
  -3535356.962 7  -2754824.136 7  21087023.337 0  21087022.788 0
   -841033.519 7   -655350.341 7  20088090.384 0  20088090.424 0
  -4274598.626 8  -3114550.518 7  21580607.779 0  21580608.883 0
  -4618831.641 8  -3444380.284 7  23085062.199 0  23085062.915 0
 88  2 25  5 34 29.0800000  0  4  6  8 11  9
  -3580571.296 8  -2790056.079 7  21078420.302 0  21078420.299 0
   -830159.298 7   -646876.927 7  20090160.132 0  20090159.819 0
  -4347468.694 8  -3171332.383 7  21566740.042 0  21566742.730 0
  -4709569.595 7  -3515085.172 7  23067795.614 0  23067797.210 0
 88  2 25  5 34 59.0800000  0  4  6  8 11  9
  -3625511.278 8  -2825074.264 7  21069867.997 0  21069866.866 0
   -818610.772 7   -637878.076 7  20092356.545 0  20092358.153 0
  -4419881.546 7  -3227757.963 7  21552960.920 0  21552962.686 0
  -4800285.659 7  -3585772.999 8  23050534.178 0  23050533.615 0
 88  2 25  5 35 29.0800000  0  4  6  8 11  9
  -3670175.350 8  -2859877.447 7  21061367.530 0  21061367.458 0
   -806389.470 7   -628354.965 7  20094682.512 0  20094682.824 0
  -4491835.994 7  -3283826.352 7  21539268.145 0  21539270.510 0
  -4890978.798 7  -3656442.977 7  23033275.229 0  23033274.910 0
 88  2 25  5 35 59.0800000  0  4  6  8 11  9
  -3714560.992 8  -2894463.648 7  21052921.517 0  21052921.567 0
   -793496.213 7   -618308.272 7  20097136.661 0  20097136.077 0
  -4563330.409 7  -3339536.279 7  21525663.086 0  21525664.192 0
  -4981646.905 7  -3727093.433 7  23016021.110 0  23016021.742 0
 88  2 25  5 36 29.0800000  0  4  6  8 11  9
  -3758664.466 7  -2928829.996 7  21044529.714 0  21044529.910 0
   -779930.618 7   -607737.672 7  20099717.171 0  20099717.874 0
  -4634361.753 7  -3394885.362 6  21512146.555 0  21512148.004 0
  -5072286.961 7  -3797722.038 7  22998773.096 0  22998772.863 0
 88  2 25  5 36 59.0800000  0  4  6  8 11  9
  -3802484.919 7  -2962975.808 7  21036192.002 0  21036190.737 0
   -765696.077 7   -596645.820 7  20102426.329 0  20102426.431 0
  -4704929.607 7  -3449873.281 6  21498718.089 0  21498719.144 0
  -5162898.607 7  -3868328.511 7  22981530.494 0  22981531.151 0
 88  2 25  5 37 29.0800000  0  4  6  8 11  9
  -3846020.097 8  -2996899.321 7  21027906.717 0  21027906.368 0
   -750793.536 7   -585033.443 7  20105262.591 0  20105261.982 0
  -4775032.408 7  -3504498.832 7  21485377.922 0  21485379.131 0
  -5253480.103 7  -3938911.488 8  22964293.240 0  22964293.634 0
 88  2 25  5 37 59.0800000  0  4  6  8 11  9
  -3889266.361 8  -3030597.716 7  21019676.496 0  21019676.951 0
   -735223.474 8   -572900.916 7  20108225.146 0  20108225.945 0
  -4844666.913 7  -3558759.475 7  21472127.242 0  21472128.597 0
  -5344028.287 7  -4009468.504 7  22947062.769 0  22947063.398 0
 88  2 25  5 38 29.0800000  0  4  6  8 11  9
  -3932221.933 7  -3064069.588 7  21011502.794 0  21011502.792 0
   -718987.926 7   -560249.848 7  20111314.356 0  20111314.888 0
  -4913831.920 8  -3612654.282 7  21458965.512 0  21458966.630 0
  -5434541.713 7  -4079998.444 7  22929838.145 0  22929838.050 0
 88  2 25  5 38 59.0800000  0  4  6  8 11  9
  -3974886.034 8  -3097314.359 7  21003385.244 0  21003383.522 0
   -702089.892 8   -547082.537 7  20114530.786 0  20114531.312 0
  -4982527.728 7  -3666183.465 7  21445893.895 0  21445893.589 0
  -5525020.515 7  -4150501.391 7  22912620.961 0  22912620.486 0
 88  2 25  5 39 29.0800000  0  4  6  8 11  9
  -4017254.880 7  -3130329.032 7  20995321.398 0  20995322.234 0
   -684529.168 7   -533398.849 7  20117872.191 0  20117872.369 0
  -5050751.039 7  -3719344.479 6  21432910.306 0  21432910.712 0
  -5615460.964 7  -4220974.463 7  22895410.540 0  22895411.513 0
 88  2 25  5 39 59.0800000  0  4  6  8 11  9
  -4059325.116 7  -3163111.026 8  20987315.425 0  20987315.722 0
   -666306.802 7   -519199.604 7  20121340.118 0  20121339.701 0
  -5118499.300 7  -3772135.323 7  21420017.881 0  21420020.316 0
  -5705860.325 7  -4291415.520 7  22878209.169 0  22878208.802 0
 88  2 25  5 40 29.0800000  0  4  6  8 11  9
  -4101095.012 7  -3195658.994 7  20979366.897 0  20979367.138 0
   -647424.332 8   -504485.977 6  20124933.184 0  20124934.216 0
  -5185771.458 8  -3824555.169 7  21407216.617 0  21407217.877 0
  -5796217.461 8  -4361823.678 7  22861013.595 0  22861013.668 0
 88  2 25  5 40 59.0800000  0  4  6  8 11  9
  -4142563.496 7  -3227972.121 7  20971475.885 0  20971476.013 0
   -627884.467 7   -489260.095 7  20128652.056 0  20128652.144 0
  -5252567.245 7  -3876603.823 7  21394505.467 0  21394508.151 0
  -5886531.548 7  -4432198.299 7  22843827.940 0  22843827.448 0
 88  2 25  5 41 29.0800000  0  4  6  8 11  9
  -4183728.221 8  -3260048.535 7  20963642.159 0  20963642.789 0
   -607688.585 7   -473523.041 7  20132494.435 0  20132494.629 0
  -5318885.049 7  -3928280.025 6  21381885.591 0  21381887.937 0
  -5976800.966 8  -4502538.103 6  22826650.949 0  22826649.634 0
 88  2 25  5 41 59.0800000  0  4  6  8 11  9
  -4224585.639 7  -3291885.465 7  20955866.726 0  20955868.312 0
   -586837.370 8   -457275.337 7  20136462.565 0  20136461.985 0
  -5384722.107 7  -3979581.612 7  21369358.122 0  21369359.429 0
  -6067022.310 8  -4572840.450 6  22809482.007 0  22809481.918 0
 88  2 25  5 42 29.0800000  0  4  6  8 11  9
  -4265133.118 7  -3323480.900 7  20948151.366 0  20948152.503 0
   -565332.550 7   -440518.328 7  20140554.582 0  20140555.000 0
  -5450076.658 7  -4030507.236 7  21356921.530 0  21356922.685 0
  -6157193.285 8  -4643103.553 7  22792322.601 0  22792322.575 0
 88  2 25  5 42 59.0800000  0  4  6  8 11  9
  -4305369.255 8  -3354833.730 7  20940495.354 0  20940495.593 0
   -543176.554 7   -423253.912 7  20144770.146 0  20144770.859 0
  -5514948.336 8  -4081056.582 6  21344576.362 0  21344577.914 0
  -6247313.148 8  -4713326.826 6  22775173.687 0  22775173.157 0
 88  2 25  5 43 29.0800000  0  4  6  8 11  9
  -4345290.758 8  -3385941.395 7  20932898.414 0  20932897.755 0
   -520370.094 7   -405482.641 6  20149110.800 0  20149110.058 0
  -5579334.575 8  -4131227.659 7  21332323.903 0  21332325.144 0
  -6337378.974 7  -4783507.978 7  22758033.884 0  22758033.778 0
 88  2 25  5 43 59.0800000  0  4  6  8 11  9
  -4384896.393 7  -3416802.937 7  20925361.099 0  20925361.129 0
   -496915.961 7   -387206.690 7  20153573.274 0  20153573.705 0
  -5643234.943 7  -4181020.133 6  21320164.120 0  21320165.884 0
  -6427389.494 8  -4853646.043 7  22740905.788 0  22740905.835 0
 88  2 25  5 44 29.0800000  0  4  6  8 11  9
  -4424184.199 8  -3447416.801 7  20917885.236 0  20917885.629 0
   -472816.100 8   -368427.582 7  20158160.151 0  20158160.015 0
  -5706648.203 7  -4230433.059 6  21308096.873 0  21308098.011 0
  -6517343.659 8  -4923740.202 7  22723788.760 0  22723788.287 0
 88  2 25  5 44 59.0800000  0  4  6  8 11  9
  -4463150.481 7  -3477780.154 8  20910470.223 0  20910470.314 0
   -448071.029 7   -349145.707 7  20162867.540 0  20162868.215 0
  -5769571.756 7  -4279464.393 7  21296123.563 0  21296124.291 0
  -6607237.678 7  -4993787.471 7  22706681.634 0  22706681.705 0
 88  2 25  5 45 29.0800000  0  4  6  8 11  9
  -4501793.140 8  -3507891.322 7  20903116.682 0  20903116.875 0
   -422683.048 7   -329362.865 7  20167699.687 0  20167700.424 0
  -5832004.252 7  -4328113.072 7  21284243.214 0  21284244.236 0
  -6697070.110 7  -5063786.751 7  22689587.604 0  22689586.353 0
 88  2 25  5 45 59.0800000  0  4  6  8 11  9
  -4540108.906 8  -3537747.753 7  20895825.666 0  20895825.650 0
   -396653.081 7   -309079.766 6  20172653.127 0  20172653.163 0
  -5893943.886 7  -4376377.705 6  21272456.798 0  21272456.785 0
  -6786837.687 7  -5133735.487 7  22672504.664 0  22672505.172 0
 88  2 25  5 46 29.0800000  0  4  6  8 11  9
  -4578096.078 8  -3567348.150 7  20888596.675 0  20888596.701 0
   -369983.505 7   -288298.281 7  20177728.750 0  20177726.849 0
  -5955389.641 7  -4424257.509 6  21260763.507 0  21260764.326 0
  -6876539.451 7  -5203632.933 7  22655436.062 0  22655434.919 0
 88  2 25  5 46 59.0800000  0  4  6  8 11  9
  -4615753.698 7  -3596691.757 6  20881431.415 0  20881431.054 0
   -342677.754 7   -267021.065 7  20182924.694 0  20182923.689 0
  -6016341.393 7  -4471752.365 7  21249164.485 0  21249166.198 0
  -6966174.339 7  -5273478.295 7  22638378.188 0  22638378.110 0
 88  2 25  5 47 29.0800000  0  4  6  8 11  9
  -4653078.984 8  -3625776.387 7  20874328.615 0  20874328.711 0
   -314736.964 7   -245249.007 7  20188241.740 0  20188241.199 0
  -6076797.583 8  -4518861.075 6  21237659.760 0  21237660.886 0
  -7055739.945 8  -5343269.639 7  22621333.419 0  22621334.677 0
 88  2 25  5 47 59.0800000  0  4  6  8 11  9
  -4690069.167 7  -3654599.902 8  20867290.233 0  20867289.585 0
   -286162.607 7   -222983.274 7  20193678.126 0  20193678.553 0
  -6136756.466 7  -4565582.271 7  21226249.914 0  21226251.411 0
  -7145233.965 7  -5413005.211 7  22604305.122 0  22604304.323 0
 88  2 25  5 48 29.0800000  0  4  6  8 11  9
  -4726722.116 7  -3683160.641 7  20860313.940 0  20860313.225 0
   -256957.174 8   -200225.781 7  20199236.788 0  20199235.612 0
  -6196217.240 7  -4611915.338 7  21214935.571 0  21214936.407 0
  -7234654.289 7  -5482683.358 7  22587287.904 0  22587288.198 0
 88  2 25  5 48 59.0800000  0  4  6  8 11  9
  -4763034.997 7  -3711456.394 7  20853404.385 0  20853403.795 0
   -227122.189 7   -176977.722 7  20204913.778 0  20204913.727 0
  -6255177.825 7  -4657858.644 6  21203715.428 0  21203715.821 0
  -7323998.529 7  -5552302.222 7  22570286.449 0  22570286.868 0
 88  2 25  5 49 29.0800000  0  4  6  8 11  9
  -4799005.629 7  -3739485.464 7  20846558.578 0  20846559.332 0
   -196659.385 7   -153240.485 7  20210709.877 0  20210710.181 0
  -6313637.097 7  -4703411.306 6  21192590.703 0  21192592.075 0
  -7413264.613 7  -5621860.170 7  22553300.233 0  22553299.825 0
 88  2 25  5 49 59.0800000  0  4  6  8 11  9
  -4834632.082 7  -3767246.332 7  20839779.812 0  20839779.859 0
   -165571.359 7   -129016.054 7  20216625.583 0  20216626.954 0
  -6371594.248 7  -4748572.710 7  21181562.424 0  21181563.019 0
  -7502450.764 7  -5691355.868 8  22536328.140 0  22536328.689 0
 88  2 25  5 50 29.0800000  0  4  6  8 11  9
  -4869911.407 7  -3794736.708 7  20833066.555 0  20833065.613 0
   -133860.116 7   -104306.000 7  20222660.465 0  20222660.371 0
  -6429047.591 7  -4793341.554 7  21170629.454 0  21170630.058 0
  -7591554.313 8  -5760787.193 7  22519372.740 0  22519371.872 0
 88  2 25  5 50 59.0800000  0  4  6  8 11  9
  -4904841.421 7  -3821954.900 8  20826419.810 0  20826418.182 0
   -101527.576 7    -79111.808 7  20228812.939 0  20228813.585 0
  -6485995.933 7  -4837716.868 7  21159792.388 0  21159793.921 0
  -7680573.254 8  -5830152.590 7  22502433.416 0  22502433.251 0
 88  2 25  5 51 29.0800000  0  4  6  8 11  9
  -4939419.684 7  -3848899.005 7  20819839.923 0  20819838.850 0
    -68575.630 7    -53434.972 8  20235084.495 0  20235084.320 0
  -6542437.861 7  -4881697.570 7  21149052.493 0  21149052.427 0
  -7769505.336 8  -5899450.299 7  22485509.705 0  22485509.089 0
 88  2 25  5 51 59.0800000  0  4  6  8 11  9
  -4973642.840 8  -3875566.405 7  20813326.441 0  20813326.844 0
    -35005.178 7    -27276.162 7  20241473.091 0  20241473.293 0
  -6598371.452 7  -4925282.171 6  21138407.531 0  21138408.118 0
  -7858347.298 8  -5968677.806 7  22468602.908 0  22468603.563 0
 88  2 25  5 52 29.0800000  0  4  6  8 11  9
  -5007510.722 8  -3901956.958 7  20806882.309 0  20806882.177 0
      -820.747 7      -638.939 7  20247976.971 0  20247977.722 0
  -6653798.065 8  -4968471.729 7  21127861.200 0  21127861.526 0
  -7947099.300 8  -6037835.214 6  22451714.352 0  22451714.732 0
 88  2 25  5 52 59.0800000  0  4  6  8 11  9
  -5041020.270 7  -3928068.289 7  20800505.545 0  20800504.543 0
     33976.288 7     26475.637 7  20254599.559 0  20254599.080 0
  -6708715.418 7  -5011264.471 7  21117410.388 0  21117411.488 0
  -8035758.126 8  -6106920.008 7  22434843.125 0  22434842.248 0
 88  2 25  5 53 29.0800000  0  4  6  8 11  9
  -5074168.017 8  -3953897.715 6  20794196.932 0  20794197.125 0
     69384.945 7     54066.796 7  20261336.718 0  20261337.178 0
  -6763121.470 8  -5053658.777 6  21107056.282 0  21107058.054 0
  -8124320.265 8  -6175929.468 7  22417990.027 0  22417989.357 0
 88  2 25  5 53 59.0800000  0  4  6  8 11  9
  -5106952.388 8  -3979443.999 7  20787958.477 0  20787959.598 0
    105402.091 7     82132.100 7  20268190.210 0  20268190.688 0
  -6817015.843 7  -5095654.392 6  21096802.033 0  21096801.736 0
  -8212784.816 8  -6244862.889 7  22401156.096 0  22401156.155 0
 88  2 25  5 54 29.0800000  0  4  6  8 11  9
  -5139371.083 7  -4004705.314 7  20781789.290 0  20781789.419 0
    142025.147 6    110669.544 7  20275159.901 0  20275161.028 0
  -6870397.483 7  -5137250.450 7  21086642.953 0  21086644.340 0
  -8301149.329 7  -6313718.347 6  22384340.746 0  22384340.657 0
 88  2 25  5 54 59.0800000  0  4  6  8 11  9
  -5171421.231 7  -4029679.447 7  20775691.082 0  20775689.947 0
    179252.942 7    139678.201 7  20282243.780 0  20282245.094 0
  -6923264.667 8  -5178445.656 7  21076582.275 0  21076584.069 0
  -8389410.452 8  -6382493.253 7  22367546.268 0  22367545.111 0
 88  2 25  5 55 29.0800000  0  4  6  8 11  9
  -5203101.609 7  -4054365.468 7  20769662.343 0  20769661.483 0
    217081.753 7    169155.188 7  20289442.896 0  20289443.260 0
  -6975617.841 7  -5219240.333 7  21066619.861 0  21066622.256 0
  -8477567.854 8  -6451187.341 7  22350770.486 0  22350769.397 0
 88  2 25  5 55 59.0800000  0  4  6  8 11  9
  -5234409.512 7  -4078761.239 7  20763703.850 0  20763703.844 0
    255509.858 7    199099.188 7  20296755.532 0  20296755.825 0
  -7027455.591 6  -5259633.369 7  21056756.336 0  21056756.709 0
  -8565617.946 7  -6519797.805 7  22334014.565 0  22334013.585 0
 88  2 25  5 56 29.0800000  0  4  6  8 11  9
  -5265341.934 8  -4102864.425 8  20757817.974 0  20757817.954 0
    294535.626 7    229508.871 8  20304182.412 0  20304182.223 0
  -7078776.524 7  -5299623.695 7  21046988.693 0  21046990.423 0
  -8653558.870 8  -6588323.213 7  22317280.388 0  22317280.296 0
 88  2 25  5 56 59.0800000  0  4  6  8 11  9
  -5295895.799 8  -4126672.626 7  20752004.259 0  20752004.615 0
    334157.219 7    260382.846 7  20311721.677 0  20311721.240 0
  -7129578.659 8  -5339209.763 6  21037322.213 0  21037323.640 0
  -8741386.732 8  -6656760.505 7  22300566.688 0  22300566.599 0
 88  2 25  5 57 29.0800000  0  4  6  8 11  9
  -5326070.040 7  -4150185.026 7  20746262.143 0  20746262.842 0
    374371.478 8    291718.641 7  20319374.117 0  20319374.500 0
  -7179861.982 7  -5378391.563 7  21027753.707 0  21027754.861 0
  -8829100.803 8  -6725109.137 7  22283874.806 0  22283874.628 0
 88  2 25  5 57 59.0800000  0  4  6  8 11  9
  -5355863.450 8  -4173400.671 7  20740592.867 0  20740592.760 0
    415174.597 7    323513.274 7  20327138.017 0  20327138.772 0
  -7229627.026 7  -5417169.513 6  21018283.737 0  21018284.678 0
  -8916699.847 7  -6793368.141 7  22267205.677 0  22267205.661 0
 88  2 25  5 58 29.0800000  0  4  6  8 11  9
  -5385272.289 7  -4196316.652 7  20734995.837 0  20734996.861 0
    456565.887 7    355766.223 7  20335015.264 0  20335015.266 0
  -7278871.323 7  -5455541.672 6  21008912.771 0  21008913.001 0
  -9004179.569 8  -6861534.155 8  22250559.061 0  22250558.742 0
 88  2 25  5 58 59.0800000  0  4  6  8 11  9
  -5414294.325 7  -4218931.224 8  20729473.357 0  20729474.425 0
    498542.373 7    388475.173 7  20343002.378 0  20343002.867 0
  -7327594.127 7  -5493507.475 7  20999640.504 0  20999641.338 0
  -9091538.530 8  -6929606.069 8  22233935.222 0  22233934.832 0
 88  2 25  5 59 29.0800000  0  4  6  8 11  9
  -5442926.675 7  -4241242.130 8  20724025.398 0  20724025.055 0
    541102.434 7    421638.859 7  20351102.239 0  20351102.164 0
  -7375794.124 7  -5531065.907 7  20990468.750 0  20990470.134 0
  -9178772.852 7  -6997580.871 7  22217334.739 0  22217334.532 0
 88  2 25  5 59 59.0800000  0  4  6  8 11  9
  -5471169.294 7  -4263249.377 7  20718650.175 0  20718651.377 0
    584241.851 7    455253.981 7  20359311.354 0  20359311.085 0
  -7423472.770 7  -5568218.077 7  20981396.004 0  20981396.761 0
  -9265882.822 8  -7065458.762 7  22200758.840 0  22200758.696 0
 88  2 25  6  0 29.0800000  0  4  6  8 11  9
  -5499019.161 7  -4284950.591 7  20713351.731 0  20713350.670 0
    627958.270 7    489318.719 7  20367630.270 0  20367630.061 0
  -7470628.466 7  -5604962.775 7  20972422.776 0  20972423.225 0
  -9352865.507 8  -7133237.472 7  22184206.064 0  22184206.686 0
 88  2 25  6  0 59.0800000  0  4  6  8 11  9
  -5526471.824 7  -4306342.264 8  20708126.904 0  20708127.381 0
    672251.323 7    523832.791 7  20376058.345 0  20376058.733 0
  -7517258.074 7  -5641297.513 7  20963549.303 0  20963549.767 0
  -9439716.012 8  -7200913.182 7  22167679.081 0  22167678.757 0
 88  2 25  6  1 29.0800000  0  4  6  8 11  9
  -5553525.058 8  -4327422.711 7  20702979.307 0  20702979.473 0
    717118.981 7    558794.604 7  20384597.087 0  20384597.075 0
  -7563361.138 7  -5677221.966 7  20954776.387 0  20954776.881 0
  -9526431.867 8  -7268483.969 7  22151177.214 0  22151177.110 0
 88  2 25  6  1 59.0800000  0  4  6  8 11  9
  -5580178.453 7  -4348191.609 7  20697907.625 0  20697906.804 0
    762556.740 8    594200.646 7  20393243.053 0  20393243.203 0
  -7608938.588 6  -5712736.861 7  20946102.989 0  20946103.835 0
  -9613013.104 8  -7335949.861 7  22134701.602 0  22134701.724 0
 88  2 25  6  2 29.0800000  0  4  6  8 11  9
  -5606430.839 7  -4368648.018 7  20692911.177 0  20692910.837 0
    808560.713 7    630047.899 7  20401997.312 0  20401997.805 0
  -7653991.041 7  -5747842.653 7  20937528.996 0  20937530.850 0
  -9699457.701 8  -7403309.279 7  22118251.463 0  22118251.453 0
 88  2 25  6  2 59.0800000  0  4  6  8 11  9
  -5632278.895 7  -4388789.363 7  20687992.673 0  20687992.779 0
    855129.319 8    666335.106 7  20410859.356 0  20410859.111 0
  -7698516.762 7  -5782538.012 6  20929056.022 0  20929057.898 0
  -9785762.276 8  -7470559.596 7  22101828.717 0  22101829.074 0
 88  2 25  6  3 29.0800000  0  4  6  8 11  9
  -5657719.643 7  -4408613.335 7  20683151.753 0  20683151.319 0
    902261.056 8    703061.140 7  20419827.565 0  20419829.003 0
  -7742514.194 7  -5816821.710 6  20920684.393 0  20920685.482 0
  -9871924.115 8  -7537698.683 7  22085432.395 0  22085432.520 0
 88  2 25  6  3 59.0800000  0  4  6  8 11  9
  -5682751.611 8  -4428118.765 7  20678387.830 0  20678387.986 0
    949952.527 8    740223.319 7  20428903.122 0  20428902.972 0
  -7785982.999 7  -5850693.482 7  20912412.241 0  20912413.012 0
  -9957940.654 8  -7604724.550 7  22069063.929 0  22069063.880 0
 88  2 25  6  4 29.0800000  0  4  6  8 11  9
  -5707371.007 8  -4447302.725 7  20673702.496 0  20673702.892 0
    998202.024 8    777820.331 7  20438085.826 0  20438085.279 0
  -7828921.895 7  -5884152.363 7  20904241.133 0  20904242.904 0
 -10043808.854 8  -7671634.836 7  22052723.416 0  22052723.367 0
 88  2 25  6  4 59.0800000  0  4  6  8 11  9
  -5731576.626 7  -4466164.250 7  20669096.536 0  20669096.731 0
   1047006.634 7    815849.906 7  20447372.338 0  20447372.411 0
  -7871330.590 7  -5917198.097 7  20896171.056 0  20896172.043 0
 -10129526.576 8  -7738427.856 7  22036411.341 0  22036412.004 0
 88  2 25  6  5 29.0800000  0  4  6  8 11  9
  -5755367.494 8  -4484702.600 7  20664568.889 0  20664569.328 0
   1096362.192 7    854308.791 7  20456764.605 0  20456763.914 0
  -7913210.416 7  -5949831.707 7  20888201.765 0  20888202.486 0
 -10215092.732 8  -7805102.777 7  22020129.887 0  22020129.523 0
 88  2 25  6  5 59.0800000  0  4  6  8 11  9
  -5778740.430 7  -4502915.276 7  20660121.415 0  20660121.600 0
   1146266.820 7    893195.514 7  20466261.252 0  20466260.415 0
  -7954559.624 7  -5982051.865 7  20880332.888 0  20880333.639 0
 -10300503.810 8  -7871656.857 7  22003876.914 0  22003875.952 0
 88  2 25  6  6 29.0800000  0  4  6  8 11  9
  -5801692.859 7  -4520800.284 7  20655754.212 0  20655754.252 0
   1196718.280 7    932508.345 7  20475861.412 0  20475861.496 0
  -7995377.287 7  -6013857.825 7  20872565.921 0  20872567.286 0
 -10385756.703 7  -7938087.672 7  21987653.134 0  21987653.632 0
 88  2 25  6  6 59.0800000  0  4  6  8 11  9
  -5824222.692 7  -4538356.000 7  20651466.343 0  20651466.299 0
   1247713.898 7    972245.176 7  20485564.790 0  20485565.665 0
  -8035662.768 7  -6045249.098 7  20864901.227 0  20864900.993 0
 -10470849.090 7  -8004393.419 7  21971461.176 0  21971461.041 0
 88  2 25  6  7 29.0800000  0  4  6  8 11  9
  -5846328.084 7  -4555580.980 7  20647259.835 0  20647261.051 0
   1299250.546 7   1012403.597 7  20495372.481 0  20495372.531 0
  -8075416.185 7  -6076225.782 7  20857335.398 0  20857336.437 0
 -10555778.944 7  -8070572.517 7  21955298.517 0  21955298.992 0
 88  2 25  6  7 59.0800000  0  4  6  8 11  9
  -5868006.578 7  -4572473.320 7  20643133.920 0  20643135.589 0
   1351325.843 8   1052981.736 7  20505281.500 0  20505282.990 0
  -8114636.896 8  -6106787.375 7  20849872.529 0  20849872.769 0
 -10640543.526 7  -8136622.852 7  21939168.549 0  21939169.355 0
 88  2 25  6  8 29.0800000  0  4  6  8 11  9
  -5889255.259 7  -4589030.737 7  20639091.355 0  20639091.551 0
   1403937.390 7   1093977.748 7  20515293.575 0  20515294.321 0
  -8153323.565 7  -6136932.827 7  20842510.140 0  20842511.235 0
 -10725139.254 8  -8202541.592 7  21923070.462 0  21923070.501 0
 88  2 25  6  8 59.0800000  0  4  6  8 11  9
  -5910074.013 7  -4605253.139 7  20635129.961 0  20635130.187 0
   1457080.144 7   1135387.686 7  20525406.539 0  20525407.842 0
  -8191477.806 7  -6166663.399 7  20835249.146 0  20835251.317 0
 -10809565.659 7  -8268328.394 7  21907004.676 0  21907005.182 0
 88  2 25  6  9 29.0800000  0  4  6  8 11  9
  -5930460.606 7  -4621138.796 7  20631249.732 0  20631250.415 0
   1510752.339 8   1177210.161 7  20535619.990 0  20535620.169 0
  -8229098.984 7  -6195978.594 7  20828090.266 0  20828090.918 0
 -10893820.000 7  -8333981.131 7  21890971.819 0  21890971.429 0
 88  2 25  6  9 59.0800000  0  4  6  8 11  9
  -5950411.495 7  -4636684.947 7  20627453.759 0  20627454.245 0
   1564952.361 7   1219443.962 7  20545933.836 0  20545933.953 0
  -8266185.546 7  -6224877.197 7  20821033.055 0  20821033.884 0
 -10977898.280 7  -8399496.663 7  21874972.196 0  21874972.814 0
 88  2 25  6 10 29.0800000  0  4  6  8 11  9
  -5969924.466 7  -4651889.858 7  20623741.072 0  20623741.007 0
   1619677.483 7   1262086.913 7  20556348.151 0  20556347.161 0
  -8302737.167 7  -6253358.971 6  20814076.903 0  20814078.851 0
 -11061798.095 7  -8464873.145 8  21859006.993 0  21859006.989 0
 88  2 25  6 10 59.0800000  0  4  6  8 11  9
  -5988997.768 7  -4666752.186 7  20620110.531 0  20620111.471 0
   1674924.376 7   1305136.434 7  20566861.248 0  20566861.292 0
  -8338753.356 7  -6281423.529 7  20807223.815 0  20807224.074 0
 -11145516.664 8  -8530108.413 7  21843076.286 0  21843076.091 0
 88  2 25  6 11 29.0800000  0  4  6  8 11  9
  -6007630.392 7  -4681271.105 8  20616565.576 0  20616566.219 0
   1730689.019 7   1348589.408 7  20577472.676 0  20577472.392 0
  -8374235.450 7  -6309071.905 6  20800472.098 0  20800472.491 0
 -11229053.000 8  -8595201.654 7  21827178.937 0  21827178.893 0
 88  2 25  6 11 59.0800000  0  4  6  8 11  9
  -6025820.090 7  -4695444.898 8  20613104.494 0  20613104.218 0
   1786968.722 7   1392443.710 7  20588181.628 0  20588182.879 0
  -8409182.852 7  -6336303.638 7  20793820.646 0  20793822.653 0
 -11312404.170 8  -8660150.619 7  21811318.182 0  21811317.320 0
 88  2 25  6 12 29.0800000  0  4  6  8 11  9
  -6043563.584 7  -4709270.999 7  20609727.106 0  20609727.584 0
   1843761.889 8   1436698.135 7  20598989.684 0  20598989.696 0
  -8443594.124 7  -6363117.604 7  20787273.906 0  20787274.489 0
 -11395565.893 8  -8724951.968 7  21795493.208 0  21795492.137 0
 88  2 25  6 12 59.0800000  0  4  6  8 11  9
  -6060858.448 7  -4722747.517 8  20606435.653 0  20606437.125 0
   1901066.060 7   1481350.735 7  20609893.908 0  20609894.478 0
  -8477468.807 7  -6389513.459 7  20780827.190 0  20780828.407 0
 -11478535.627 8  -8789603.706 7  21779703.914 0  21779703.644 0
 88  2 25  6 13 29.0800000  0  4  6  8 11  9
  -6077703.407 7  -4735873.456 8  20603231.581 0  20603231.802 0
   1958877.722 7   1526398.784 7  20620895.119 0  20620895.822 0
  -8510807.308 7  -6415491.496 7  20774483.125 0  20774483.818 0
 -11561311.677 7  -8854104.533 7  21763952.137 0  21763952.938 0
 88  2 25  6 13 59.0800000  0  4  6  8 11  9
  -6094097.536 7  -4748648.111 7  20600110.478 0  20600111.394 0
   2017192.803 7   1571839.109 7  20631992.098 0  20631991.513 0
  -8543610.881 7  -6441052.731 7  20768240.491 0  20768241.296 0
 -11643891.828 8  -8918452.700 7  21748237.622 0  21748238.051 0
 88  2 25  6 14 29.0800000  0  4  6  8 11  9
  -6110037.189 7  -4761068.624 7  20597078.211 0  20597077.779 0
   2076009.792 7   1617670.514 7  20643185.186 0  20643185.388 0
  -8575877.448 7  -6466195.499 7  20762100.564 0  20762101.543 0
 -11726272.520 7  -8982645.449 7  21732561.219 0  21732561.375 0
 88  2 25  6 14 59.0800000  0  4  6  8 11  9
  -6125520.513 7  -4773133.550 7  20594131.532 0  20594132.571 0
   2135325.431 7   1663890.496 7  20654472.189 0  20654472.312 0
  -8607607.064 7  -6490919.874 7  20756062.127 0  20756063.340 0
 -11808450.530 7  -9046680.259 7  21716923.867 0  21716923.718 0
 88  2 25  6 15 29.0800000  0  4  6  8 11  9
  -6140546.070 7  -4784841.789 7  20591272.441 0  20591272.358 0
   2195135.986 7   1710496.128 7  20665854.713 0  20665854.185 0
  -8638800.579 7  -6515226.495 7  20750126.724 0  20750127.006 0
 -11890424.187 7  -9110555.842 7  21701324.264 0  21701324.295 0
 88  2 25  6 15 59.0800000  0  4  6  8 11  9
  -6155112.302 8  -4796192.101 7  20588500.451 0  20588500.862 0
   2255438.514 8   1757485.097 7  20677328.214 0  20677328.054 0
  -8669458.112 7  -6539115.479 7  20744291.862 0  20744293.701 0
 -11972191.306 8  -9174270.467 7  21685765.032 0  21685764.433 0
 88  2 25  6 16 29.0800000  0  4  6  8 11  9
  -6169216.563 7  -4807182.454 7  20585817.331 0  20585816.566 0
   2316230.522 8   1804855.504 7  20688897.748 0  20688897.272 0
  -8699579.091 7  -6562586.370 7  20738560.585 0  20738562.513 0
 -12053748.563 8  -9237821.582 7  21670245.285 0  21670244.930 0
 88  2 25  6 16 59.0800000  0  4  6  8 11  9
  -6182857.045 7  -4817811.401 7  20583220.702 0  20583221.789 0
   2377508.812 7   1852604.824 7  20700558.508 0  20700558.305 0
  -8729163.354 7  -6585639.033 7  20732931.873 0  20732932.026 0
 -12135092.962 7  -9301206.827 7  21654766.766 0  21654765.726 0
 88  2 25  6 17 29.0800000  0  4  6  8 11  9
  -6196031.913 7  -4828077.532 7  20580714.145 0  20580714.441 0
   2439270.684 8   1900730.951 7  20712310.380 0  20712311.918 0
  -8758210.976 7  -6608273.521 7  20727403.747 0  20727404.504 0
 -12216222.202 8  -9364424.408 7  21639326.440 0  21639326.663 0
 88  2 25  6 17 59.0800000  0  4  6  8 11  9
  -6208738.288 8  -4837978.607 7  20578295.717 0  20578295.724 0
   2501513.797 8   1949232.076 7  20724156.225 0  20724155.788 0
  -8786721.319 7  -6630489.370 7  20721978.642 0  20721979.734 0
 -12297132.734 8  -9427471.578 7  21623931.253 0  21623929.755 0
 88  2 25  6 18 29.0800000  0  4  6  8 11  9
  -6220975.853 7  -4847514.371 7  20575967.866 0  20575967.587 0
   2564233.849 8   1998104.849 7  20736091.045 0  20736090.946 0
  -8814695.860 7  -6652287.707 7  20716655.615 0  20716656.377 0
 -12377823.356 8  -9490347.390 7  21608575.973 0  21608574.681 0
 88  2 25  6 18 59.0800000  0  4  6  8 11  9
  -6232742.398 7  -4856683.115 7  20573728.446 0  20573728.989 0
   2627427.753 8   2047346.853 7  20748116.585 0  20748115.781 0
  -8842134.362 6  -6673668.335 7  20711433.882 0  20711434.460 0
 -12458290.936 7  -9553049.410 7  21593263.892 0  21593262.878 0
 88  2 25  6 19 29.0800000  0  4  6  8 11  9
  -6244034.363 7  -4865482.054 7  20571579.291 0  20571579.231 0
   2691094.598 7   2096957.385 7  20760231.528 0  20760231.716 0
  -8869035.196 7  -6694630.013 7  20706313.383 0  20706315.296 0
 -12538531.128 7  -9615574.235 7  21577994.594 0  21577994.043 0
 88  2 25  6 19 59.0800000  0  4  6  8 11  9
  -6254850.642 7  -4873910.315 7  20569520.676 0  20569521.450 0
   2755230.235 7   2146933.198 7  20772436.582 0  20772435.711 0
  -8895399.312 7  -6715173.470 7  20701297.669 0  20701298.326 0
 -12618542.068 8  -9677920.422 7  21562768.938 0  21562768.136 0
 88  2 25  6 20 29.0800000  0  4  6  8 11  9
  -6265190.174 7  -4881967.091 7  20567553.792 0  20567553.595 0
   2819830.570 8   2197271.126 7  20784729.757 0  20784728.621 0
  -8921227.911 7  -6735299.661 6  20696381.956 0  20696382.725 0
 -12698321.626 8  -9740086.303 7  21547586.867 0  21547587.158 0
 88  2 25  6 20 59.0800000  0  4  6  8 11  9
  -6275050.632 8  -4889650.577 7  20565677.808 0  20565677.372 0
   2884893.142 8   2247969.240 6  20797109.943 0  20797110.728 0
  -8946520.501 7  -6755008.158 7  20691569.402 0  20691570.260 0
 -12777866.622 8  -9802069.416 7  21532450.114 0  21532449.716 0
 88  2 25  6 21 29.0800000  0  4  6  8 11  9
  -6284431.007 8  -4896959.964 7  20563892.406 0  20563891.222 0
   2950414.215 7   2299024.612 7  20809578.625 0  20809578.617 0
  -8971278.203 7  -6774299.866 7  20686858.051 0  20686860.109 0
 -12857175.318 8  -9863868.394 7  21517357.998 0  21517357.857 0
 88  2 25  6 21 59.0800000  0  4  6  8 11  9
  -6293329.576 7  -4903893.921 7  20562199.504 0  20562198.653 0
   3016390.515 7   2350434.709 7  20822133.612 0  20822133.461 0
  -8995501.079 7  -6793174.843 6  20682248.422 0  20682250.235 0
 -12936244.746 8  -9925480.937 7  21502311.788 0  21502310.705 0
 88  2 25  6 22 29.0800000  0  4  6  8 11  9
  -6301742.395 7  -4910449.363 7  20560598.572 0  20560597.615 0
   3082820.968 8   2402198.716 7  20834774.691 0  20834774.192 0
  -9019187.079 7  -6811631.445 6  20677741.586 0  20677742.442 0
 -13015070.312 8  -9986903.460 6  21487312.058 0  21487311.795 0
 88  2 25  6 22 59.0800000  0  4  6  8 11  9
  -6309667.812 7  -4916625.029 7  20559090.795 0  20559089.557 0
   3149702.366 8   2454314.082 7  20847502.177 0  20847501.634 0
  -9042337.061 7  -6829670.394 6  20673335.346 0  20673336.506 0
 -13093649.274 8 -10048133.818 7  21472358.432 0  21472357.956 0
 88  2 25  6 23 29.0800000  0  4  6  8 11  9
  -6317105.362 7  -4922420.526 7  20557674.694 0  20557673.949 0
   3217030.265 8   2506777.383 7  20860313.254 0  20860313.917 0
  -9064952.593 7  -6847292.871 6  20669031.821 0  20669033.589 0
 -13171979.995 8 -10109170.744 7  21457452.796 0  21457451.516 0
 88  2 25  6 23 59.0800000  0  4  6  8 11  9
  -6324053.663 7  -4927834.790 7  20556352.071 0  20556352.569 0
   3284801.495 8   2559586.127 7  20873210.942 0  20873210.547 0
  -9087034.128 7  -6864499.261 6  20664831.030 0  20664831.955 0
 -13250059.972 8 -10170012.269 7  21442594.351 0  21442594.207 0
 88  2 25  6 24 29.0800000  0  4  6  8 11  9
  -6330511.284 7  -4932866.710 7  20555123.281 0  20555123.551 0
   3353012.278 8   2612737.389 7  20886190.233 0  20886190.123 0
  -9108582.463 7  -6881290.169 7  20660729.820 0  20660731.208 0
 -13327887.145 7 -10230656.818 7  21427784.876 0  21427784.251 0
 88  2 25  6 24 59.0800000  0  4  6  8 11  9
  -6336474.849 7  -4937513.651 7  20553988.805 0  20553988.870 0
   3421661.187 7   2666230.046 8  20899253.936 0  20899253.748 0
  -9129596.328 7  -6897664.593 7  20656730.445 0  20656732.652 0
 -13405456.678 8 -10291100.608 7  21413023.367 0  21413022.562 0
 88  2 25  6 25 29.0800000  0  4  6  8 11  9
  -6341942.606 7  -4941774.242 7  20552947.972 0  20552949.219 0
   3490745.206 7   2720061.741 7  20912399.925 0  20912400.392 0
  -9150075.891 6  -6913622.690 7  20652833.416 0  20652836.004 0
 -13482765.817 8 -10351341.495 7  21398311.764 0  21398311.934 0
 88  2 25  6 25 59.0800000  0  4  6  8 11  9
  -6346914.307 7  -4945648.301 7  20552002.804 0  20552002.379 0
   3560259.782 7   2774228.944 7  20925628.655 0  20925628.659 0
  -9170022.906 7  -6929165.816 7  20649037.189 0  20649039.148 0
 -13559813.349 7 -10411378.536 7  21383650.877 0  21383650.513 0
 88  2 25  6 26 29.0800000  0  4  6  8 11  9
  -6351387.643 8  -4949134.012 7  20551150.921 0  20551151.057 0
   3630202.295 8   2828729.589 7  20938937.961 0  20938938.020 0
  -9189437.378 7  -6944293.968 6  20645344.219 0  20645345.008 0
 -13636595.819 8 -10471209.034 7  21369039.691 0  21369039.168 0
 88  2 25  6 26 59.0800000  0  4  6  8 11  9
  -6355360.446 7  -4952229.711 7  20550394.645 0  20550395.138 0
   3700570.322 7   2883561.811 7  20952327.889 0  20952329.535 0
  -9208319.053 7  -6959006.949 7  20641750.353 0  20641751.432 0
 -13713109.842 8 -10530830.347 7  21354479.106 0  21354478.376 0
 88  2 25  6 27 29.0800000  0  4  6  8 11  9
  -6358832.342 7  -4954935.096 7  20549733.702 0  20549733.453 0
   3771359.219 8   2938721.995 8  20965799.261 0  20965798.896 0
  -9226669.629 7  -6973306.083 6  20638258.343 0  20638260.165 0
 -13789353.754 8 -10590241.184 7  21339970.098 0  21339969.903 0
 88  2 25  6 27 59.0800000  0  4  6  8 11  9
  -6361800.268 7  -4957247.762 7  20549169.523 0  20549170.069 0
   3842567.094 7   2994208.656 7  20979350.222 0  20979350.169 0
  -9244488.698 7  -6987191.073 7  20634868.185 0  20634868.686 0
 -13865323.597 7 -10649438.458 7  21325513.407 0  21325514.213 0
 88  2 25  6 28 29.0800000  0  4  6  8 11  9
  -6364262.489 7  -4959166.390 7  20548700.833 0  20548700.660 0
   3914191.235 8   3050019.668 7  20992979.092 0  20992979.487 0
  -9261776.191 7  -7000661.840 7  20631577.706 0  20631579.037 0
 -13941016.075 8 -10708419.609 6  21311109.675 0  21311108.995 0
 88  2 25  6 28 59.0800000  0  4  6  8 11  9
  -6366218.306 6  -4960690.395 7  20548328.011 0  20548328.380 0
   3986227.522 7   3106151.845 7  21006687.241 0  21006687.035 0
  -9278533.775 7  -7013719.667 7  20628389.713 0  20628390.579 0
 -14016429.640 7 -10767183.423 7  21296758.772 0  21296758.610 0
 88  2 25  6 29 29.0800000  0  4  6  8 11  9
  -6367666.414 7  -4961818.813 7  20548053.035 0  20548053.538 0
   4058672.429 7   3162602.430 8  21020473.219 0  21020472.861 0
  -9294761.845 7  -7026364.926 6  20625301.621 0  20625302.430 0
 -14091561.226 8 -10825727.499 7  21282461.951 0  21282461.318 0
 88  2 25  6 29 59.0800000  0  4  6  8 11  9
  -6368604.498 7  -4962549.791 7  20547874.826 0  20547875.177 0
   4131523.658 8   3219369.622 7  21034336.487 0  21034336.974 0
  -9310460.338 8  -7038597.519 7  20622314.318 0  20622315.422 0
 -14166407.434 8 -10884049.214 7  21268218.831 0  21268218.636 0
 88  2 25  6 30 29.0800000  0  4  6  8 11  9
  -6369031.585 7  -4962882.598 7  20547793.410 0  20547793.527 0
   4204777.161 7   3276450.259 8  21048276.114 0  21048275.870 0
  -9325630.990 7  -7050418.789 7  20619426.858 0  20619427.486 0
 -14240966.077 8 -10942146.852 7  21254030.944 0  21254030.110 0
 88  2 25  6 30 59.0800000  0  4  6  8 11  9
  -6368944.965 7  -4962815.090 7  20547810.823 0  20547810.133 0
   4278430.709 8   3333842.634 7  21062292.825 0  21062291.676 0
  -9340272.699 7  -7061827.899 6  20616640.934 0  20616641.433 0
 -14315232.836 8 -11000017.041 7  21239898.259 0  21239898.410 0
 88  2 25  6 31 29.0800000  0  4  6  8 11  9
  -6368343.145 7  -4962346.143 7  20547924.509 0  20547924.358 0
   4352481.252 7   3391544.353 7  21076382.911 0  21076383.245 0
  -9354386.252 7  -7072825.469 7  20613954.589 0  20613956.432 0
 -14389205.101 7 -11057657.765 7  21225822.444 0  21225822.412 0
 88  2 25  6 31 59.0800000  0  4  6  8 11  9
  -6367226.763 7  -4961476.248 7  20548136.822 0  20548136.514 0
   4426923.786 7   3449551.512 7  21090549.116 0  21090549.470 0
  -9367974.384 7  -7083413.610 7  20611369.810 0  20611370.105 0
 -14462882.133 7 -11115068.438 7  21211801.892 0  21211802.375 0
 88  2 25  6 32 29.0800000  0  4  6  8 11  9
  -6365592.984 7  -4960203.175 7  20548447.974 0  20548447.318 0
   4501756.351 8   3507862.596 7  21104788.761 0  21104789.816 0
  -9381036.289 7  -7093591.714 7  20608884.019 0  20608884.778 0
 -14536259.662 7 -11172245.720 7  21197838.882 0  21197838.829 0
 88  2 25  6 32 59.0800000  0  4  6  8 11  9
  -6363439.922 7  -4958525.469 7  20548857.086 0  20548857.685 0
   4576976.328 7   3566475.557 7  21119102.843 0  21119103.314 0
  -9393572.418 7  -7103360.125 7  20606498.194 0  20606498.975 0
 -14609334.219 7 -11229186.933 7  21183933.891 0  21183933.358 0
 88  2 25  6 33 29.0800000  0  4  6  8 11  9
  -6360766.675 7  -4956442.435 7  20549365.925 0  20549366.014 0
   4652579.934 8   3625387.459 7  21133490.522 0  21133490.720 0
  -9405583.936 7  -7112719.742 6  20604211.476 0  20604213.235 0
 -14682103.722 8 -11285890.445 6  21170086.165 0  21170084.756 0
 88  2 25  6 33 59.0800000  0  4  6  8 11  9
  -6357571.503 7  -4953952.682 7  20549974.035 0  20549974.372 0
   4728563.968 8   3684595.788 7  21147949.605 0  21147949.816 0
  -9417071.197 7  -7121670.850 7  20602025.804 0  20602026.993 0
 -14754564.864 8 -11342353.669 7  21156297.106 0  21156296.224 0
 88  2 25  6 34 29.0800000  0  4  6  8 11  9
  -6353852.717 7  -4951054.929 7  20550681.357 0  20550681.654 0
   4804925.896 8   3744098.596 7  21162480.000 0  21162479.545 0
  -9428034.918 7  -7130214.006 7  20599940.719 0  20599940.830 0
 -14826714.639 7 -11398574.264 7  21142567.142 0  21142566.435 0
 88  2 25  6 34 59.0800000  0  4  6  8 11  9
  -6349609.594 7  -4947748.605 7  20551489.186 0  20551490.150 0
   4881661.728 8   3803892.728 7  21177083.050 0  21177082.492 0
  -9438476.399 7  -7138350.219 7  20597953.619 0  20597953.918 0
 -14898550.547 7 -11454550.300 7  21128897.131 0  21128897.482 0
 88  2 25  6 35 29.0800000  0  4  6  8 11  9
  -6344841.124 7  -4944032.914 7  20552397.593 0  20552396.436 0
   4958767.819 8   3863975.403 7  21191756.406 0  21191755.319 0
  -9448396.747 7  -7146080.354 7  20596065.354 0  20596066.909 0
 -14970070.418 8 -11510280.058 7  21115287.146 0  21115286.637 0
 88  2 25  6 35 59.0800000  0  4  6  8 11  9
  -6339545.196 8  -4939906.243 7  20553405.068 0  20553404.327 0
   5036241.811 8   3924344.760 6  21206498.116 0  21206498.294 0
  -9457795.849 7  -7153404.319 7  20594277.512 0  20594277.808 0
 -15041270.091 8 -11565760.326 7  21101738.874 0  21101737.869 0
 88  2 25  6 36 29.0800000  0  4  6  8 11  9
  -6333720.472 7  -4935367.492 7  20554512.961 0  20554513.259 0
   5114080.759 8   3984998.494 6  21221310.751 0  21221310.349 0
  -9466674.547 7  -7160322.772 6  20592587.029 0  20592588.728 0
 -15112146.887 8 -11620989.003 7  21088251.302 0  21088250.964 0
 88  2 25  6 36 59.0800000  0  4  6  8 11  9
  -6327365.788 7  -4930415.809 7  20555722.968 0  20555721.585 0
   5192280.824 8   4045933.613 7  21236192.101 0  21236192.110 0
  -9475034.373 7  -7166836.922 7  20590995.307 0  20590997.035 0
 -15182698.059 7 -11675963.943 7  21074825.952 0  21074825.485 0
 88  2 25  6 37 29.0800000  0  4  6  8 11  9
  -6320480.715 8  -4925050.821 7  20557032.297 0  20557031.894 0
   5270838.211 8   4107147.164 7  21251140.975 0  21251140.472 0
  -9482876.577 7  -7172947.728 7  20589502.778 0  20589504.818 0
 -15252921.374 7 -11730683.409 8  21061462.970 0  21061462.068 0
 88  2 25  6 37 59.0800000  0  4  6  8 11  9
  -6313063.822 7  -4919271.437 7  20558444.007 0  20558443.332 0
   5349749.827 8   4168636.735 7  21266157.196 0  21266156.698 0
  -9490202.237 7  -7178656.020 6  20588109.192 0  20588111.910 0
 -15322814.278 8 -11785145.402 7  21048162.620 0  21048162.807 0
 88  2 25  6 38 29.0800000  0  4  6  8 11  9
  -6305112.465 7  -4913075.577 7  20559957.169 0  20559957.443 0
   5429014.009 8   4230401.033 7  21281240.961 0  21281240.799 0
  -9497010.323 7  -7183961.034 7  20586814.313 0  20586815.015 0
 -15392372.011 7 -11839346.227 8  21034926.247 0  21034925.963 0
 88  2 25  6 38 59.0800000  0  4  6  8 11  9
  -6296625.362 7  -4906462.254 7  20561570.734 0  20561572.348 0
   5508627.285 8   4292437.353 7  21296390.891 0  21296390.555 0
  -9503302.174 7  -7188863.749 6  20585617.097 0  20585618.053 0
 -15461591.768 7 -11893283.697 7  21021754.726 0  21021752.275 0
 88  2 25  6 39 29.0800000  0  4  6  8 11  9
  -6287602.528 7  -4899431.483 7  20563288.394 0  20563289.068 0
   5588585.256 8   4354742.266 7  21311605.450 0  21311605.544 0
  -9509080.156 6  -7193366.071 7  20584517.423 0  20584518.425 0
 -15530471.951 7 -11946956.569 7  21008646.161 0  21008645.892 0
 88  2 25  6 39 59.0800000  0  4  6  8 11  9
  -6278042.517 8  -4891982.132 7  20565108.182 0  20565108.032 0
   5668885.266 8   4417313.695 7  21326886.828 0  21326886.592 0
  -9514344.996 7  -7197468.540 7  20583515.383 0  20583516.930 0
 -15599009.418 8 -12000362.379 7  20995604.919 0  20995604.191 0
 88  2 25  6 40 29.0800000  0  4  6  8 11  9
  -6267943.544 7  -4884112.798 7  20567029.733 0  20567029.812 0
   5749524.488 7   4480149.457 8  21342231.998 0  21342231.315 0
  -9519096.616 7  -7201171.090 7  20582612.305 0  20582612.537 0
 -15667200.412 8 -12053498.216 7  20982628.027 0  20982627.488 0
 88  2 25  6 40 59.0800000  0  4  6  8 11  9
  -6257305.289 7  -4875823.253 7  20569054.325 0  20569054.008 0
   5830499.188 8   4543246.624 7  21357639.914 0  21357640.745 0
  -9523337.089 6  -7204475.355 7  20581804.268 0  20581804.982 0
 -15735042.820 8 -12106362.429 7  20969718.114 0  20969717.822 0
 88  2 25  6 41 29.0800000  0  4  6  8 11  9
  -6246126.789 7  -4867112.748 7  20571180.738 0  20571181.593 0
   5911805.776 8   4606602.394 7  21373112.379 0  21373112.804 0
  -9527067.545 7  -7207382.190 7  20581094.854 0  20581096.425 0
 -15802534.217 7 -12158953.119 7  20956874.862 0  20956874.783 0
 88  2 25  6 41 59.0800000  0  4  6  8 11  9
  -6234406.438 8  -4857980.006 7  20573412.120 0  20573411.384 0
   5993441.831 7   4670214.891 7  21388646.834 0  21388648.161 0
  -9530288.712 6  -7209892.183 6  20580481.537 0  20580482.739 0
 -15869670.960 7 -12211267.466 7  20944099.095 0  20944098.582 0
 88  2 25  6 42 29.0800000  0  4  6  8 11  9
  -6222142.380 8  -4848423.609 8  20575746.463 0  20575746.299 0
   6075404.540 7   4734081.932 7  21404244.822 0  21404244.652 0
  -9533000.685 7  -7212005.408 7  20579965.009 0  20579966.634 0
 -15936449.208 7 -12263302.465 7  20931392.329 0  20931390.938 0
 88  2 25  6 42 59.0800000  0  4  6  8 11  9
  -6209334.434 8  -4838443.395 7  20578183.012 0  20578183.410 0
   6157689.902 8   4798200.389 7  21419903.077 0  21419902.690 0
  -9535205.553 7  -7213723.480 7  20579546.783 0  20579546.808 0
 -16002867.387 7 -12315056.882 7  20918752.783 0  20918752.390 0
 88  2 25  6 43 29.0800000  0  4  6  8 11  9
  -6195981.788 7  -4828038.732 7  20580723.918 0  20580723.433 0
   6240294.418 7   4862567.538 7  21435622.676 0  21435622.034 0
  -9536904.732 7  -7215047.510 7  20579223.121 0  20579223.681 0
 -16068922.544 8 -12366528.439 7  20906183.054 0  20906182.441 0
 88  2 25  6 43 59.0800000  0  4  6  8 11  9
  -6182083.667 7  -4817209.043 7  20583368.382 0  20583368.238 0
   6323215.055 8   4927181.012 7  21451401.340 0  21451401.804 0
  -9538099.236 8  -7215978.297 7  20578995.085 0  20578996.172 0
 -16134612.064 8 -12417715.084 7  20893682.910 0  20893682.137 0
 88  2 25  6 44 29.0800000  0  4  6  8 11  9
  -6167638.015 7  -4805952.694 7  20586116.868 0  20586117.252 0
   6406449.390 8   4992038.935 7  21467239.877 0  21467240.119 0
  -9538789.391 7  -7216516.063 7  20578863.901 0  20578864.815 0
 -16199931.972 8 -12468613.717 7  20881252.049 0  20881252.234 0
 88  2 25  6 44 59.0800000  0  4  6  8 11  9
  -6152644.040 7  -4794269.089 7  20588970.348 0  20588970.865 0
   6489993.945 8   5057138.584 7  21483138.166 0  21483138.181 0
  -9538976.658 6  -7216661.973 7  20578828.806 0  20578829.501 0
 -16264879.490 8 -12519222.173 7  20868893.020 0  20868892.682 0
 88  2 25  6 45 29.0800000  0  4  6  8 11  9
  -6137101.900 7  -4782158.331 7  20591929.230 0  20591927.811 0
   6573844.761 8   5122476.900 7  21499095.278 0  21499093.808 0
  -9538663.238 6  -7216417.759 7  20578887.478 0  20578888.462 0
 -16329452.663 8 -12569538.923 7  20856605.050 0  20856605.431 0
 88  2 25  6 45 59.0800000  0  4  6  8 11  9
  -6121009.627 7  -4769618.917 7  20594990.847 0  20594991.103 0
   6657999.529 8   5188052.051 7  21515108.670 0  21515108.301 0
  -9537849.138 7  -7215783.383 7  20579042.803 0  20579043.464 0
 -16393648.167 7 -12619561.393 7  20844390.170 0  20844389.188 0
 88  2 25  6 46 29.0800000  0  4  6  8 11  9
  -6104366.781 8  -4756650.468 7  20598157.656 0  20598156.962 0
   6742454.882 8   5253861.430 7  21531180.342 0  21531179.670 0
  -9536536.146 7  -7214760.263 7  20579293.022 0  20579293.704 0
 -16457463.035 7 -12669287.269 7  20832245.346 0  20832244.661 0
 88  2 25  6 46 59.0800000  0  4  6  8 11  9
  -6087172.910 8  -4743252.655 6  20601429.895 0  20601429.141 0
   6827206.877 8   5319901.929 7  21547307.827 0  21547308.286 0
  -9534726.104 7  -7213349.838 7  20579638.667 0  20579637.766 0
 -16520894.979 7 -12718714.760 7  20820174.788 0  20820174.801 0
 88  2 25  6 47 29.0800000  0  4  6  8 11  9
  -6069426.240 7  -4729424.092 7  20604806.680 0  20604806.393 0
   6912253.294 8   5386171.855 7  21563491.274 0  21563491.289 0
  -9532419.069 7  -7211552.143 6  20580076.173 0  20580076.573 0
 -16583940.048 7 -12767840.776 7  20808176.986 0  20808177.924 0
 88  2 25  6 47 59.0800000  0  4  6  8 11  9
  -6051126.561 7  -4715164.611 7  20608289.456 0  20608289.067 0
   6997589.971 8   5452667.973 7  21579730.772 0  21579731.316 0
  -9529617.186 7  -7209368.855 7  20580609.047 0  20580608.933 0
 -16646596.246 7 -12816663.784 6  20796254.842 0  20796254.119 0
 88  2 25  6 48 29.0800000  0  4  6  8 11  9
  -6032272.335 7  -4700473.015 7  20611876.544 0  20611876.104 0
   7083214.860 8   5519388.664 7  21596024.171 0  21596024.373 0
  -9526321.055 7  -7206800.436 7  20581236.955 0  20581238.485 0
 -16708859.636 7 -12865180.714 6  20784406.737 0  20784406.270 0
 88  2 25  6 48 59.0800000  0  4  6  8 11  9
  -6012863.504 7  -4685349.256 7  20615569.604 0  20615569.076 0
   7169124.009 8   5586330.838 7  21612373.040 0  21612372.851 0
  -9522532.761 7  -7203848.524 7  20581956.770 0  20581957.702 0
 -16770728.342 8 -12913390.091 7  20772632.977 0  20772632.896 0
 88  2 25  6 49 29.0800000  0  4  6  8 11  9
  -5992899.195 8  -4669792.656 7  20619368.834 0  20619368.561 0
   7255314.611 8   5653492.336 7  21628774.231 0  21628774.073 0
  -9518253.256 7  -7200513.835 7  20582771.910 0  20582773.014 0
 -16832199.174 8 -12961289.438 6  20760935.753 0  20760934.445 0
 88  2 25  6 49 59.0800000  0  4  6  8 11  9
  -5972377.599 8  -4653801.823 7  20623274.489 0  20623274.516 0
   7341784.351 8   5720871.360 7  21645228.739 0  21645229.152 0
  -9513483.323 7  -7196796.988 7  20583679.811 0  20583680.159 0
 -16893268.392 7 -13008875.834 7  20749314.612 0  20749313.572 0
 88  2 25  6 50 29.0800000  0  4  6  8 11  9
  -5951298.485 7  -4637376.532 7  20627286.092 0  20627285.330 0
   7428529.352 8   5788464.866 7  21661735.381 0  21661735.635 0
  -9508224.682 6  -7192699.360 7  20584678.644 0  20584681.400 0
 -16953933.733 7 -13056147.529 7  20737770.495 0  20737770.308 0
 88  2 25  6 50 59.0800000  0  4  6  8 11  9
  -5929662.797 7  -4620517.568 7  20631402.422 0  20631403.376 0
   7515545.584 8   5856269.726 7  21678293.794 0  21678294.401 0
  -9502479.455 6  -7188222.562 7  20585772.868 0  20585774.563 0
 -17014193.529 7 -13103103.208 7  20726302.951 0  20726303.346 0
 88  2 25  6 51 29.0800000  0  4  6  8 11  9
  -5907469.538 7  -4603224.123 7  20635625.542 0  20635625.937 0
   7602829.618 8   5924283.274 7  21694903.814 0  21694903.894 0
  -9496249.566 7  -7183368.093 7  20586958.244 0  20586959.469 0
 -17074044.804 8 -13149740.571 7  20714913.979 0  20714914.087 0
 88  2 25  6 51 59.0800000  0  4  6  8 11  9
  -5884716.625 7  -4585494.572 7  20639955.192 0  20639955.532 0
   7690380.088 8   5992504.418 7  21711564.457 0  21711564.548 0
  -9489534.919 7  -7178135.898 7  20588236.062 0  20588238.194 0
 -17133483.213 7 -13196056.212 7  20703603.657 0  20703603.548 0
 88  2 25  6 52 29.0800000  0  4  6  8 11  9
  -5861401.969 7  -4567327.324 7  20644392.175 0  20644392.645 0
   7778195.170 8   6060931.766 7  21728275.086 0  21728275.112 0
  -9482335.101 7  -7172525.644 7  20589607.369 0  20589608.249 0
 -17192504.520 7 -13242046.843 6  20692372.250 0  20692372.424 0
 88  2 25  6 52 59.0800000  0  4  6  8 11  9
  -5837527.547 7  -4548723.879 8  20648935.490 0  20648936.019 0
   7866269.095 8   6129560.804 7  21745035.667 0  21745034.627 0
  -9474654.643 7  -7166540.863 6  20591069.452 0  20591069.618 0
 -17251108.632 7 -13287712.376 7  20681220.149 0  20681219.995 0
 88  2 25  6 53 29.0800000  0  4  6  8 11  9
  -5813093.832 7  -4529684.626 7  20653585.753 0  20653585.395 0
   7954597.537 8   6198388.180 7  21761843.542 0  21761842.964 0
  -9466496.056 7  -7160183.524 7  20592620.778 0  20592621.381 0
 -17309293.532 7 -13333051.254 6  20670147.316 0  20670147.668 0
 88  2 25  6 53 59.0800000  0  4  6  8 11  9
  -5788098.346 7  -4510207.647 7  20658341.461 0  20658341.807 0
   8043179.648 8   6267413.196 7  21778700.069 0  21778699.666 0
  -9457858.747 7  -7153453.149 7  20594264.014 0  20594265.555 0
 -17367054.397 7 -13378059.733 6  20659155.842 0  20659155.450 0
 88  2 25  6 54 29.0800000  0  4  6  8 11  9
  -5762540.336 7  -4490292.312 7  20663205.490 0  20663204.639 0
   8132012.259 7   6336633.403 8  21795603.656 0  21795603.796 0
  -9448743.896 7  -7146350.650 7  20595998.487 0  20596000.140 0
 -17424388.289 8 -13422735.490 7  20648246.072 0  20648244.589 0
 88  2 25  6 54 59.0800000  0  4  6  8 11  9
  -5736419.898 7  -4469938.745 7  20668175.660 0  20668175.833 0
   8221091.956 7   6406046.140 7  21812554.742 0  21812555.365 0
  -9439153.753 7  -7138877.811 7  20597823.748 0  20597825.106 0
 -17481293.020 7 -13467076.830 6  20637417.978 0  20637417.356 0
 88  2 25  6 55 29.0800000  0  4  6  8 11  9
  -5709736.290 8  -4449146.322 7  20673252.924 0  20673252.764 0
   8310415.614 7   6475648.992 7  21829552.995 0  21829552.666 0
  -9429089.630 7  -7131035.647 6  20599739.133 0  20599740.475 0
 -17537765.543 7 -13511081.405 7  20626671.105 0  20626670.840 0
 88  2 25  6 55 59.0800000  0  4  6  8 11  9
  -5682488.727 7  -4427914.461 7  20678438.882 0  20678437.908 0
   8399980.359 8   6545439.693 7  21846596.294 0  21846597.042 0
  -9418552.447 7  -7122824.848 6  20601743.472 0  20601745.410 0
 -17593802.508 7 -13554746.575 6  20616007.252 0  20616007.131 0
 88  2 25  6 56 29.0800000  0  4  6  8 11  9
  -5654677.642 8  -4406243.491 7  20683731.171 0  20683730.421 0
   8489782.376 7   6615415.278 7  21863685.422 0  21863686.246 0
  -9407544.652 7  -7114247.359 6  20603839.324 0  20603839.666 0
 -17649402.112 7 -13598070.933 6  20605427.036 0  20605427.149 0
 88  2 25  6 56 59.0800000  0  4  6  8 11  9
  -5626302.645 7  -4384133.119 7  20689130.005 0  20689129.601 0
   8579818.805 8   6685573.517 7  21880818.746 0  21880818.719 0
  -9396068.103 7  -7105304.574 6  20606023.048 0  20606024.134 0
 -17704561.559 7 -13641052.327 6  20594931.141 0  20594930.081 0
 88  2 25  6 57 29.0800000  0  4  6  8 11  9
  -5597363.045 7  -4361582.784 7  20694637.172 0  20694637.243 0
   8670086.625 8   6755912.068 7  21897996.121 0  21897996.888 0
  -9384124.318 6  -7095997.727 6  20608295.093 0  20608297.233 0
 -17759277.900 7 -13683688.444 7  20584518.732 0  20584517.867 0
 88  2 25  6 57 59.0800000  0  4  6  8 11  9
  -5567857.099 7  -4338591.150 7  20700252.647 0  20700251.769 0
   8760584.056 8   6826429.544 7  21915217.226 0  21915217.651 0
  -9371713.183 7  -7086326.714 7  20610656.926 0  20610658.765 0
 -17813546.886 7 -13725975.956 6  20574190.976 0  20574191.152 0
 88  2 25  6 58 29.0800000  0  4  6  8 11  9
  -5537785.365 7  -4315158.643 7  20705974.455 0  20705974.366 0
   8851307.462 8   6897123.111 7  21932481.589 0  21932481.654 0
  -9358837.273 7  -7076293.544 7  20613107.563 0  20613109.479 0
 -17867366.593 7 -13767913.383 6  20563950.328 0  20563949.132 0
 88  2 25  6 58 59.0800000  0  4  6  8 11  9
  -5507148.374 7  -4291285.677 7  20711805.140 0  20711804.795 0
   8942252.915 7   6967989.695 7  21949787.723 0  21949787.582 0
  -9345499.191 6  -7065900.223 6  20615645.708 0  20615646.565 0
 -17920735.046 7 -13809499.208 7  20553795.630 0  20553794.762 0
 88  2 25  6 59 29.0800000  0  4  6  8 11  9
  -5475945.633 8  -4266971.864 8  20717742.644 0  20717742.399 0
   9033417.607 8   7039027.122 7  21967136.383 0  21967136.100 0
  -9331700.191 7  -7055147.758 7  20618272.378 0  20618272.929 0
 -17973649.329 7 -13850731.124 7  20543725.065 0  20543724.045 0
 88  2 25  6 59 59.0800000  0  4  6  8 11  9
  -5444177.389 8  -4242217.412 8  20723787.222 0  20723787.062 0
   9124797.625 8   7110232.337 7  21984524.892 0  21984524.602 0
  -9317442.474 7  -7044037.843 7  20620984.165 0  20620986.219 0
 -18026107.044 8 -13891607.251 6  20533743.169 0  20533742.346 0
 88  2 25  7  0 29.0800000  0  4  6  8 11  9
  -5411842.221 7  -4217021.174 7  20729940.824 0  20729940.793 0
   9216391.194 7   7181603.942 6  22001954.395 0  22001954.528 0
  -9302726.790 7  -7032571.076 7  20623785.488 0  20623786.403 0
 -18078104.762 7 -13932124.952 6  20523848.429 0  20523846.379 0
 88  2 25  7  0 59.0800000  0  4  6  8 11  9
  -5378939.471 7  -4191382.676 7  20736201.817 0  20736202.129 0
   9308196.350 7   7253140.429 7  22019424.165 0  22019424.074 0
  -9287554.183 6  -7020748.261 7  20626672.695 0  20626673.867 0
 -18129638.575 7 -13972281.179 7  20514040.840 0  20514041.303 0
 88  2 25  7  1 29.0800000  0  4  6  8 11  9
  -5345469.408 7  -4165302.116 7  20742571.500 0  20742571.241 0
   9400209.059 7   7324838.657 7  22036933.367 0  22036933.555 0
  -9271926.613 7  -7008570.924 7  20629645.653 0  20629647.624 0
 -18180706.702 7 -14012074.509 7  20504323.343 0  20504322.718 0
 88  2 25  7  1 59.0800000  0  4  6  8 11  9
  -5311433.041 7  -4138780.285 7  20749047.543 0  20749048.587 0
   9492424.952 8   7396695.204 7  22054481.739 0  22054481.070 0
  -9255847.434 7  -6996041.688 7  20632705.720 0  20632707.142 0
 -18231307.544 8 -14051503.748 7  20494693.723 0  20494693.752 0
 88  2 25  7  2 29.0800000  0  4  6  8 11  9
  -5276829.951 7  -4111816.849 7  20755632.552 0  20755633.626 0
   9584841.689 8   7468708.247 7  22072068.447 0  22072068.047 0
  -9239317.588 7  -6983161.290 7  20635851.648 0  20635851.701 0
 -18281437.951 7 -14090566.405 7  20485154.421 0  20485154.820 0
 88  2 25  7  2 59.0800000  0  4  6  8 11  9
  -5241659.201 7  -4084411.080 7  20762325.797 0  20762325.780 0
   9677457.301 7   7540876.255 7  22089692.895 0  22089692.365 0
  -9222338.220 7  -6969930.609 7  20639081.577 0  20639082.992 0
 -18331094.500 7 -14129259.817 7  20475703.829 0  20475705.595 0
 88  2 25  7  3 29.0800000  0  4  6  8 11  9
  -5205920.647 7  -4056562.866 7  20769126.503 0  20769126.427 0
   9770268.501 8   7613196.652 8  22107354.265 0  22107353.676 0
  -9204911.172 8  -6956351.082 7  20642398.483 0  20642400.128 0
 -18380274.319 8 -14167581.744 8  20466346.960 0  20466346.908 0
 88  2 25  7  3 59.0800000  0  4  6  8 11  9
  -5169614.096 7  -4028272.044 7  20776036.228 0  20776035.884 0
   9863272.421 7   7685667.238 7  22125050.626 0  22125051.931 0
  -9187038.029 7  -6942423.956 7  20645799.950 0  20645801.188 0
 -18428974.836 7 -14205530.201 7  20457078.858 0  20457079.765 0
 88  2 25  7  4 29.0800000  0  4  6  8 11  9
  -5132740.638 7  -3999539.491 7  20783052.464 0  20783052.036 0
   9956464.973 7   7758284.820 7  22142785.497 0  22142785.732 0
  -9168721.612 6  -6928151.411 7  20649284.832 0  20649286.175 0
 -18477194.363 7 -14243103.853 7  20447903.081 0  20447902.875 0
 88  2 25  7  4 59.0800000  0  4  6  8 11  9
  -5095299.843 7  -3970364.857 7  20790176.938 0  20790176.435 0
  10049843.993 8   7831047.687 7  22160555.571 0  22160555.864 0
  -9149963.168 7  -6913534.438 7  20652856.100 0  20652855.971 0
 -18524929.955 7 -14280300.412 7  20438820.482 0  20438818.467 0
 88  2 25  7  5 29.0800000  0  4  6  8 11  9
  -5057290.884 7  -3940747.491 8  20797410.172 0  20797409.698 0
  10143406.975 7   7903953.902 7  22178359.096 0  22178359.763 0
  -9130763.976 7  -6898574.025 7  20656508.653 0  20656510.400 0
 -18572177.972 8 -14317117.054 7  20429828.940 0  20429828.096 0
 88  2 25  7  5 59.0800000  0  4  6  8 11  9
  -5018713.663 8  -3910687.329 8  20804751.182 0  20804750.440 0
  10237151.087 8   7977001.262 7  22196198.542 0  22196198.233 0
  -9111125.843 7  -6883271.587 7  20660244.973 0  20660246.580 0
 -18618935.737 7 -14353551.678 6  20420932.398 0  20420931.105 0
 88  2 25  7  6 29.0800000  0  4  6  8 11  9
  -4979569.405 7  -3880185.322 7  20812199.868 0  20812200.393 0
  10331072.341 8   8050186.661 7  22214072.084 0  22214071.560 0
  -9091051.272 6  -6867629.062 6  20664065.369 0  20664065.731 0
 -18665201.774 7 -14389603.133 6  20412128.363 0  20412127.033 0
 88  2 25  7  6 59.0800000  0  4  6  8 11  9
  -4939857.578 8  -3849241.054 8  20819756.748 0  20819756.828 0
  10425168.379 8   8123508.258 7  22231977.942 0  22231977.611 0
  -9070541.726 7  -6851647.586 7  20667967.970 0  20667969.673 0
 -18710972.866 7 -14425268.921 7  20403416.564 0  20403417.672 0
 88  2 25  7  7 29.0800000  0  4  6  8 11  9
  -4899578.891 7  -3817855.066 7  20827421.898 0  20827421.633 0
  10519435.744 7   8196963.345 8  22249916.283 0  22249916.182 0
  -9049599.801 7  -6835329.197 7  20671953.322 0  20671954.872 0
 -18756247.035 7 -14460547.485 6  20394802.259 0  20394801.277 0
 88  2 25  7  7 59.0800000  0  4  6  8 11  9
  -4858733.581 7  -3786027.568 8  20835194.395 0  20835194.216 0
  10613871.551 8   8270549.700 7  22267885.746 0  22267885.859 0
  -9028227.134 7  -6818675.193 7  20676020.316 0  20676021.409 0
 -18801021.583 7 -14495436.752 7  20386281.959 0  20386281.411 0
 88  2 25  7  8 29.0800000  0  4  6  8 11  9
  -4817320.355 7  -3753757.531 7  20843074.084 0  20843075.608 0
  10708474.224 8   8344266.061 7  22285889.537 0  22285889.356 0
  -9006424.362 7  -6801686.006 7  20680169.245 0  20680169.746 0
 -18845292.847 7 -14529933.823 7  20377856.414 0  20377856.820 0
 88  2 25  7  8 59.0800000  0  4  6  8 11  9
  -4775341.106 8  -3721046.430 7  20851062.721 0  20851062.659 0
  10803239.320 8   8418109.000 7  22303922.668 0  22303921.922 0
  -8984195.223 7  -6784364.590 7  20684399.001 0  20684400.393 0
 -18889059.661 7 -14564037.838 7  20369527.828 0  20369528.126 0
 88  2 25  7  9 29.0800000  0  4  6  8 11  9
  -4732794.981 7  -3687893.616 7  20859159.595 0  20859159.087 0
  10898164.627 7   8492076.767 7  22321986.092 0  22321985.289 0
  -8961540.490 7  -6766711.545 6  20688710.473 0  20688711.091 0
 -18932318.364 7 -14597745.925 7  20361296.494 0  20361295.944 0
 88  2 25  7  9 59.0800000  0  4  6  8 11  9
  -4689682.594 8  -3654299.563 7  20867363.601 0  20867364.008 0
  10993247.167 7   8566167.067 7  22340079.922 0  22340078.769 0
  -8938462.222 7  -6748728.478 7  20693102.810 0  20693103.321 0
 -18975067.003 7 -14631056.526 6  20353160.485 0  20353161.876 0
 88  2 25  7 10 29.0800000  0  4  6  8 11  9
  -4646004.561 7  -3620264.730 7  20875675.341 0  20875675.677 0
  11088483.767 8   8640377.395 7  22358202.251 0  22358201.332 0
  -8914962.595 7  -6730417.065 7  20697574.850 0  20697574.069 0
 -19017303.288 7 -14663967.909 7  20345124.474 0  20345124.323 0
 88  2 25  7 10 59.0800000  0  4  6  8 11  9
  -4601760.311 7  -3585788.687 7  20884095.128 0  20884094.005 0
  11183872.592 7   8714706.343 7  22376353.118 0  22376354.433 0
  -8891042.992 7  -6711778.397 6  20702126.331 0  20702127.098 0
 -19059024.002 7 -14696477.563 7  20337185.061 0  20337185.278 0
 88  2 25  7 11 29.0800000  0  4  6  8 11  9
  -4556950.445 7  -3550871.924 7  20892620.676 0  20892620.570 0
  11279410.331 7   8789151.333 7  22394534.019 0  22394533.718 0
  -8866705.702 7  -6692814.280 6  20706758.034 0  20706758.954 0
 -19100226.903 7 -14728583.717 7  20329343.140 0  20329343.758 0
 88  2 25  7 11 59.0800000  0  4  6  8 11  9
  -4511575.655 7  -3515514.951 7  20901256.333 0  20901256.282 0
  11375093.628 7   8863709.724 7  22412742.273 0  22412742.022 0
  -8841952.943 7  -6673526.413 6  20711467.970 0  20711468.023 0
 -19140909.515 7 -14760284.452 7  20321602.821 0  20321601.649 0
 88  2 25  7 12 29.0800000  0  4  6  8 11  9
  -4465636.443 7  -3479718.168 7  20909998.351 0  20909997.772 0
  11470919.767 7   8938379.460 7  22430976.715 0  22430976.828 0
  -8816786.857 7  -6653916.468 7  20716256.615 0  20716256.962 0
 -19181070.120 7 -14791578.424 7  20313961.354 0  20313960.480 0
 88  2 25  7 12 59.0800000  0  4  6  8 11  9
  -4419132.910 8  -3443481.659 7  20918847.374 0  20918847.896 0
  11566886.238 7   9013158.531 7  22449238.644 0  22449238.862 0
  -8791209.178 7  -6633985.810 6  20721123.239 0  20721124.221 0
 -19220705.428 7 -14822463.096 6  20306417.608 0  20306417.681 0
 88  2 25  7 13 29.0800000  0  4  6  8 11  9
  -4372064.432 7  -3406804.928 7  20927804.613 0  20927803.705 0
  11662991.234 7   9088045.526 7  22467526.713 0  22467526.963 0
  -8765220.582 7  -6613734.952 6  20726069.079 0  20726069.993 0
 -19259812.225 8 -14852935.917 6  20298975.706 0  20298975.406 0
 88  2 25  7 13 59.0800000  0  4  6  8 11  9
  -4324433.158 7  -3369689.655 7  20936868.731 0  20936867.406 0
  11759230.321 8   9163037.038 7  22485840.384 0  22485840.483 0
  -8738824.949 8  -6593166.926 6  20731092.499 0  20731093.635 0
 -19298389.630 7 -14882996.229 7  20291635.644 0  20291634.389 0
 88  2 25  7 14 29.0800000  0  4  6  8 11  9
  -4276239.308 8  -3332136.013 7  20946039.265 0  20946038.971 0
  11855601.022 8   9238131.088 7  22504179.648 0  22504179.181 0
  -8712023.931 7  -6572283.018 7  20736192.550 0  20736193.693 0
 -19336435.211 7 -14912642.150 6  20284395.431 0  20284395.333 0
 88  2 25  7 14 59.0800000  0  4  6  8 11  9
  -4227481.976 7  -3294143.304 7  20955317.132 0  20955317.512 0
  11952101.806 8   9313326.515 7  22522542.447 0  22522542.960 0
  -8684818.051 7  -6551083.624 7  20741369.226 0  20741370.149 0
 -19373945.059 6 -14941870.604 6  20277258.611 0  20277258.042 0
 88  2 25  7 15 29.0800000  0  4  6  8 11  9
  -4178162.084 8  -3255712.224 7  20964703.078 0  20964702.827 0
  12048729.471 7   9388620.779 7  22540929.709 0  22540930.382 0
  -8657210.068 8  -6529570.896 7  20746623.452 0  20746623.720 0
 -19410917.434 7 -14970680.242 7  20270222.326 0  20270222.085 0
 88  2 25  7 15 59.0800000  0  4  6  8 11  9
  -4128281.106 7  -3216843.938 7  20974194.982 0  20974194.432 0
  12145480.475 8   9464011.173 7  22559341.706 0  22559341.411 0
  -8629202.599 7  -6507746.905 7  20751952.690 0  20751953.367 0
 -19447350.400 6 -14999069.563 6  20263289.364 0  20263287.867 0
 88  2 25  7 16 29.0800000  0  4  6  8 11  9
  -4077840.057 7  -3177539.224 7  20983792.775 0  20983793.497 0
  12242351.403 7   9539495.000 7  22577775.845 0  22577775.823 0
  -8600798.416 7  -6485613.765 6  20757356.809 0  20757358.239 0
 -19483242.594 7 -15027037.518 6  20256458.486 0  20256458.478 0
 88  2 25  7 16 59.0800000  0  4  6  8 11  9
  -4026837.848 8  -3137797.253 7  20993498.445 0  20993497.736 0
  12339341.080 7   9615071.370 7  22596232.249 0  22596232.069 0
  -8571997.643 8  -6463171.603 7  20762838.934 0  20762839.570 0
 -19518589.956 7 -15054580.908 6  20249732.651 0  20249731.703 0
 88  2 25  7 17 29.0800000  0  4  6  8 11  9
  -3975275.842 7  -3097619.062 7  21003310.875 0  21003311.127 0
  12436446.552 8   9690737.974 7  22614710.568 0  22614710.181 0
  -8542803.212 7  -6440422.690 7  20768394.447 0  20768393.961 0
 -19553390.797 7 -15081698.437 6  20243109.371 0  20243110.075 0
 88  2 25  7 17 59.0800000  0  4  6  8 11  9
  -3923154.882 8  -3057005.329 7  21013228.520 0  21013228.428 0
  12533664.829 8   9766492.480 7  22633210.050 0  22633209.726 0
  -8513217.222 8  -6417368.672 7  20774023.328 0  20774024.775 0
 -19587642.810 7 -15108388.329 7  20236592.065 0  20236592.982 0
 88  2 25  7 18 29.0800000  0  4  6  8 11  9
  -3870475.427 7  -3015956.416 7  21023253.270 0  21023253.249 0
  12630993.197 8   9842332.761 7  22651731.239 0  22651731.931 0
  -8483241.647 7  -6394011.070 7  20779727.963 0  20779728.852 0
 -19621343.884 7 -15134648.899 6  20230179.213 0  20230179.704 0
 88  2 25  7 18 59.0800000  0  4  6  8 11  9
  -3817237.872 7  -2974472.614 7  21033384.310 0  21033384.533 0
  12728429.539 7   9918257.166 7  22670272.377 0  22670273.155 0
  -8452878.737 8  -6370351.650 7  20785505.526 0  20785506.192 0
 -19654491.275 7 -15160478.026 7  20223871.420 0  20223871.374 0
 88  2 25  7 19 29.0800000  0  4  6  8 11  9
  -3763442.476 7  -2932554.136 7  21043621.250 0  21043621.359 0
  12825971.317 7   9994263.731 7  22688833.845 0  22688835.734 0
  -8422129.643 7  -6346391.306 7  20791357.076 0  20791357.368 0
 -19687082.218 6 -15185873.556 6  20217670.350 0  20217669.209 0
 88  2 25  7 19 59.0800000  0  4  6  8 11  9
  -3709091.569 7  -2890202.780 7  21053963.753 0  21053962.871 0
  12923614.317 7  10070349.192 8  22707414.525 0  22707415.468 0
  -8390997.918 7  -6322132.826 7  20797281.279 0  20797281.794 0
 -19719116.280 7 -15210835.175 6  20211573.951 0  20211573.662 0
 88  2 25  7 20 29.0800000  0  4  6  8 11  9
  -3654185.351 7  -2847418.718 6  21064412.025 0  21064410.848 0
  13021357.101 7  10146512.380 7  22726015.046 0  22726015.207 0
  -8359485.549 7  -6297577.731 7  20803278.556 0  20803279.218 0
 -19750590.298 7 -15235360.396 6  20205585.087 0  20205584.674 0
 88  2 25  7 20 59.0800000  0  4  6  8 11  9
  -3598724.298 8  -2804202.305 7  21074965.171 0  21074965.937 0
  13119196.804 8  10222751.122 7  22744634.259 0  22744633.249 0
  -8327594.165 7  -6272727.306 7  20809345.878 0  20809346.524 0
 -19781502.222 7 -15259447.599 7  20199702.813 0  20199702.056 0
 88  2 25  7 21 29.0800000  0  4  6  8 11  9
  -3542708.747 7  -2760553.830 7  21085624.707 0  21085624.627 0
  13217131.406 7  10299063.784 8  22763270.837 0  22763270.091 0
  -8295325.223 6  -6247582.660 7  20815487.141 0  20815488.024 0
 -19811849.340 7 -15283094.714 6  20193927.331 0  20193926.569 0
 88  2 25  7 21 59.0800000  0  4  6  8 11  9
  -3486140.478 7  -2716474.666 7  21096389.728 0  21096389.207 0
  13315157.310 7  10375447.598 7  22781924.050 0  22781923.655 0
  -8262681.683 7  -6222146.137 7  20821699.609 0  20821699.860 0
 -19841630.342 7 -15306300.685 6  20188260.306 0  20188259.971 0
 88  2 25  7 22 29.0800000  0  4  6  8 11  9
  -3429020.130 8  -2671965.319 7  21107258.877 0  21107259.502 0
  13413271.749 8  10451900.408 7  22800595.386 0  22800593.838 0
  -8229665.775 7  -6196419.454 7  20827981.532 0  20827983.036 0
 -19870842.827 7 -15329063.662 6  20182702.232 0  20182700.653 0
 88  2 25  7 22 59.0800000  0  4  6  8 11  9
  -3371347.718 7  -2627025.787 7  21118234.361 0  21118234.484 0
  13511473.277 8  10528421.081 7  22819281.882 0  22819281.780 0
  -8196278.598 7  -6170403.467 7  20834335.001 0  20834336.938 0
 -19899484.024 7 -15351381.490 6  20177250.547 0  20177251.118 0
 88  2 25  7 23 29.0800000  0  4  6  8 11  9
  -3313124.592 7  -2581657.113 6  21129313.799 0  21129313.949 0
  13609758.687 8  10605007.114 7  22837984.633 0  22837983.480 0
  -8162522.715 7  -6144100.178 6  20840759.106 0  20840759.142 0
 -19927551.960 7 -15373252.603 7  20171910.107 0  20171909.018 0
 88  2 25  7 23 59.0800000  0  4  6  8 11  9
  -3254352.066 7  -2535860.346 7  21140497.865 0  21140497.558 0
  13708125.059 8  10681656.231 7  22856703.159 0  22856703.238 0
  -8128400.912 7  -6117511.762 7  20847252.199 0  20847253.271 0
 -19955045.389 7 -15394676.053 7  20166677.374 0  20166677.763 0
 88  2 25  7 24 29.0800000  0  4  6 13 11  9
  -3195032.031 7  -2489636.966 6  21151785.482 0  21151785.440 0
         -.460 8          .231 7  21456177.328 0          .000 0
  -8093916.078 7  -6090640.450 7  20853814.064 0  20853814.457 0
 -19981962.864 7 -15415650.715 7  20161555.794 0  20161556.124 0
 88  2 25  7 24 59.0800000  0  4  6 13 11  9
  -3135163.488 7  -2442986.151 7  21163178.977 0  21163179.021 0
    -55391.720 7  55692025.003 7  21445666.477 0  21445667.224 0
  -8059068.602 7  -6063486.594 7  20860444.725 0  20860446.517 0
 -20008300.701 7 -15436173.702 6  20156543.781 0  20156544.364 0
 88  2 25  7 25 29.0800000  0  4  6 13 11  9
  -3074747.569 7  -2395908.806 7  21174675.586 0  21174675.373 0
   -110339.294 8  55649208.734 7  21435211.042 0  21435211.440 0
  -8023860.165 7  -6036051.456 6  20867145.677 0  20867145.845 0
 -20034056.528 7 -15456243.174 7  20151643.009 0  20151642.129 0
 88  2 25  7 25 59.0800000  0  4  6 13 11  9
  -3013786.747 7  -2348406.881 7  21186276.409 0  21186275.093 0
   -164845.072 7  55606736.706 7  21424837.488 0  21424838.990 0
  -7988294.686 8  -6008338.081 6  20873913.217 0  20873913.987 0
 -20059230.236 7 -15475859.050 7  20146852.533 0  20146852.598 0
 88  2 25  7 26 29.0800000  0  4  6 13 11  9
  -2952281.644 7  -2300480.835 7  21197980.758 0  21197980.271 0
   -218908.270 8  55564609.563 7  21414549.074 0  21414550.837 0
  -7952374.096 7  -5980348.024 7  20880749.279 0  20880750.069 0
 -20083819.260 7 -15495019.337 7  20142172.581 0  20142173.660 0
 88  2 25  7 26 59.0800000  0  4  6 13 11  9
  -2890234.467 8  -2252132.382 7  21209786.286 0  21209787.390 0
   -272530.187 7  55522826.255 7  21404345.962 0  21404347.480 0
  -7916101.385 7  -5952083.562 6  20887650.953 0  20887652.008 0
 -20107822.651 8 -15513723.289 6  20137605.397 0  20137604.781 0
 88  2 25  7 27 29.0800000  0  4  6 13 11  9
  -2827643.178 7  -2203359.952 7  21221697.689 0  21221696.932 0
   -325707.347 8  55481389.508 7  21394227.306 0  21394228.413 0
  -7879475.694 8  -5923544.071 7  20894620.117 0  20894621.918 0
 -20131235.454 7 -15531967.026 7  20133149.898 0  20133150.685 0
 88  2 25  7 27 59.0800000  0  4  6 13 11  9
  -2764510.217 7  -2154165.441 6  21233712.104 0  21233711.562 0
   -378441.146 8  55440298.258 7  21384191.428 0  21384192.169 0
  -7842500.601 7  -5894732.308 8  20901656.680 0  20901657.642 0
 -20154057.416 7 -15549750.385 6  20128807.507 0  20128808.392 0
 88  2 25  7 28 29.0800000  0  4  6 13 11  9
  -2700838.053 7  -2104550.782 6  21245828.484 0  21245827.900 0
   -430732.356 8  55399551.871 7  21374240.991 0  21374242.422 0
  -7805179.542 7  -5865650.957 7  20908758.562 0  20908759.353 0
 -20176287.509 7 -15567072.527 7  20124577.329 0  20124575.991 0
 88  2 25  7 28 59.0800000  0  4  6 13 11  9
  -2636627.501 7  -2054516.593 7  21258046.708 0  21258046.294 0
   -482580.580 7  55359150.671 6  21364374.980 0  21364375.308 0
  -7767514.683 7  -5836301.724 7  20915926.615 0  20915927.107 0
 -20197923.651 7 -15583931.876 6  20120460.039 0  20120459.624 0
 88  2 25  7 29 29.0800000  0  4  6 13 11  9
  -2571877.989 7  -2004062.437 7  21270368.925 0  21270368.342 0
   -533984.255 7  55319095.873 6  21354593.221 0  21354593.678 0
  -7729506.193 7  -5806684.713 7  20923159.013 0  20923160.119 0
 -20218962.394 7 -15600325.703 6  20116455.480 0  20116456.108 0
 88  2 25  7 29 59.0800000  0  4  6 13 11  9
  -2506591.386 7  -1953189.775 7  21282791.812 0  21282791.927 0
   -584944.219 8  55279386.820 7  21344895.818 0  21344897.582 0
  -7691157.183 7  -5776802.377 8  20930456.159 0  20930457.674 0
 -20239402.675 7 -15616253.189 6  20112566.654 0  20112565.902 0
 88  2 25  7 30 29.0800000  0  4  6 13 11  9
  -2440770.519 7  -1901900.790 8  21295317.395 0  21295317.051 0
   -635461.124 8  55240023.010 7  21335282.963 0  21335283.418 0
  -7652470.863 7  -5746657.213 7  20937818.160 0  20937819.395 0
 -20259243.828 7 -15631713.843 6  20108789.956 0  20108790.469 0
 88  2 25  7 30 59.0800000  0  4  6 13 11  9
  -2374415.678 7  -1850195.721 7  21307944.300 0  21307944.458 0
   -685534.087 8  55201005.135 7  21325754.162 0  21325754.284 0
  -7613448.656 7  -5716250.278 7  20945244.533 0  20945244.209 0
 -20278483.444 7 -15646705.753 7  20105128.719 0  20105129.357 0
 88  2 25  7 31 29.0800000  0  4  6 13 11  9
  -2307527.990 7  -1798075.455 7  21320672.786 0  21320672.372 0
   -735163.244 7  55162333.087 7  21316310.032 0  21316311.413 0
  -7574092.835 8  -5685583.403 7  20952733.930 0  20952733.976 0
 -20297119.618 7 -15661227.443 7  20101582.656 0  20101582.649 0
 88  2 25  7 31 59.0800000  0  4  6 13 11  9
  -2240108.222 7  -1745540.582 8  21333502.681 0  21333501.710 0
   -784347.946 8  55124007.363 7  21306950.119 0  21306951.208 0
  -7534404.909 7  -5654657.751 8  20960286.344 0  20960287.042 0
 -20315150.134 6 -15675277.211 6  20098151.834 0  20098151.620 0
 88  2 25  7 32 29.0800000  0  4  6 13 11  9
  -2172158.692 7  -1692592.911 7  21346432.668 0  21346432.957 0
   -833088.853 8  55086027.442 7  21297675.643 0  21297676.209 0
  -7494387.725 8  -5623475.533 7  20967901.124 0  20967901.502 0
 -20332574.017 6 -15688854.255 7  20094836.091 0  20094836.713 0
 88  2 25  7 32 59.0800000  0  4  6 13 11  9
  -2103680.518 7  -1639233.302 7  21359462.580 0  21359463.537 0
   -881386.296 8  55048393.087 7  21288484.740 0  21288485.294 0
  -7454043.807 7  -5592038.714 7  20975578.394 0  20975578.170 0
 -20349389.638 7 -15701957.346 6  20091636.556 0  20091636.521 0
 88  2 25  7 33 29.0800000  0  4  6 13 11  9
  -2034674.980 7  -1585462.765 7  21372594.756 0  21372594.544 0
   -929240.173 8  55011104.364 7  21279378.923 0  21279380.079 0
  -7413375.004 7  -5560348.735 7  20983316.370 0  20983317.025 0
 -20365595.118 6 -15714584.992 7  20088551.853 0  20088553.102 0
 88  2 25  7 33 59.0800000  0  4  6 13 11  9
  -1965143.616 7  -1531282.483 7  21385825.981 0  21385826.168 0
   -976650.399 7  54974161.338 7  21270356.055 0  21270357.080 0
  -7372383.877 8  -5528407.594 7  20991116.677 0  20991117.825 0
 -20381189.232 7 -15726736.250 7  20085584.666 0  20085585.142 0
 88  2 25  7 34 29.0800000  0  4  6 13 11  9
  -1895087.490 8  -1476693.304 7  21399157.887 0  21399157.559 0
  -1023616.864 7  54937564.115 6  21261418.504 0  21261419.992 0
  -7331072.291 7  -5496216.750 8  20998978.376 0  20998979.290 0
 -20396169.688 7 -15738409.328 6  20082734.782 0  20082735.204 0
 88  2 25  7 34 59.0800000  0  4  6 13 11  9
  -1824507.574 7  -1421695.974 6  21412588.454 0  21412588.397 0
  -1070139.189 7  54901312.977 6  21252565.211 0  21252566.968 0
  -7289442.122 7  -5463777.660 7  21006901.134 0  21006901.754 0
 -20410534.649 6 -15749602.812 7  20080001.296 0  20080002.105 0
 88  2 25  7 35 29.0800000  0  4  6 13 11  9
  -1753407.048 8  -1366292.973 7  21426118.155 0  21426118.772 0
  -1116218.875 8  54865406.741 7  21243797.309 0  21243798.505 0
  -7247496.928 7  -5431093.099 7  21014882.137 0  21014883.265 0
 -20424284.356 6 -15760316.864 7  20077384.324 0  20077385.514 0
 88  2 25  7 35 59.0800000  0  4  6 13 11  9
  -1681786.045 7  -1310484.420 7  21439747.204 0  21439747.449 0
  -1161855.168 7  54829846.022 7  21235112.694 0  21235114.421 0
  -7205237.856 7  -5398163.938 7  21022923.832 0  21022925.284 0
 -20437415.556 7 -15770548.970 6  20074886.143 0  20074886.460 0
 88  2 25  7 36 29.0800000  0  4  6 13 11  9
  -1609645.951 7  -1254271.363 7  21453474.343 0  21453475.605 0
  -1207048.357 8  54794630.563 6  21226512.817 0  21226514.584 0
  -7162667.202 7  -5364991.998 7  21031024.003 0  21031026.268 0
 -20449926.990 6 -15780298.152 7  20072505.057 0  20072505.880 0
 88  2 25  7 36 59.0800000  0  4  6 13 11  9
  -1536988.980 7  -1197655.548 7  21467301.476 0  21467301.033 0
  -1251798.439 7  54759760.384 8  21217998.221 0  21217998.313 0
  -7119787.224 7  -5331579.038 7  21039184.106 0  21039185.314 0
 -20461817.442 6 -15789563.425 7  20070241.481 0  20070242.154 0
 88  2 25  7 37 29.0800000  0  4  6 13 11  9
  -1463816.434 7  -1140637.979 7  21481225.293 0  21481225.684 0
  -1296105.772 8  54725235.227 7  21209566.037 0  21209566.981 0
  -7076600.676 7  -5297927.196 7  21047403.302 0  21047403.757 0
 -20473085.769 7 -15798343.940 6  20068098.164 0  20068098.039 0
 88  2 25  7 37 59.0800000  0  4  6 13 11  9
  -1390129.971 7  -1083219.962 7  21495248.090 0  21495247.805 0
  -1339970.737 8  54691054.751 7  21201218.357 0  21201220.414 0
  -7033109.642 8  -5264038.069 7  21055679.504 0  21055680.338 0
 -20483730.453 6 -15806638.508 6  20066072.260 0  20066071.816 0
 88  2 25  7 38 29.0800000  0  4  6 13 11  9
  -1315930.328 8  -1025402.059 7  21509367.587 0  21509366.918 0
  -1383392.623 8  54657219.549 6  21192956.366 0  21192957.129 0
  -6989315.031 8  -5229912.394 7  21064012.992 0  21064013.791 0
 -20493749.105 6 -15814445.250 7  20064166.725 0  20064165.733 0
 88  2 25  7 38 59.0800000  0  4  6 13 11  9
  -1241221.184 7   -967187.163 7  21523584.187 0  21523584.160 0
  -1426373.582 7  54623727.920 7  21184776.561 0  21184777.149 0
  -6945221.234 7  -5195553.588 7  21072403.568 0  21072403.894 0
 -20503142.389 7 -15821764.690 6  20062378.214 0  20062378.089 0
 88  2 25  7 39 29.0800000  0  4  6 13 11  9
  -1166002.452 8   -908575.172 8  21537898.203 0  21537898.104 0
  -1468912.370 8  54590580.840 6  21176682.976 0  21176683.310 0
  -6900829.032 7  -5160962.255 7  21080851.601 0  21080852.234 0
 -20511907.561 7 -15828594.687 7  20060710.899 0  20060710.541 0
 88  2 25  7 39 59.0800000  0  4  6 13 11  9
  -1090276.360 7   -849567.842 7  21552307.474 0  21552308.035 0
  -1511009.402 7  54557777.984 6  21168671.110 0  21168672.188 0
  -6856140.919 8  -5126140.349 7  21089355.105 0  21089355.695 0
 -20520043.261 6 -15834934.199 7  20059163.249 0  20059162.159 0
 88  2 25  7 40 29.0800000  0  4  6 13 11  9
  -1014044.227 7   -790166.187 7  21566814.610 0  21566814.611 0
  -1552665.517 7  54525318.697 7  21160744.160 0  21160744.937 0
  -6811159.351 7  -5091089.779 7  21097914.751 0  21097916.212 0
 -20527548.380 7 -15840782.331 6  20057733.678 0  20057734.584 0
 88  2 25  7 40 59.0800000  0  4  6 13 11  9
   -937307.278 7   -730371.155 7  21581417.199 0  21581416.598 0
  -1593879.955 7  54493203.564 7  21152900.243 0  21152902.543 0
  -6765885.893 8  -5055811.766 7  21106529.988 0  21106530.492 0
 -20534421.190 7 -15846137.767 7  20056425.008 0  20056425.481 0
 88  2 25  7 41 29.0800000  0  4  6 13 11  9
   -860067.335 8   -670184.199 7  21596114.944 0  21596115.489 0
  -1634653.310 8  54461432.138 7  21145142.187 0  21145143.237 0
  -6720322.779 7  -5020308.033 7  21115199.877 0  21115201.048 0
 -20540660.497 6 -15850999.569 7  20055239.127 0  20055238.099 0
 88  2 25  7 41 59.0800000  0  4  6 13 11  9
   -782327.376 8   -609607.617 7  21610907.775 0  21610909.479 0
  -1674986.721 7  54430003.523 7  21137466.512 0  21137468.111 0
  -6674473.349 8  -4984581.198 7  21123924.694 0  21123924.627 0
 -20546266.199 6 -15855367.664 7  20054172.192 0  20054172.442 0
 88  2 25  7 42 29.0800000  0  4  6 13 11  9
   -704088.979 7   -548642.631 7  21625796.992 0  21625797.538 0
  -1714880.554 8  54398917.432 6  21129875.336 0  21129876.637 0
  -6628339.742 7  -4948632.932 7  21132703.736 0  21132704.912 0
 -20551236.854 7 -15859240.903 7  20053226.191 0  20053226.865 0
 88  2 25  7 42 59.0800000  0  4  6 13 11  9
   -625353.777 8   -487290.537 7  21640779.063 0  21640779.751 0
  -1754335.040 7  54368173.697 7  21122367.610 0  21122368.060 0
  -6581924.348 7  -4912465.108 7  21141536.358 0  21141537.049 0
 -20555571.434 7 -15862618.518 7  20052401.944 0  20052400.160 0
 88  2 25  7 43 29.0800000  0  4  6 13 11  9
   -546121.737 8   -425551.294 7  21655857.145 0  21655857.434 0
  -1793348.830 8  54337773.353 7  21114943.315 0  21114944.336 0
  -6535227.288 7  -4876077.792 7  21150422.658 0  21150424.146 0
 -20559266.813 7 -15865498.040 7  20051697.985 0  20051698.473 0
 88  2 25  7 43 59.0800000  0  4  6 13 11  9
   -466395.499 7   -363426.957 7  21671028.583 0  21671028.586 0
  -1831923.363 7  54307715.296 7  21107602.634 0  21107604.503 0
  -6488251.756 7  -4839473.476 7  21159361.856 0  21159362.797 0
 -20562322.945 7 -15867879.442 7  20051117.129 0  20051115.968 0
 88  2 25  7 44 29.0800000  0  4  6 13 11  9
   -386178.732 8   -300920.396 7  21686293.273 0  21686293.117 0
  -1870060.545 8  54277998.031 7  21100345.417 0  21100346.868 0
  -6441001.613 8  -4802655.169 7  21168352.924 0  21168353.531 0
 -20564740.207 7 -15869763.030 7  20050656.315 0  20050656.131 0
 88  2 25  7 44 59.0800000  0  4  6 13 11  9
   -305471.817 8   -238031.907 7  21701651.574 0  21701652.034 0
  -1907759.603 7  54248622.159 7  21093171.114 0  21093172.395 0
  -6393477.677 8  -4765623.527 7  21177396.341 0  21177396.848 0
 -20566516.507 7 -15871147.165 6  20050319.878 0  20050319.288 0
 88  2 25  7 45 29.0800000  0  4  6 13 11  9
   -224276.945 8   -174763.194 7  21717101.698 0  21717101.986 0
  -1945021.535 7  54219586.903 7  21086081.348 0  21086082.604 0
  -6345682.654 7  -4728380.654 7  21186491.365 0  21186491.985 0
 -20567650.800 7 -15872031.042 7  20050103.444 0  20050103.256 0
 88  2 25  7 45 59.0800000  0  4  6 13 11  9
   -142596.604 8   -111116.183 7  21732645.131 0  21732644.947 0
  -1981846.896 8  54190891.834 7  21079073.449 0  21079073.987 0
  -6297619.110 7  -4690928.543 7  21195638.081 0  21195638.865 0
 -20568142.684 7 -15872414.330 7  20050009.931 0  20050009.320 0
 88  2 25  7 46 29.0800000  0  4  6 13 11  9
    -60432.595 8    -47092.282 8  21748280.430 0  21748281.119 0
  -2018236.374 8  54162536.418 7  21072149.825 0  21072149.445 0
  -6249289.371 7  -4653268.997 7  21204835.722 0  21204835.555 0
 -20567991.283 6 -15872296.354 7  20050039.322 0  20050037.276 0
 88  2 25  7 46 59.0800000  0  4  6 13 11  9
     22214.648 7     17308.154 8  21764007.408 0  21764008.926 0
  -2054188.880 7  54134521.509 7  21065308.479 0  21065307.425 0
  -6200694.113 7  -4615402.562 7  21214082.597 0  21214083.266 0
 -20567194.000 6 -15871675.079 6  20050189.295 0  20050189.769 0
 88  2 25  7 47 29.0800000  0  4  6 13 11  9
    105342.892 8     82083.401 7  21779826.149 0  21779826.423 0
  -2089704.988 8  54106846.622 7  21058549.897 0  21058549.029 0
  -6151835.752 7  -4577331.116 7  21223379.243 0  21223379.726 0
 -20565750.226 7 -15870550.071 7  20050465.375 0  20050464.690 0
 88  2 25  7 47 59.0800000  0  4  6 13 11  9
    188949.118 8    147231.102 7  21795736.743 0  21795737.332 0
  -2124786.981 7  54079510.027 7  21051873.537 0  21051873.362 0
  -6102717.715 8  -4539057.305 6  21232726.072 0  21232726.492 0
 -20563660.481 6 -15868921.700 6  20050862.639 0  20050861.363 0
 88  2 25  7 48 29.0800000  0  4  6 13 11  9
    273029.915 8    212748.589 7  21811736.382 0  21811736.612 0
  -2159436.335 8  54052510.552 7  21045279.534 0  21045279.031 0
  -6053343.621 7  -4500583.980 7  21242122.361 0  21242123.697 0
 -20560925.086 6 -15866790.239 6  20051383.403 0  20051383.149 0
 88  2 25  7 48 59.0800000  0  4  6 13 11  9
    357586.521 8    278636.846 7  21827827.628 0  21827827.701 0
  -2193650.123 8  54025850.466 7  21038768.609 0  21038770.288 0
  -6003712.364 7  -4461910.276 7  21251565.741 0  21251567.709 0
 -20557540.034 7 -15864152.537 7  20052028.228 0  20052026.954 0
 88  2 25  7 49 29.0800000  0  4  6 13 11  9
    442615.827 8    344893.424 7  21844007.591 0  21844007.822 0
  -2227430.083 8  53999528.439 7  21032340.232 0  21032341.295 0
  -5953827.352 8  -4423038.845 7  21261059.421 0  21261060.099 0
 -20553505.476 7 -15861008.732 6  20052795.593 0  20052793.969 0
 88  2 25  7 49 59.0800000  0  4  6 13 11  9
    528114.726 8    411515.947 8  21860277.903 0  21860277.319 0
  -2260777.884 8  53973543.160 7  21025994.883 0  21025994.336 0
  -5903691.674 8  -4383972.082 7  21270599.911 0  21270600.046 0
 -20548821.749 7 -15857359.087 7  20053686.601 0  20053684.847 0
 88  2 25  7 50 29.0800000  0  4  6 13 11  9
    614080.953 8    478502.616 8  21876636.761 0  21876636.189 0
  -2293694.932 8  53947893.523 7  21019730.443 0  21019732.000 0
  -5853307.904 7  -4344711.995 7  21280188.086 0  21280188.543 0
 -20543488.315 6 -15853203.169 7  20054701.036 0  20054700.787 0
 88  2 25  7 50 59.0800000  0  4  6 13 11  9
    700513.607 8    545852.722 7  21893084.792 0  21893084.207 0
  -2326180.103 7  53922580.415 7  21013548.940 0  21013548.894 0
  -5802676.863 7  -4305259.221 6  21289822.933 0  21289823.567 0
 -20537503.372 7 -15848539.582 6  20055840.121 0  20055840.273 0
 88  2 25  7 51 29.0800000  0  4  6 13 11  9
    787411.408 8    613565.285 7  21909620.411 0  21909620.340 0
  -2358233.986 7  53897603.391 7  21007448.471 0  21007449.582 0
  -5751800.437 8  -4265615.258 7  21299504.023 0  21299504.924 0
 -20530865.534 6 -15843367.254 6  20057103.532 0  20057103.320 0
 88  2 25  7 51 59.0800000  0  4  6 13 11  9
    874770.507 8    681637.301 7  21926244.102 0  21926244.276 0
  -2389858.664 7  53872960.793 7  21001431.044 0  21001432.128 0
  -5700682.338 8  -4225782.980 7  21309231.472 0  21309232.592 0
 -20523575.792 6 -15837686.927 7  20058491.687 0  20058490.025 0
 88  2 25  7 52 29.0800000  0  4  6 13 11  9
    962588.862 8    750067.173 7  21942956.511 0  21942955.354 0
  -2421054.252 7  53848652.563 7  20995494.440 0  20995495.451 0
  -5649324.347 8  -4185763.760 7  21319004.156 0  21319005.227 0
 -20515633.324 7 -15831498.002 6  20060001.491 0  20060002.458 0
 88  2 25  7 52 59.0800000  0  4  6 13 11  9
   1050865.413 8    818854.087 7  21959754.616 0  21959753.859 0
  -2451820.321 8  53824679.020 7  20989639.575 0  20989641.179 0
  -5597727.903 7  -4145558.745 7  21328823.069 0  21328824.196 0
 -20507036.771 7 -15824799.387 6  20061636.267 0  20061636.459 0
 88  2 25  7 53 29.0800000  0  4  6 13 11  9
   1139597.743 7    887996.154 7  21976638.892 0  21976639.397 0
  -2482158.170 7  53801039.145 6  20983866.759 0  20983868.068 0
  -5545895.622 8  -4105169.944 7  21338686.990 0  21338686.172 0
 -20497785.562 7 -15817590.661 6  20063397.931 0  20063397.194 0
 88  2 25  7 53 59.0800000  0  4  6 13 11  9
   1228783.323 8    957491.404 7  21993610.583 0  21993611.958 0
  -2512068.908 7  53777732.091 7  20978175.134 0  20978175.404 0
  -5493829.488 8  -4064598.930 7  21348594.031 0  21348594.836 0
 -20487879.651 6 -15809871.793 6  20065282.207 0  20065281.906 0
 88  2 25  7 54 29.0800000  0  4  6 13 11  9
   1318419.200 7   1027337.540 7  22010667.400 0  22010667.889 0
  -2541554.037 7  53754756.693 7  20972564.012 0  20972564.961 0
  -5441532.832 8  -4023848.287 7  21358545.788 0  21358545.979 0
 -20477319.321 7 -15801642.969 6  20067292.435 0  20067291.677 0
 88  2 25  7 54 59.0800000  0  4  6 13 11  9
   1408504.354 8   1097533.748 8  22027809.816 0  22027810.303 0
  -2570613.044 7  53732113.326 7  20967034.985 0  20967035.425 0
  -5389006.423 7  -3982918.607 6  21368541.253 0  21368541.352 0
 -20466102.818 6 -15792902.836 7  20069428.192 0  20069426.510 0
 88  2 25  7 55 29.0800000  0  4  6 13 11  9
   1499036.781 8   1168078.489 7  22045037.310 0  22045038.228 0
  -2599246.340 7  53709801.679 7  20961585.711 0  20961587.156 0
  -5336252.347 7  -3941811.546 7  21378580.506 0  21378581.132 0
 -20454229.614 7 -15783651.003 6  20071686.211 0  20071686.270 0
 88  2 25  7 55 59.0800000  0  4  6 13 11  9
   1590013.022 7   1238969.055 7  22062350.090 0  22062349.836 0
  -2627456.454 8  53687819.794 7  20956217.473 0  20956218.945 0
  -5283274.173 8  -3900529.857 7  21388661.131 0  21388662.403 0
 -20441700.469 7 -15773888.024 7  20074070.804 0  20074070.277 0
 88  2 25  7 56 29.0800000  0  4  6 13 11  9
   1681431.942 8   1310204.577 8  22079746.792 0  22079747.095 0
  -2655242.914 8  53666168.013 7  20950930.542 0  20950930.926 0
  -5230072.676 7  -3859074.141 7  21398785.480 0  21398786.552 0
 -20428513.837 7 -15763612.732 7  20076580.505 0  20076580.088 0
 88  2 25  7 56 59.0800000  0  4  6 13 11  9
   1773291.181 8   1381783.205 7  22097226.403 0  22097226.948 0
  -2682606.391 7  53644845.836 7  20945723.362 0  20945723.977 0
  -5176650.279 8  -3817446.298 7  21408951.869 0  21408951.950 0
 -20414669.431 7 -15752824.886 6  20079213.715 0  20079213.865 0
 88  2 25  7 57 29.0800000  0  4  6 13 11  9
   1865587.414 7   1453702.337 7  22114789.935 0  22114790.082 0
  -2709548.596 8  53623851.925 7  20940596.125 0  20940597.534 0
  -5123010.099 7  -3775648.751 7  21419158.544 0  21419159.843 0
 -20400168.081 6 -15741525.144 7  20081974.857 0  20081974.158 0
 88  2 25  7 57 59.0800000  0  4  6 13 11  9
   1958317.724 8   1525959.700 8  22132436.148 0  22132436.008 0
  -2736070.906 7  53603185.202 7  20935548.626 0  20935549.578 0
  -5069154.750 7  -3733683.556 7  21429406.245 0  21429407.393 0
 -20385010.023 7 -15729713.676 7  20084857.190 0  20084858.954 0
 88  2 25  7 58 29.0800000  0  4  6 13 11  9
   2051480.928 8   1598554.397 8  22150165.310 0  22150164.983 0
  -2762173.152 7  53582845.800 7  20930582.087 0  20930582.781 0
  -5015085.637 8  -3691551.781 7  21439695.413 0  21439697.578 0
 -20369194.000 6 -15717389.510 6  20087868.330 0  20087868.173 0
 88  2 25  7 58 59.0800000  0  4  6 13 11  9
   2145076.499 8   1671486.004 7  22167975.048 0  22167975.836 0
  -2787854.552 7  53562834.329 7  20925693.929 0  20925695.563 0
  -4960802.875 8  -3649253.524 7  21450025.821 0  21450026.384 0
 -20352717.842 6 -15704550.957 7  20091003.780 0  20091003.768 0
 88  2 25  7 59 29.0800000  0  4  6 13 11  9
   2239100.010 7   1744751.066 7  22185868.036 0  22185867.794 0
  -2813117.736 7  53543148.743 7  20920887.424 0  20920888.199 0
  -4906310.251 7  -3606791.742 7  21460394.699 0  21460396.420 0
 -20335583.659 6 -15691199.653 6  20094263.238 0  20094263.577 0
 88  2 25  7 59 59.0800000  0  4  6 13 11  9
   2333548.179 8   1818347.029 7  22203840.711 0  22203841.429 0
  -2837965.172 7  53523787.127 7  20916159.477 0  20916159.405 0
  -4851611.050 7  -3564168.980 7  21470803.944 0  21470805.961 0
 -20317791.849 7 -15677335.900 6  20097649.042 0  20097649.988 0
 88  2 25  8  0 29.0800000  0  4  6 13 11  9
   2428420.110 8   1892273.210 7  22221894.192 0  22221893.936 0
  -2862395.866 7  53504750.245 7  20911511.124 0  20911510.537 0
  -4796706.351 7  -3521386.107 7  21481251.808 0  21481252.094 0
 -20299340.859 6 -15662958.511 6  20101160.174 0  20101160.330 0
 88  2 25  8  0 59.0800000  0  4  6 13 11  9
   2523713.699 8   1966527.941 7  22240027.748 0  22240027.578 0
  -2886410.950 8  53486037.208 6  20906940.452 0  20906940.117 0
  -4741597.733 8  -3478444.334 7  21491738.814 0  21491739.242 0
 -20280230.608 6 -15648067.418 6  20104797.223 0  20104797.376 0
 88  2 25  8  1 29.0800000  0  4  6 13 11  9
   2619425.240 8   2041108.344 8  22258240.903 0  22258241.177 0
  -2910012.306 8  53467646.557 8  20902448.916 0  20902449.546 0
  -4686288.599 8  -3435346.308 7  21502264.151 0  21502265.077 0
 -20260462.168 6 -15632663.441 7  20108559.052 0  20108558.855 0
 88  2 25  8  1 59.0800000  0  4  6 13 11  9
   2715553.392 8   2116013.391 7  22276533.505 0  22276533.306 0
  -2933199.886 8  53449578.322 6  20898036.721 0  20898037.037 0
  -4630779.733 8  -3392092.654 7  21512827.433 0  21512827.816 0
 -20240034.305 6 -15616745.635 7  20112446.585 0  20112446.450 0
 88  2 25  8  2 29.0800000  0  4  6 13 11  9
   2812096.214 8   2191241.552 7  22294905.162 0  22294905.250 0
  -2955974.226 7  53431832.088 6  20893702.260 0  20893703.679 0
  -4575072.960 8  -3348684.780 7  21523427.289 0  21523428.231 0
 -20218946.604 7 -15600313.668 7  20116460.120 0  20116459.476 0
 88  2 25  8  2 59.0800000  0  4  6 13 11  9
   2909049.407 8   2266789.505 8  22313354.479 0  22313354.525 0
  -2978338.137 7  53414405.671 7  20889447.183 0  20889448.067 0
  -4519172.161 7  -3305125.717 6  21534064.815 0  21534066.086 0
 -20197200.831 7 -15583368.912 7  20120597.815 0  20120596.975 0
 88  2 25  8  3 29.0800000  0  4  6 13 11  9
   3006411.385 8   2342655.973 8  22331882.204 0  22331882.046 0
  -3000291.683 7  53397299.016 7  20885269.000 0  20885270.357 0
  -4463078.744 8  -3261416.570 7  21544738.886 0  21544739.949 0
 -20174796.357 7 -15565910.883 7  20124860.437 0  20124860.803 0
 88  2 25  8  3 59.0800000  0  4  6 13 11  9
   3104180.120 8   2418839.382 7  22350486.997 0  22350486.339 0
  -3021835.508 7  53380511.628 6  20881169.576 0  20881171.178 0
  -4406794.227 8  -3217558.508 7  21555449.712 0  21555450.938 0
 -20151732.987 7 -15547939.429 6  20129249.160 0  20129250.203 0
 88  2 25  8  4 29.0800000  0  4  6 13 11  9
   3202353.341 8   2495337.988 7  22369168.242 0  22369169.260 0
  -3042970.026 8  53364043.185 7  20877147.866 0  20877148.520 0
  -4350320.582 7  -3173553.073 7  21566196.981 0  21566198.037 0
 -20128010.254 7 -15529454.198 6  20133764.201 0  20133763.510 0
 88  2 25  8  4 59.0800000  0  4  6 13 11  9
   3300927.119 8   2572148.716 7  22387926.222 0  22387926.077 0
  -3063697.994 7  53347891.532 7  20873203.539 0  20873204.194 0
  -4293661.321 7  -3129403.008 7  21576978.666 0  21576978.983 0
 -20103629.718 7 -15510456.386 6  20138404.066 0  20138404.090 0
 88  2 25  8  5 29.0800000  0  4  6 13 11  9
   3399900.351 7   2649270.700 7  22406759.369 0  22406760.240 0
  -3084018.513 7  53332057.364 7  20869336.022 0  20869338.049 0
  -4236816.921 8  -3085108.674 7  21587795.576 0  21587796.248 0
 -20078590.256 7 -15490945.127 6  20143168.213 0  20143167.616 0
 88  2 25  8  5 59.0800000  0  4  6 13 11  9
   3499269.935 7   2726701.537 7  22425669.531 0  22425670.037 0
  -3103933.713 7  53316539.037 7  20865547.896 0  20865547.319 0
  -4179790.223 8  -3040672.281 7  21598647.278 0  21598648.398 0
 -20052892.653 6 -15470921.040 6  20148058.366 0  20148058.904 0
 88  2 25  8  6 29.0800000  0  4  6 13 11  9
   3599032.557 7   2804438.642 7  22444653.874 0  22444653.874 0
  -3123445.593 7  53301334.995 7  20861834.146 0  20861834.744 0
  -4122583.983 8  -2996095.997 7  21609533.368 0  21609534.453 0
 -20026537.944 6 -15450384.914 6  20153071.866 0  20153073.613 0
 88  2 25  8  6 59.0800000  0  4  6 13 11  9
   3699186.350 7   2882480.539 7  22463712.945 0  22463712.787 0
  -3142554.652 7  53286444.827 7  20858197.768 0  20858197.949 0
  -4065199.828 7  -2951381.074 7  21620452.884 0  21620454.154 0
 -19999525.714 7 -15429336.431 7  20158213.428 0  20158214.080 0
 88  2 25  8  7 29.0800000  0  4  6 13 11  9
   3799729.005 8   2960825.464 7  22482845.833 0  22482845.929 0
  -3161261.624 7  53271867.979 7  20854638.198 0  20854638.452 0
  -4007639.322 8  -2906528.737 7  21631406.750 0  21631407.647 0
 -19971855.960 6 -15407775.577 7  20163479.317 0  20163478.961 0
 88  2 25  8  7 59.0800000  0  4  6 13 11  9
   3900658.018 8   3039471.449 7  22502052.138 0  22502051.619 0
  -3179567.520 8  53257603.654 7  20851154.957 0  20851154.510 0
  -3949904.278 8  -2861540.388 7  21642393.019 0  21642394.304 0
 -19943528.982 7 -15385702.620 7  20168869.678 0  20168870.222 0
 88  2 25  8  8 29.0800000  0  4  6 13 11  9
   4001970.706 8   3118416.395 7  22521330.930 0  22521330.778 0
  -3197473.263 7  53243651.142 6  20847747.152 0  20847748.293 0
  -3891996.964 7  -2816417.810 7  21653412.788 0  21653412.991 0
 -19914545.379 7 -15363117.995 6  20174385.180 0  20174384.733 0
 88  2 25  8  8 59.0800000  0  4  6 13 11  9
   4103663.970 8   3197657.886 7  22540683.230 0  22540681.935 0
  -3214980.390 7  53230009.226 7  20844415.316 0  20844415.456 0
  -3833919.913 8  -2771162.968 7  21664464.378 0  21664465.105 0
 -19884906.005 7 -15340022.388 6  20180024.654 0  20180025.651 0
 88  2 25  8  9 29.0800000  0  4  6 13 11  9
   4205734.806 8   3277193.595 7  22560105.863 0  22560106.136 0
  -3232090.919 7  53216676.365 7  20841159.648 0  20841160.431 0
  -3775675.394 7  -2725777.637 7  21675547.648 0  21675548.334 0
 -19854611.207 7 -15316416.053 6  20185790.403 0  20185789.988 0
 88  2 25  8  9 59.0800000  0  4  6 13 11  9
   4308181.243 8   3357021.983 8  22579600.334 0  22579600.865 0
  -3248805.217 8  53203652.239 6  20837978.600 0  20837979.414 0
  -3717264.942 8  -2680262.999 7  21686663.603 0  21686663.657 0
 -19823661.333 6 -15292299.274 7  20191679.486 0  20191680.217 0
 88  2 25  8 10 29.0800000  0  4  6 13 11  9
   4411001.042 8   3437141.288 7  22599166.585 0  22599166.574 0
  -3265124.050 7  53190936.274 7  20834872.549 0  20834875.463 0
  -3658690.131 8  -2634620.277 7  21697810.435 0  21697810.168 0
 -19792056.365 7 -15267672.037 7  20197693.516 0  20197693.658 0
 88  2 25  8 10 59.0800000  0  4  6 13 11  9
   4514191.632 7   3517549.539 8  22618802.927 0  22618803.279 0
  -3281048.464 7  53178527.654 7  20831842.994 0  20831843.061 0
  -3599952.655 8  -2588850.811 8  21708987.145 0  21708987.993 0
 -19759796.466 7 -15242534.469 6  20203832.172 0  20203833.257 0
 88  2 25  8 11 29.0800000  0  4  6 13 11  9
   4617749.412 7   3598243.913 7  22638510.313 0  22638509.752 0
  -3296580.922 8  53166424.456 6  20828887.747 0  20828887.871 0
  -3541055.847 7  -2542957.185 7  21720194.770 0  21720195.685 0
 -19726883.227 7 -15216887.794 7  20210095.349 0  20210096.318 0
 88  2 25  8 11 59.0800000  0  4  6 13 11  9
   4721670.673 8   3679221.505 7  22658284.952 0  22658285.899 0
  -3311722.839 7  53154625.584 7  20826005.662 0  20826007.032 0
  -3482002.690 8  -2496941.743 7  21731431.815 0  21731432.936 0
 -19693318.543 6 -15190733.494 7  20216483.021 0  20216483.375 0
 88  2 25  8 12 29.0800000  0  4  3 13 11  9
          .499 8          .005 7  24131078.511 0          .000 0
  -3326473.342 7  53143131.692 7  20823199.389 0  20823200.197 0
  -3422792.034 8  -2450803.578 7  21742699.178 0  21742701.154 0
 -19659099.970 7 -15164069.679 6  20222995.122 0  20222994.614 0
 88  2 25  8 12 59.0800000  0  4  3 13 11  9
    -77869.592 7  84575438.753 7  24116282.833 0  24116284.178 0
  -3340833.436 8  53131942.021 7  20820466.372 0  20820467.618 0
  -3363425.666 8  -2404544.062 7  21753996.580 0  21753997.094 0
 -19624227.918 7 -15136896.667 7  20229630.625 0  20229630.289 0
 88  2 25  8 13 29.0800000  0  4  3 13 11  9
   -155518.201 7  84514933.358 7  24101506.876 0  24101507.821 0
  -3354807.381 7  53121053.242 7  20817807.471 0  20817808.122 0
  -3303908.803 8  -2358167.295 7  21765321.806 0  21765323.214 0
 -19588706.193 7 -15109217.410 7  20236389.600 0  20236389.776 0
 88  2 25  8 13 59.0800000  0  4  3 13 11  9
   -232944.226 7  84454601.393 7  24086773.188 0  24086774.533 0
  -3368395.081 8  53110465.433 7  20815221.210 0  20815222.324 0
  -3244242.396 7  -2311673.993 7  21776676.421 0  21776677.144 0
 -19552534.311 7 -15081031.537 7  20243273.502 0  20243273.369 0
 88  2 25  8 14 29.0800000  0  4  3 13 11  9
   -310146.851 7  84394443.504 8  24072082.456 0  24072084.460 0
  -3381597.911 7  53100177.522 7  20812708.698 0  20812710.199 0
  -3184428.041 7  -2265065.402 7  21788057.882 0  21788059.850 0
 -19515712.714 6 -15052339.399 7  20250281.106 0  20250279.793 0
 88  2 25  8 14 59.0800000  0  4  3 13 11  9
   -387125.970 7  84334459.791 7  24057433.480 0  24057434.137 0
  -3394416.802 7  53090188.796 7  20810268.957 0  20810271.239 0
  -3124467.418 8  -2218342.850 8  21799469.134 0  21799469.234 0
 -19478242.234 7 -15023141.643 6  20257411.470 0  20257410.673 0
 88  2 25  8 15 29.0800000  0  4  3 13 11  9
   -463881.560 7  84274650.239 7  24042826.943 0  24042828.603 0
  -3406853.631 8  53080497.766 7  20807902.778 0  20807903.961 0
  -3064362.620 7  -2171507.938 7  21810906.693 0  21810906.729 0
 -19440123.807 7 -14993438.976 7  20264665.707 0  20264664.833 0
 88  2 25  8 15 59.0800000  0  4  3 13 11  9
   -540412.168 7  84215016.002 6  24028264.278 0  24028265.579 0
  -3418909.179 8  53071103.844 7  20805608.680 0  20805611.078 0
  -3004115.211 8  -2124561.905 7  21822371.489 0  21822372.178 0
 -19401357.544 7 -14963231.510 6  20272042.140 0  20272041.191 0
 88  2 25  8 16 29.0800000  0  4  3 13 11  9
   -616717.366 7  84155557.422 6  24013743.252 0  24013745.659 0
  -3430583.652 7  53062006.855 7  20803388.328 0  20803387.351 0
  -2943726.749 7  -2077505.968 7  21833863.319 0  21833863.563 0
 -19361944.137 7 -14932519.771 6  20279541.011 0  20279541.017 0
 88  2 25  8 16 59.0800000  0  4  3 13 11  9
   -692798.732 7  84096273.239 7  23999266.501 0  23999267.503 0
  -3441880.285 7  53053204.306 7  20801238.130 0  20801238.227 0
  -2883200.875 8  -2030342.937 7  21845379.872 0  21845381.045 0
 -19321886.020 7 -14901305.668 7  20287164.608 0  20287164.065 0
 88  2 25  8 17 29.0800000  0  4  3 13 11  9
   -768654.399 7  84037164.922 7  23984831.018 0  23984832.392 0
  -3452798.820 7  53044696.369 7  20799159.822 0  20799160.701 0
  -2822537.969 7  -1983073.148 7  21856924.364 0  21856924.664 0
 -19281182.833 7 -14869588.896 7  20294908.485 0  20294910.921 0
 88  2 25  8 17 59.0800000  0  4  3 13 11  9
   -844284.684 7  83978232.217 7  23970438.688 0  23970441.682 0
  -3463341.795 7  53036481.073 7  20797154.158 0  20797154.664 0
  -2761740.946 8  -1935698.844 7  21868493.825 0  21868493.518 0
 -19239836.258 6 -14837370.797 7  20302777.788 0  20302778.090 0
 88  2 25  8 18 29.0800000  0  4  3 13 11  9
   -919689.254 7  83919475.403 7  23956090.207 0  23956091.078 0
  -3473509.910 8  53028557.870 8  20795219.028 0  20795220.189 0
  -2700811.170 7  -1888221.091 7  21880087.821 0  21880089.029 0
 -19197846.952 6 -14804651.860 6  20310767.562 0  20310768.451 0
 88  2 25  8 18 59.0800000  0  4  3 13 11  9
   -994867.665 7  83860894.822 6  23941785.051 0  23941785.466 0
  -3483304.563 8  53020925.687 7  20793355.341 0  20793356.334 0
  -2639750.667 7  -1840641.483 7  21891707.385 0  21891708.049 0
 -19155216.088 8 -14771433.012 6  20318879.525 0  20318880.582 0
 88  2 25  8 19 29.0800000  0  4  3 13 11  9
  -1069818.821 7  83802491.328 6  23927522.135 0  23927522.849 0
  -3492727.445 7  53013583.178 7  20791562.079 0  20791562.817 0
  -2578560.779 7  -1792961.052 8  21903351.606 0  21903351.985 0
 -19111943.897 7 -14737714.425 7  20327115.814 0  20327115.380 0
 88  2 25  8 19 59.0800000  0  4  3 13 11  9
  -1144543.295 7  83744264.477 6  23913301.947 0  23913301.961 0
  -3501779.800 7  53006529.400 7  20789839.398 0  20789840.422 0
  -2517243.710 7  -1745181.517 7  21915020.279 0  21915020.818 0
 -19068031.936 7 -14703497.335 6  20335471.997 0  20335470.458 0
 88  2 25  8 20 29.0800000  0  4  3 13 11  9
  -1219040.738 7  83686214.516 7  23899125.256 0  23899127.246 0
  -3510463.589 7  52999762.819 7  20788186.509 0  20788187.587 0
  -2455801.476 8  -1697304.460 7  21926712.093 0  21926712.335 0
 -19023481.888 7 -14668783.010 7  20343949.056 0  20343948.631 0
 88  2 25  8 20 59.0800000  0  4  3 13 11  9
  -1293311.049 7  83628341.546 6  23884993.070 0  23884992.899 0
  -3518779.681 8  52993282.766 7  20786604.289 0  20786604.854 0
  -2394236.122 8  -1649331.448 7  21938426.664 0  21938428.397 0
 -18978294.367 7 -14633571.965 7  20352548.206 0  20352547.408 0
 88  2 25  8 21 29.0800000  0  4  3 13 11  9
  -1367353.687 7  83570645.990 7  23870901.408 0  23870903.210 0
  -3526728.776 8  52987088.675 7  20785092.076 0  20785092.366 0
  -2332548.782 8  -1601263.396 7  21950166.076 0  21950166.721 0
 -18932470.341 7 -14597864.938 7  20361267.655 0  20361267.714 0
 88  2 25  8 21 59.0800000  0  4  3 13 11  9
  -1441169.357 7  83513127.283 7  23856855.764 0  23856856.565 0
  -3534313.457 8  52981178.537 7  20783648.649 0  20783648.995 0
  -2270742.653 8  -1553102.781 7  21961927.088 0  21961929.255 0
 -18886011.679 7 -14561663.385 7  20370108.949 0  20370108.654 0
 88  2 25  8 22 29.0800000  0  4  3 13 11  9
  -1514756.682 7  83455786.521 7  23842852.388 0  23842852.862 0
  -3541534.561 7  52975551.721 7  20782273.862 0  20782274.184 0
  -2208817.776 8  -1504849.627 7  21973711.316 0  21973712.269 0
 -18838918.473 7 -14524967.388 7  20379070.423 0  20379069.628 0
 88  2 25  8 22 59.0800000  0  4  3 13 11  9
  -1588114.907 8  83398624.262 7  23828892.685 0  23828894.530 0
  -3548393.026 7  52970207.462 7  20780968.415 0  20780969.201 0
  -2146776.572 8  -1456505.828 7  21985517.573 0  21985517.833 0
 -18791192.102 7 -14487778.012 7  20388152.422 0  20388151.566 0
 88  2 25  8 23 29.0800000  0  4  3 13 11  9
  -1661245.374 7  83341639.490 7  23814975.879 0  23814978.429 0
  -3554891.915 8  52965143.395 7  20779732.856 0  20779733.227 0
  -2084622.033 8  -1408073.720 7  21997345.267 0  21997345.681 0
 -18742835.243 7 -14450097.352 7  20397353.808 0  20397354.703 0
 88  2 25  8 23 59.0800000  0  4  3 13 11  9
  -1734147.801 8  83284832.396 7  23801103.375 0  23801104.708 0
  -3561032.188 8  52960358.779 7  20778563.497 0  20778564.013 0
  -2022355.464 8  -1359554.311 6  22009193.257 0  22009194.817 0
 -18693848.993 7 -14411926.249 7  20406675.613 0  20406676.512 0
 88  2 25  8 24 29.0800000  0  4  3 13 11  9
  -1806820.653 7  83228204.214 6  23787274.677 0  23787275.360 0
  -3566813.951 8  52955853.518 7  20777462.995 0  20777464.168 0
  -1959977.583 8  -1310948.176 6  22021064.455 0  22021065.531 0
 -18644233.078 7 -14373264.507 7  20416118.318 0  20416117.351 0
 88  2 25  8 24 59.0800000  0  4  3 13 11  9
  -1879264.123 8  83171754.754 7  23773489.927 0  23773489.714 0
  -3572238.986 7  52951626.217 7  20776430.802 0  20776431.906 0
  -1897490.367 8  -1262256.829 7  22032954.945 0  22032955.838 0
 -18593989.434 7 -14334113.614 7  20425679.201 0  20425679.150 0
 88  2 25  8 25 29.0800000  0  4  3 13 11  9
  -1951479.224 7  83115483.243 7  23759748.037 0  23759748.058 0
  -3577309.714 7  52947675.014 7  20775466.094 0  20775467.238 0
  -1834896.354 7  -1213482.272 7  22044866.424 0  22044867.004 0
 -18543120.300 7 -14294475.339 7  20435359.050 0  20435359.242 0
 88  2 25  8 25 59.0800000  0  4  3 13 11  9
  -2023464.752 7  83059390.638 7  23746048.785 0  23746050.269 0
  -3582027.120 7  52943999.119 7  20774567.893 0  20774569.365 0
  -1772197.137 8  -1164625.746 7  22056797.650 0  22056797.552 0
 -18491626.560 6 -14254350.354 7  20445158.074 0  20445157.148 0
 88  2 25  8 26 29.0800000  0  4  3 13 11  9
  -2095220.638 7  83003476.968 7  23732394.524 0  23732395.784 0
  -3586392.630 7  52940597.421 7  20773738.319 0  20773739.549 0
  -1709394.169 8  -1115688.367 7  22068748.447 0  22068749.340 0
 -18439509.479 7 -14213739.645 6  20455076.041 0  20455075.930 0
 88  2 25  8 26 59.0800000  0  4  3 13 11  9
  -2166747.711 7  82947741.578 7  23718782.549 0  23718783.987 0
  -3590408.332 8  52937468.316 7  20772973.408 0  20772974.494 0
  -1646489.735 8  -1066671.914 7  22080717.899 0  22080719.358 0
 -18386771.003 7 -14172644.741 7  20465110.905 0  20465111.516 0
 88  2 25  8 27 29.0800000  0  4  3 13 11  9
  -2238044.404 8  82892185.708 7  23705215.680 0  23705217.281 0
  -3594074.561 7  52934611.529 7  20772275.579 0  20772276.809 0
  -1583484.723 8  -1017577.101 7  22092708.437 0  22092708.338 0
 -18333411.873 7 -14131066.194 7  20475264.417 0  20475264.296 0
 88  2 25  8 27 59.0800000  0  4  3 13 11  9
  -2309111.550 7  82836808.714 7  23691692.113 0  23691692.942 0
  -3597393.925 7  52932025.016 7  20771644.701 0  20771645.604 0
  -1520381.541 8   -968405.777 7  22104716.618 0  22104716.542 0
 -18279434.031 7 -14089005.555 7  20485536.728 0  20485536.612 0
 88  2 25  8 28 29.0800000  0  4  3 13 11  9
  -2379948.678 7  82781610.950 7  23678211.309 0  23678213.671 0
  -3600367.663 8  52929707.826 7  20771079.377 0  20771079.160 0
  -1457181.632 8   -919159.092 7  22116742.937 0  22116743.883 0
 -18224839.142 7 -14046464.081 6  20495926.126 0  20495926.236 0
 88  2 25  8 28 59.0800000  0  4  3 13 11  9
  -2450555.854 7  82726592.389 7  23664775.998 0  23664777.276 0
  -3602997.475 7  52927658.632 7  20770577.723 0  20770579.313 0
  -1393886.999 7   -869838.588 7  22128787.071 0  22128787.234 0
 -18169628.343 7 -14003442.674 6  20506432.016 0  20506431.554 0
 88  2 25  8 29 29.0800000  0  4  3 13 11  9
  -2520931.645 7  82671754.102 8  23651383.014 0  23651385.675 0
  -3605282.928 7  52925877.780 7  20770143.157 0  20770143.142 0
  -1330497.800 7   -820444.417 7  22140849.383 0  22140850.900 0
 -18113802.459 7 -13959941.994 7  20517056.071 0  20517056.126 0
 88  2 25  8 29 59.0800000  0  4  3 13 11  9
  -2591078.688 7  82617094.077 7  23638035.441 0  23638036.709 0
  -3607228.469 7  52924361.780 7  20769772.335 0  20769773.278 0
  -1267018.518 8   -770980.032 7  22152929.668 0  22152930.242 0
 -18057365.475 7 -13915965.133 7  20527795.765 0  20527795.475 0
 88  2 25  8 30 29.0800000  0  4  3 13 11  9
  -2660996.687 7  82562612.515 7  23624729.871 0  23624731.049 0
  -3608835.542 7  52923109.521 8  20769467.265 0  20769468.122 0
  -1203450.566 8   -721446.570 7  22165026.316 0  22165026.146 0
 -18000319.096 7 -13871513.394 6  20538650.501 0  20538650.530 0
 88  2 25  8 30 59.0800000  0  4  3 13 11  9
  -2730683.018 7  82508311.478 8  23611467.997 0  23611470.651 0
  -3610103.319 7  52922121.644 7  20769226.240 0  20769226.898 0
  -1139793.077 7   -671843.334 8  22177139.713 0  22177140.265 0
 -17942662.222 7 -13826585.969 6  20549623.006 0  20549622.107 0
 88  2 25  8 31 29.0800000  0  4  3 13 11  9
  -2800138.136 7  82454190.592 7  23598252.469 0  23598253.968 0
  -3611033.893 7  52921396.527 7  20769048.652 0  20769049.839 0
  -1076047.696 7   -622171.625 7  22189269.468 0  22189271.520 0
 -17884397.010 7 -13781184.524 6  20560709.903 0  20560710.058 0
 88  2 25  8 31 59.0800000  0  4  3 13 11  9
  -2869363.811 7  82400248.516 7  23585078.756 0  23585080.594 0
  -3611630.550 7  52920931.610 7  20768935.139 0  20768936.025 0
  -1012218.635 7   -572434.707 7  22201415.910 0  22201418.143 0
 -17825527.087 7 -13735311.849 7  20571912.124 0  20571911.584 0
 88  2 25  8 32 29.0800000  0  4  3 13 11  9
  -2938359.052 7  82346486.009 7  23571949.251 0  23571951.166 0
  -3611894.180 7  52920726.190 7  20768885.172 0  20768885.399 0
   -948306.221 7   -522632.844 7  22213577.994 0  22213579.375 0
 -17766054.001 7 -13688969.189 7  20583229.206 0  20583228.901 0
 88  2 25  8 32 59.0800000  0  4  3 13 11  9
  -3007122.934 7  82292903.761 7  23558864.948 0  23558865.747 0
  -3611824.965 7  52920780.122 7  20768897.765 0  20768898.680 0
   -884311.450 8   -472766.788 7  22225756.361 0  22225757.249 0
 -17705977.571 7 -13642156.394 6  20594662.152 0  20594662.771 0
 88  2 25  8 33 29.0800000  0  4  3 13 11  9
  -3075656.476 7  82239501.005 7  23545823.226 0  23545824.801 0
  -3611425.741 7  52921091.210 7  20768973.662 0  20768974.206 0
   -820236.759 8   -422838.463 7  22237949.053 0  22237949.975 0
 -17645300.846 7 -13594875.842 6  20606207.462 0  20606208.410 0
 88  2 25  8 33 59.0800000  0  4  3 13 11  9
  -3143959.852 7  82186277.613 7  23532826.073 0  23532825.895 0
  -3610697.961 8  52921658.331 7  20769112.863 0  20769113.006 0
   -756083.969 8   -372849.266 7  22250157.469 0  22250158.016 0
 -17584026.058 7 -13547129.262 7  20617868.640 0  20617868.850 0
 88  2 25  8 34 29.0800000  0  4  3 13 11  9
  -3212032.702 7  82133233.829 7  23519872.460 0  23519872.556 0
  -3609643.190 8  52922480.240 7  20769313.179 0  20769314.652 0
   -691854.051 8   -322799.987 7  22262379.996 0  22262380.984 0
 -17522154.544 6 -13498917.700 6  20629642.390 0  20629643.500 0
 88  2 25  8 34 59.0800000  0  4  3 13 11  9
  -3279875.671 8  82080369.165 7  23506961.394 0  23506963.426 0
  -3608263.827 7  52923555.076 7  20769575.626 0  20769576.138 0
   -627549.233 8   -272692.335 7  22274617.295 0  22274617.983 0
 -17459688.922 7 -13450243.191 7  20641528.414 0  20641528.986 0
 88  2 25  8 35 29.0800000  0  4  3 13 11  9
  -3347488.171 6  82027684.102 7  23494095.386 0  23494096.531 0
  -3606560.306 7  52924882.502 7  20769899.328 0  20769900.701 0
   -563170.746 8   -222527.280 7  22286866.880 0  22286868.786 0
 -17396630.643 7 -13401106.876 6  20653528.188 0  20653528.813 0
 88  2 25  8 35 59.0800000  0  4  3 13 11  9
  -3414868.751 7  81975179.756 7  23481272.194 0  23481275.476 0
  -3604532.904 7  52926462.318 7  20770285.964 0  20770286.878 0
   -498718.728 8   -172304.919 7  22299132.513 0  22299133.317 0
 -17332979.909 7 -13351508.910 7  20665640.710 0  20665640.109 0
 88  2 25  8 36 29.0800000  0  4  3 13 11  9
  -3482020.177 7  81922853.980 7  23468493.942 0  23468495.944 0
  -3602186.202 7  52928290.919 7  20770731.925 0  20770733.557 0
   -434197.322 8   -122028.488 7  22311410.658 0  22311410.902 0
 -17268741.188 7 -13301452.780 7  20677864.905 0  20677865.243 0
 88  2 25  8 36 59.0800000  0  4  3 13 11  9
  -3548941.799 7  81870707.260 7  23455760.491 0  23455761.523 0
  -3599520.813 7  52930367.850 7  20771238.915 0  20771240.047 0
   -369607.436 8    -71698.708 7  22323701.539 0  22323701.847 0
 -17203916.045 7 -13250939.680 7  20690202.037 0  20690202.049 0
 88  2 25  8 37 29.0800000  0  4  3 13 11  9
  -3615632.002 7  81818740.879 7  23443068.749 0  23443069.979 0
  -3596536.883 7  52932693.004 7  20771807.835 0  20771808.952 0
   -304948.900 7    -21315.439 7  22336005.834 0  22336006.202 0
 -17138504.446 7 -13199969.607 6  20702647.862 0  20702648.198 0
 88  2 25  8 37 59.0800000  0  4  3 13 11  9
  -3682093.374 8  81766952.798 6  23430422.336 0  23430423.432 0
  -3593238.531 7  52935263.145 7  20772435.928 0  20772436.124 0
   -240225.271 8     29118.557 7  22348322.051 0  22348321.670 0
 -17072511.022 7 -13148546.177 7  20715205.993 0  20715206.307 0
 88  2 25  8 38 29.0800000  0  4  3 13 11  9
  -3748325.147 7  81715343.625 7  23417818.046 0  23417819.638 0
  -3589626.513 7  52938077.704 7  20773122.096 0  20773122.767 0
   -175438.100 7     79602.077 7  22360650.920 0  22360650.637 0
 -17005937.610 7 -13096670.796 7  20727875.494 0  20727875.526 0
 88  2 25  8 38 59.0800000  0  4  3 13 11  9
  -3814326.834 7  81663913.733 7  23405259.084 0  23405260.249 0
  -3585701.586 7  52941136.095 7  20773868.450 0  20773869.307 0
   -110588.039 8    130134.587 7  22372991.192 0  22372991.985 0
 -16938785.287 7 -13044344.318 7  20740654.498 0  20740654.585 0
 88  2 25  8 39 29.0800000  0  4  3 13 11  9
  -3880097.458 8  81612663.896 6  23392743.127 0  23392744.329 0
  -3581464.478 7  52944437.742 7  20774675.447 0  20774676.290 0
    -45675.095 8    180716.103 7  22385343.108 0  22385344.081 0
 -16871054.719 8 -12991567.255 7  20753542.394 0  20753542.651 0
 88  2 25  8 39 59.0800000  0  4  3 13 11  9
  -3945638.807 7  81561592.717 7  23380271.480 0  23380271.887 0
  -3576918.252 7  52947980.258 6  20775540.280 0  20775541.168 0
     19297.254 8    231343.907 7  22397707.281 0  22397708.396 0
 -16802750.324 7 -12938343.063 7  20766540.839 0  20766540.203 0
 88  2 25  8 40 29.0800000  0  4  3 13 11  9
  -4010950.040 8  81510700.842 7  23367842.449 0  23367843.379 0
  -3572063.831 7  52951762.930 7  20776463.883 0  20776465.685 0
     84328.598 7    282017.663 7  22410081.992 0  22410083.595 0
 -16733873.351 7 -12884672.702 6  20779646.693 0  20779648.459 0
 88  2 25  8 40 59.0800000  0  4  3 13 11  9
  -4076031.971 8  81459987.661 6  23355458.555 0  23355458.694 0
  -3566903.788 7  52955783.766 7  20777445.681 0  20777446.352 0
    149416.943 8    332735.855 7  22422467.908 0  22422467.873 0
 -16664426.065 7 -12830557.934 7  20792862.078 0  20792862.468 0
 88  2 25  8 41 29.0800000  0  4  3 13 11  9
  -4140885.134 8  81409452.730 6  23343116.708 0  23343117.811 0
  -3561439.862 8  52960041.385 6  20778486.175 0  20778486.488 0
    214560.302 7    383496.912 7  22434863.767 0  22434865.986 0
 -16594411.316 7 -12776000.992 7  20806186.205 0  20806185.859 0
 88  2 25  8 41 59.0800000  0  4  3 13 11  9
  -4205508.865 7  81359096.572 7  23330818.514 0  23330820.725 0
  -3555673.257 8  52964534.845 7  20779583.326 0  20779584.059 0
    279758.095 7    434300.389 7  22447271.533 0  22447272.357 0
 -16523830.566 7 -12721003.004 7  20819617.168 0  20819618.039 0
 88  2 25  8 42 29.0800000  0  4  3 13 11  9
  -4269903.507 7  81308918.947 7  23318564.694 0  23318565.743 0
  -3549605.530 7  52969262.952 6  20780738.112 0  20780739.885 0
    345008.435 8    485144.802 7  22459687.877 0  22459689.378 0
 -16452686.015 7 -12665565.694 7  20833154.669 0  20833155.583 0
 88  2 25  8 42 59.0800000  0  4  3 13 11  9
  -4334069.963 8  81258919.111 7  23306355.023 0  23306355.720 0
  -3543239.298 8  52974223.657 6  20781948.984 0  20781950.516 0
    410309.123 8    536028.459 7  22472114.416 0  22472115.145 0
 -16380981.013 7 -12609691.679 7  20846800.001 0  20846800.285 0
 88  2 25  8 43 29.0800000  0  4  3 13 11  9
  -4398006.942 7  81209098.091 7  23294188.719 0  23294189.528 0
  -3536574.531 8  52979416.992 7  20783217.768 0  20783217.796 0
    475660.585 8    586951.667 7  22484549.812 0  22484551.638 0
 -16308716.098 8 -12553381.354 7  20860552.538 0  20860552.410 0
 88  2 25  8 43 59.0800000  0  4  3 13 11  9
  -4461714.647 7  81159455.739 6  23282064.490 0  23282065.270 0
  -3529612.874 7  52984841.670 7  20784542.690 0  20784542.933 0
    541061.388 7    637913.327 7  22496995.663 0  22496996.671 0
 -16235893.699 8 -12496636.637 7  20874409.649 0  20874409.778 0
 88  2 25  8 44 29.0800000  0  4  3 13 11  9
  -4525195.370 7  81109990.242 8  23269984.612 0  23269986.136 0
  -3522357.527 7  52990495.189 7  20785923.098 0  20785924.117 0
    606508.136 8    688910.800 7  22509450.033 0  22509450.333 0
 -16162518.132 8 -12439460.866 6  20888372.848 0  20888372.045 0
 88  2 25  8 44 59.0800000  0  4  3 13 11  9
  -4588448.052 7  81060702.461 7  23257947.637 0  23257950.142 0
  -3514809.822 7  52996376.520 7  20787359.213 0  20787360.682 0
    672000.429 8    739943.749 7  22521913.360 0  22521913.575 0
 -16088590.747 8 -12381855.112 7  20902441.361 0  20902440.416 0
 88  2 25  8 45 29.0800000  0  4  3 13 11  9
  -4651472.235 7  81011592.725 7  23245954.111 0  23245956.868 0
  -3506970.705 7  53002484.923 7  20788850.315 0  20788852.060 0
    737537.667 8    791011.742 7  22534384.344 0  22534385.196 0
 -16014113.174 7 -12323820.656 6  20916612.186 0  20916612.755 0
 88  2 25  8 45 59.0800000  0  4  3 13 11  9
  -4714268.743 7  80962660.399 7  23234004.416 0  23234006.884 0
  -3498842.273 7  53008818.782 7  20790397.995 0  20790399.259 0
    803117.671 8    842113.032 6  22546863.869 0  22546864.485 0
 -15939088.433 7 -12265359.826 6  20930889.471 0  20930890.686 0
 88  2 25  8 46 29.0800000  0  4  3 13 11  9
  -4776837.772 7  80913905.327 8  23222097.896 0  23222100.170 0
  -3490426.134 7  53015376.810 7  20791999.709 0  20791999.154 0
    868739.255 7    893246.747 7  22559351.667 0  22559352.434 0
 -15863518.776 8 -12206474.381 7  20945270.839 0  20945270.366 0
 88  2 25  8 46 59.0800000  0  4  3 13 11  9
  -4839179.669 7  80865327.243 8  23210235.102 0  23210237.196 0
  -3481723.855 7  53022157.821 7  20793655.899 0  20793656.710 0
    934401.152 8    944411.860 7  22571846.274 0  22571847.018 0
 -15787406.815 7 -12147166.373 6  20959754.321 0  20959753.216 0
 88  2 25  8 47 29.0800000  0  4  3 13 11  9
  -4901294.301 7  80816926.246 8  23198415.356 0  23198417.573 0
  -3472736.541 7  53029160.917 7  20795364.788 0  20795366.090 0
   1000102.242 8    995607.510 7  22584348.674 0  22584349.905 0
 -15710754.477 8 -12087437.285 7  20974339.996 0  20974339.880 0
 88  2 25  8 47 59.0800000  0  4  3 13 11  9
  -4963183.341 7  80768701.019 7  23186638.678 0  23186639.883 0
  -3463467.909 7  53036383.235 7  20797129.880 0  20797130.351 0
   1065840.255 8   1046831.942 7  22596858.113 0  22596858.427 0
 -15633565.654 7 -12027290.150 6  20989029.703 0  20989028.612 0
 88  2 25  8 48 29.0800000  0  4  3 13 11  9
  -5024845.068 7  80720652.940 7  23174904.285 0  23174906.615 0
  -3453917.735 8  53043824.935 7  20798946.861 0  20798947.843 0
   1131615.731 7   1098085.553 7  22609374.842 0  22609374.972 0
 -15555840.889 7 -11966725.391 6  21003819.513 0  21003819.712 0
 88  2 25  8 48 59.0800000  0  4  3 13 11  9
  -5086280.510 7  80672781.184 7  23163214.168 0  23163216.267 0
  -3444087.725 7  53051484.691 7  20800816.545 0  20800817.258 0
   1197426.328 8   1149366.539 7  22621898.140 0  22621899.194 0
 -15477583.295 7 -11905745.457 7  21018711.379 0  21018711.277 0
 88  2 25  8 49 29.0800000  0  4  3 13 11  9
  -5147490.395 7  80625085.189 7  23151565.802 0  23151567.736 0
  -3433979.899 8  53059360.915 7  20802740.577 0  20802741.177 0
   1263270.320 7   1200673.546 6  22634427.370 0  22634428.265 0
 -15398796.079 8 -11844352.816 7  21033703.522 0  21033703.176 0
 88  2 25  8 49 59.0800000  0  4  3 13 11  9
  -5208474.434 7  80577565.173 8  23139962.178 0  23139962.590 0
  -3423595.951 8  53067452.308 7  20804716.528 0  20804718.066 0
   1329146.954 8   1252005.984 7  22646963.703 0  22646964.220 0
 -15319481.350 7 -11782549.140 7  21048796.972 0  21048797.000 0
 88  2 25  8 50 29.0800000  0  4  3 13 11  9
  -5269233.039 7  80530220.825 7  23128398.789 0  23128400.435 0
  -3412938.152 7  53075757.086 6  20806745.709 0  20806744.689 0
   1395054.936 8   1303362.855 7  22659505.525 0  22659506.705 0
 -15239641.675 7 -11720336.397 6  21063990.046 0  21063990.376 0
 88  2 25  8 50 59.0800000  0  4  3 13 11  9
  -5329766.404 7  80483051.992 7  23116880.380 0  23116881.954 0
  -3402007.556 7  53084274.444 6  20808824.857 0  20808825.459 0
   1460992.907 7   1354743.090 7  22672052.769 0  22672053.399 0
 -15159279.535 7 -11657716.556 7  21079282.025 0  21079281.493 0
 88  2 25  8 51 29.0800000  0  4  3 13 11  9
  -5390074.701 7  80436058.525 7  23105403.443 0  23105405.504 0
  -3390806.075 7  53093002.881 7  20810956.599 0  20810957.538 0
   1526959.502 8   1406145.630 8  22684605.800 0  22684606.035 0
 -15078397.692 7 -11594691.751 7  21094673.308 0  21094674.208 0
 88  2 25  8 51 59.0800000  0  4  3 13 11  9
  -5450158.866 7  80389239.719 7  23093970.189 0  23093971.083 0
  -3379335.780 8  53101940.777 7  20813138.945 0  20813139.261 0
   1592953.195 8   1457569.277 7  22697164.415 0  22697165.509 0
 -14996999.542 7 -11531264.614 6  21110163.954 0  21110162.765 0
 88  2 25  8 52 29.0800000  0  4  3 13 11  9
  -5510018.707 8  80342595.710 8  23082579.623 0  23082580.316 0
  -3367597.433 7  53111087.544 7  20815373.114 0  20815373.466 0
   1658973.492 7   1509013.669 7  22709727.361 0  22709728.049 0
 -14915086.454 7 -11467436.247 6  21125751.447 0  21125750.930 0
 88  2 25  8 52 59.0800000  0  4  3 13 11  9
  -5569654.051 7  80296126.620 7  23071230.785 0  23071231.961 0
  -3355592.417 7  53120442.112 7  20817656.780 0  20817658.228 0
   1725019.811 7   1560478.330 7  22722295.754 0  22722296.715 0
 -14832660.827 7 -11403208.503 6  21141436.470 0  21141436.383 0
 88  2 25  8 53 29.0800000  0  4  3 13 11  9
  -5629065.393 8  80249832.086 8  23059925.089 0  23059926.732 0
  -3343322.599 7  53130003.006 7  20819991.759 0  20819992.054 0
   1791090.514 7   1611961.986 7  22734868.785 0  22734868.763 0
 -14749725.693 7 -11338583.714 7  21157218.280 0  21157217.377 0
 88  2 25  8 53 59.0800000  0  4  3 13 11  9
  -5688254.599 7  80203710.642 7  23048662.090 0  23048662.700 0
  -3330791.423 7  53139767.574 6  20822375.990 0  20822377.406 0
   1857182.590 8   1663462.295 7  22747445.764 0  22747445.693 0
 -14666285.229 7 -11273565.177 7  21173096.648 0  21173094.701 0
 88  2 25  8 54 29.0800000  0  4  3 13 11  9
  -5747221.517 7  80157762.423 7  23037440.736 0  23037442.756 0
  -3317999.673 8  53149735.170 7  20824811.315 0  20824811.425 0
   1923296.091 8   1714979.311 7  22760026.591 0  22760027.365 0
 -14582341.426 8 -11208154.427 6  21189070.575 0  21189069.415 0
 88  2 25  8 54 59.0800000  0  4  3 13 11  9
  -5805965.622 7  80111987.820 7  23026263.548 0  23026263.601 0
  -3304948.201 7  53159905.147 6  20827294.824 0  20827295.520 0
   1989430.752 8   1766512.804 7  22772611.491 0  22772612.478 0
 -14497895.891 8 -11142352.703 6  21205139.914 0  21205139.296 0
 88  2 25  8 55 29.0800000  0  4  3 13 11  9
  -5864487.314 8  80066386.517 7  23015126.188 0  23015126.718 0
  -3291639.275 8  53170275.748 7  20829826.732 0  20829827.917 0
   2055584.541 7   1818061.205 7  22785200.668 0  22785200.567 0
 -14412952.184 8 -11076162.815 7  21221303.549 0  21221302.605 0
 88  2 25  8 55 59.0800000  0  4  3 13 11  9
  -5922788.605 7  80020956.962 7  23004031.556 0  23004032.559 0
  -3278075.108 7  53180845.228 7  20832408.454 0  20832409.238 0
   2121755.351 7   1869622.881 7  22797791.733 0  22797792.801 0
 -14327514.056 7 -11009587.658 7  21237562.057 0  21237562.943 0
 88  2 25  8 56 29.0800000  0  4  3 13 11  9
  -5980867.623 7  79975700.609 7  22992979.970 0  22992979.647 0
  -3264256.123 8  53191613.289 7  20835038.946 0  20835038.631 0
   2187944.204 7   1921198.608 7  22810386.793 0  22810388.296 0
 -14241582.698 7 -10942628.147 6  21253915.003 0  21253914.256 0
 88  2 25  8 56 59.0800000  0  4  3 13 11  9
  -6038726.129 7  79930616.093 8  22981970.182 0  22981970.207 0
  -3250185.408 8  53202577.485 6  20837715.342 0  20837717.226 0
   2254148.780 7   1972786.585 7  22822985.365 0  22822987.310 0
 -14155161.751 8 -10875287.165 7  21270359.903 0  21270359.242 0
 88  2 25  8 57 29.0800000  0  4  3 13 11  9
  -6096363.479 7  79885703.908 7  22971001.336 0  22971002.992 0
  -3235863.127 7  53213737.712 7  20840441.431 0  20840441.363 0
   2320368.559 8   2024386.391 7  22835586.904 0  22835587.855 0
 -14068253.324 8 -10807566.317 7  21286898.010 0  21286897.967 0
 88  2 25  8 57 59.0800000  0  4  3 13 11  9
  -6153780.118 7  79840963.680 7  22960075.728 0  22960076.301 0
  -3221290.644 7  53225092.892 7  20843214.089 0  20843214.897 0
   2386602.701 8   2075997.421 7  22848191.020 0  22848191.658 0
 -13980859.614 8 -10739467.335 7  21303528.785 0  21303528.440 0
 88  2 25  8 58 29.0800000  0  4  3 13 11  9
  -6210977.493 7  79796394.329 7  22949191.089 0  22949191.772 0
  -3206471.282 7  53236640.446 7  20846033.840 0  20846034.820 0
   2452849.176 7   2127618.051 7  22860796.745 0  22860798.155 0
 -13892984.868 7 -10670993.508 7  21320249.822 0  21320250.566 0
 88  2 25  8 58 59.0800000  0  4  3 13 11  9
  -6267956.912 7  79751994.824 7  22938348.658 0  22938348.704 0
  -3191407.047 7  53248378.823 7  20848901.185 0  20848901.428 0
   2519106.117 8   2179246.844 7  22873405.019 0  22873406.108 0
 -13804632.745 7 -10602147.710 6  21337063.411 0  21337063.596 0
 88  2 25  8 59 29.0800000  0  4  3 13 11  9
  -6324717.888 7  79707765.532 7  22927545.983 0  22927547.202 0
  -3176098.677 7  53260307.429 7  20851813.866 0  20851814.920 0
   2585373.410 7   2230883.684 7  22886015.281 0  22886016.403 0
 -13715805.201 7 -10532931.455 7  21353966.891 0  21353967.090 0
 88  2 25  8 59 59.0800000  0  4  3 13 11  9
  -6381259.441 7  79663707.217 7  22916787.298 0  22916788.651 0
  -3160546.596 7  53272425.949 7  20854773.476 0  20854773.685 0
   2651650.684 8   2282528.311 8  22898627.717 0  22898629.128 0
 -13626504.163 7 -10463346.237 7  21370960.776 0  21370961.060 0
 88  2 25  9  0 29.0800000  0  4  3 13 11  9
  -6437583.451 7  79619818.408 7  22906069.079 0  22906069.703 0
  -3144754.101 7  53284731.790 6  20857778.749 0  20857779.153 0
   2717936.030 7   2334179.218 7  22911241.362 0  22911241.743 0
 -13536733.354 8 -10393394.966 7  21388043.177 0  21388042.887 0
 88  2 25  9  0 59.0800000  0  4  3 13 11  9
  -6493690.286 7  79576098.819 7  22895391.956 0  22895392.778 0
  -3128723.161 8  53297223.438 7  20860829.915 0  20860830.582 0
   2784228.643 7   2385835.807 7  22923857.105 0  22923857.042 0
 -13446496.027 8 -10323080.165 7  21405215.011 0  21405214.107 0
 88  2 25  9  1 29.0800000  0  4  3 13 11  9
  -6549579.531 7  79532548.812 7  22884756.637 0  22884757.767 0
  -3112454.434 7  53309900.371 7  20863924.804 0  20863925.394 0
   2850527.930 7   2437497.587 7  22936472.991 0  22936473.716 0
 -13355794.284 8 -10252403.504 7  21422474.675 0  21422474.057 0
 88  2 25  9  1 59.0800000  0  4  3 13 11  9
  -6605251.815 7  79489167.851 7  22874162.442 0  22874163.288 0
  -3095949.760 7  53322761.157 7  20867065.676 0  20867066.376 0
   2916833.066 8   2489163.920 7  22949090.700 0  22949091.802 0
 -13264631.144 8 -10181367.292 6  21439822.167 0  21439822.553 0
 88  2 25  9  2 29.0800000  0  4  3 13 11  9
  -6660707.449 7  79445955.704 7  22863610.144 0  22863610.772 0
  -3079210.301 7  53335804.896 6  20870251.204 0  20870251.010 0
   2983142.941 7   2540833.957 7  22961708.280 0  22961708.641 0
 -13173009.328 7 -10109973.691 7  21457257.519 0  21457257.832 0
 88  2 25  9  2 59.0800000  0  4  3 13 11  9
  -6715948.079 7  79402911.104 7  22853098.088 0  22853098.313 0
  -3062238.609 8  53349029.595 7  20873481.217 0  20873481.365 0
   3049455.580 7   2592506.143 7  22974328.087 0  22974328.352 0
 -13080932.625 8 -10038225.608 7  21474778.954 0  21474778.854 0
 88  2 25  9  3 29.0800000  0  4  3 13 11  9
  -6770973.876 8  79360033.883 7  22842626.768 0  22842627.734 0
  -3045036.323 8  53362433.980 6  20876753.999 0  20876753.559 0
   3115770.245 7   2644179.901 7  22986946.956 0  22986948.253 0
 -12988404.343 7  -9966125.660 7  21492385.789 0  21492387.087 0
 88  2 25  9  3 59.0800000  0  4  3 13 11  9
  -6825784.268 7  79317324.520 7  22832196.880 0  22832196.731 0
  -3027604.316 7  53376017.364 7  20880071.465 0  20880071.250 0
   3182087.137 7   2695855.396 6  22999566.461 0  22999566.978 0
 -12895426.149 8  -9893675.120 7  21510079.965 0  21510080.248 0
 88  2 25  9  4 29.0800000  0  4  3 13 11  9
  -6880380.791 7  79274781.812 7  22821806.832 0  22821808.380 0
  -3009944.597 7  53389778.185 7  20883431.789 0  20883431.618 0
   3248404.446 7   2747531.227 7  23012186.340 0  23012186.582 0
 -12802001.607 7  -9820876.779 7  21527858.078 0  21527857.777 0
 88  2 25  9  4 59.0800000  0  4  3 13 11  9
  -6934763.873 7  79232405.416 7  22811458.424 0  22811459.418 0
  -2992059.970 8  53403714.265 7  20886835.247 0  20886835.972 0
   3314720.994 8   2799206.457 7  23024806.096 0  23024806.504 0
 -12708134.583 7  -9747733.658 7  21545720.531 0  21545720.129 0
 88  2 25  9  5 29.0800000  0  4  3 13 11  9
  -6988933.821 7  79190195.071 7  22801150.507 0  22801151.425 0
  -2973951.036 8  53417825.124 7  20890281.284 0  20890282.099 0
   3381036.241 7   2850880.679 7  23037425.809 0  23037425.629 0
 -12613827.704 7  -9674247.775 6  21563666.034 0  21563666.806 0
 88  2 25  9  5 59.0800000  0  4  3 13 11  9
  -7042890.934 8  79148150.601 8  22790882.251 0  22790883.352 0
  -2955619.037 7  53432109.809 7  20893770.459 0  20893770.162 0
   3447349.668 7   2902553.474 7  23050044.069 0  23050044.757 0
 -12519083.530 8  -9600421.152 7  21581695.761 0  21581695.774 0
 88  2 25  9  6 29.0800000  0  4  3 13 11  9
  -7096635.567 7  79106271.688 7  22780654.760 0  22780656.825 0
  -2937066.285 8  53446566.507 7  20897300.525 0  20897300.691 0
   3513659.838 7   2954223.737 7  23062662.716 0  23062663.941 0
 -12423905.079 8  -9526256.143 7  21599807.537 0  21599808.022 0
 88  2 25  9  6 59.0800000  0  4  3 13 11  9
  -7150169.045 7  79064557.317 7  22770468.454 0  22770469.825 0
  -2918294.709 8  53461193.709 7  20900871.938 0  20900873.204 0
   3579965.539 7   3005890.505 7  23075280.655 0  23075281.114 0
 -12328296.214 7  -9451755.727 8  21618001.247 0  21618000.171 0
 88  2 25  9  7 29.0800000  0  4  3 13 11  9
  -7203490.412 8  79023008.225 7  22760322.072 0  22760322.622 0
  -2899304.140 8  53475991.540 6  20904485.690 0  20904486.218 0
   3646267.287 7   3057554.201 7  23087897.528 0  23087897.650 0
 -12232258.633 7  -9376921.263 7  21636275.917 0  21636276.389 0
 88  2 25  9  7 59.0800000  0  4  3 13 11  9
  -7256601.474 7  78981623.000 7  22750215.391 0  22750216.085 0
  -2880097.320 8  53490957.906 7  20908141.585 0  20908140.801 0
   3712563.202 7   3109213.365 7  23100512.970 0  23100513.120 0
 -12135796.406 7  -9301755.893 7  21654631.808 0  21654632.466 0
 88  2 25  9  8 29.0800000  0  4  3 13 11  9
  -7309503.045 8  78940401.031 8  22740148.441 0  22740148.356 0
  -2860675.868 8  53506091.512 7  20911837.071 0  20911837.105 0
   3778852.419 7   3160867.298 7  23113127.639 0  23113127.531 0
 -12038912.694 8  -9226262.097 7  21673068.977 0  21673069.032 0
 88  2 25  9  8 59.0800000  0  4  3 13 11  9
  -7362195.546 7  78899341.973 7  22730120.849 0  22730121.960 0
  -2841042.180 7  53521390.492 6  20915572.914 0  20915572.856 0
   3845133.277 7   3212514.717 7  23125740.325 0  23125741.019 0
 -11941611.040 8  -9150442.630 7  21691584.929 0  21691584.784 0
 88  2 25  9  9 29.0800000  0  4  3 13 11  9
  -7414679.174 7  78858445.663 7  22720133.720 0  22720134.542 0
  -2821197.115 7  53536854.184 7  20919349.453 0  20919349.322 0
   3911406.046 7   3264155.824 8  23138351.024 0  23138352.964 0
 -11843893.984 7  -9074299.496 7  21710180.042 0  21710179.196 0
 88  2 25  9  9 59.0800000  0  4  3 13 11  9
  -7466954.661 7  78817711.543 7  22710185.843 0  22710186.906 0
  -2801142.792 7  53552480.941 7  20923166.269 0  20923165.692 0
   3977669.388 7   3315789.597 7  23150961.433 0  23150962.258 0
 -11745764.691 7  -8997835.115 7  21728852.994 0  21728853.409 0
 88  2 25  9 10 29.0800000  0  4  3 13 11  9
  -7519021.344 7  78777140.143 8  22700278.681 0  22700278.324 0
  -2780879.814 8  53568270.263 7  20927021.388 0  20927021.056 0
   4043923.806 6   3367416.408 7  23163568.321 0  23163569.994 0
 -11647225.393 7  -8921051.260 7  21747603.647 0  21747604.905 0
 88  2 25  9 10 59.0800000  0  4  3 13 11  9
  -7570880.482 7  78736730.447 7  22690409.288 0  22690409.854 0
  -2760410.484 8  53584220.409 7  20930916.905 0  20930917.137 0
   4110167.282 7   3419034.706 7  23176174.640 0  23176175.248 0
 -11548280.180 7  -8843951.104 7  21766432.858 0  21766432.897 0
 88  2 25  9 11 29.0800000  0  4  3 13 11  9
  -7622534.175 7  78696480.841 7  22680580.802 0  22680580.437 0
  -2739736.962 7  53600329.660 7  20934851.187 0  20934851.071 0
   4176397.961 7   3470643.025 7  23188777.287 0  23188779.071 0
 -11448933.521 7  -8766538.123 7  21785338.135 0  21785337.589 0
 88  2 25  9 11 59.0800000  0  4  3 13 11  9
  -7673981.198 7  78656392.275 7  22670790.126 0  22670790.566 0
  -2718859.443 7  53616597.853 6  20938823.791 0  20938823.532 0
   4242616.942 7   3522242.216 8  23201378.744 0  23201379.444 0
 -11349186.629 8  -8688813.283 6  21804318.735 0  21804318.890 0
 88  2 25  9 12 29.0800000  0  4  3 13 11  9
  -7725222.394 7  78616464.095 7  22661038.215 0  22661039.832 0
  -2697779.618 7  53633023.688 6  20942834.011 0  20942834.933 0
   4308823.289 7   3573831.575 8  23213977.457 0  23213978.890 0
 -11249042.775 8  -8610779.124 7  21823375.348 0  21823376.147 0
 88  2 25  9 12 59.0800000  0  4  3 13 11  9
  -7776259.093 8  78576695.265 7  22651327.600 0  22651328.294 0
  -2676499.777 7  53649605.376 7  20946883.992 0  20946885.252 0
   4375015.611 7   3625410.008 7  23226573.704 0  23226574.405 0
 -11148505.982 7  -8532438.784 7  21842507.656 0  21842507.840 0
 88  2 25  9 13 29.0800000  0  4  3 13 11  9
  -7827090.931 7  78537086.068 7  22641654.108 0  22641654.756 0
  -2655021.291 7  53666341.870 7  20950971.475 0  20950971.594 0
   4441193.534 7   3676977.204 8  23239166.136 0  23239167.031 0
 -11047578.839 7  -8453794.267 7  21861713.254 0  21861713.223 0
 88  2 25  9 13 59.0800000  0  4  3 13 11  9
  -7877720.321 8  78497634.614 7  22632019.369 0  22632019.412 0
  -2633347.610 7  53683230.451 7  20955096.121 0  20955096.613 0
   4507354.585 7   3728531.267 7  23251756.720 0  23251757.125 0
 -10946266.306 7  -8374849.448 6  21880992.545 0  21880992.688 0
 88  2 25  9 14 29.0800000  0  4  3 13 11  9
  -7928146.334 7  78458341.645 7  22622423.567 0  22622425.107 0
  -2611478.088 7  53700271.638 6  20959257.218 0  20959258.045 0
   4573499.937 7   3780073.090 7  23264343.196 0  23264343.911 0
 -10844570.276 7  -8295605.800 7  21900345.099 0  21900345.015 0
 88  2 25  9 14 59.0800000  0  4  3 13 11  9
  -7978368.272 7  78419207.701 7  22612867.021 0  22612867.579 0
  -2589413.614 7  53717464.737 6  20963455.953 0  20963456.622 0
   4639629.934 7   3831602.955 7  23276927.515 0  23276928.916 0
 -10742492.666 7  -8216064.807 7  21919769.000 0  21919769.126 0
 88  2 25  9 15 29.0800000  0  4  3 13 11  9
  -8028387.564 7  78380231.652 7  22603348.404 0  22603349.130 0
  -2567156.204 8  53734808.176 7  20967691.021 0  20967691.422 0
   4705742.877 7   3883119.540 7  23289507.969 0  23289509.210 0
 -10640037.419 7  -8136229.558 7  21939266.047 0  21939265.845 0
 88  2 25  9 15 59.0800000  0  4  3 13 11  9
  -8078207.818 7  78341410.698 7  22593869.062 0  22593868.861 0
  -2544710.193 7  53752298.583 7  20971962.412 0  20971962.509 0
   4771835.742 6   3934620.466 8  23302085.013 0  23302086.059 0
 -10537210.296 8  -8056104.538 7  21958833.527 0  21958833.925 0
 88  2 25  9 16 29.0800000  0  4  3 13 11  9
  -8127827.994 8  78302745.654 6  22584426.054 0  22584426.069 0
  -2522075.105 8  53769936.303 7  20976270.651 0  20976269.652 0
   4837909.500 7   3986106.511 7  23314657.785 0  23314659.573 0
 -10434012.636 7  -7975690.781 7  21978472.406 0  21978471.203 0
 88  2 25  9 16 59.0800000  0  4  3 13 11  9
  -8177247.309 8  78264237.118 7  22575021.444 0  22575022.268 0
  -2499252.007 8  53787720.547 7  20980613.651 0  20980613.042 0
   4903964.527 7   4037577.951 7  23327228.294 0  23327230.207 0
 -10330446.985 8  -7894990.277 7  21998179.915 0  21998179.513 0
 88  2 25  9 17 29.0800000  0  4  3 13 11  9
  -8226465.842 7  78225885.036 7  22565655.276 0  22565656.397 0
  -2476241.672 8  53805650.670 6  20984992.612 0  20984992.558 0
   4970000.622 7   4089034.644 7  23339794.328 0  23339795.923 0
 -10226516.099 7  -7814005.183 7  22017956.508 0  22017956.493 0
 88  2 25  9 17 59.0800000  0  4  3 13 11  9
  -8275485.597 7  78187687.844 7  22556327.167 0  22556326.963 0
  -2453046.710 7  53823724.683 7  20989405.796 0  20989407.033 0
   5036015.785 6   4140475.022 7  23352357.290 0  23352358.815 0
 -10122224.708 7  -7732739.171 6  22037802.673 0  22037802.570 0
 88  2 25  9 18 29.0800000  0  4  3 13 11  9
  -8324308.235 7  78149644.259 7  22547036.490 0  22547037.259 0
  -2429668.915 8  53841941.154 7  20993854.095 0  20993855.313 0
   5102008.844 7   4191898.174 7  23364914.844 0  23364916.670 0
 -10017576.642 7  -7651195.229 7  22057716.947 0  22057716.103 0
 88  2 25  9 18 59.0800000  0  4  3 13 11  9
  -8372933.025 8  78111754.822 7  22537783.962 0  22537785.201 0
  -2406108.807 7  53860299.684 7  20998337.960 0  20998338.131 0
   5167980.285 7   4243304.491 7  23377469.686 0  23377470.560 0
  -9912574.137 7  -7569375.104 7  22077698.105 0  22077697.546 0
 88  2 25  9 19 29.0800000  0  4  3 13 11  9
  -8421361.567 8  78074018.336 7  22528568.654 0  22528568.833 0
  -2382369.483 8  53878797.860 7  21002854.953 0  21002856.106 0
   5233928.146 7   4294692.427 7  23390018.891 0  23390019.765 0
  -9807221.322 7  -7487282.002 7  22097746.086 0  22097746.344 0
 88  2 25  9 19 59.0800000  0  4  3 13 11  9
  -8469594.294 7  78036434.412 7  22519390.129 0  22519389.476 0
  -2358451.869 8  53897434.957 7  21007406.220 0  21007407.250 0
   5299852.441 7   4346061.998 7  23402564.145 0  23402564.467 0
  -9701521.063 7  -7404918.176 7  22117860.062 0  22117860.388 0
 88  2 25  9 20 29.0800000  0  4  3 13 11  9
  -8517630.642 8  77999003.504 7  22510248.972 0  22510249.015 0
  -2334356.275 8  53916210.745 7  21011991.950 0  21011993.543 0
   5365753.546 7   4397413.506 8  23415103.683 0  23415105.754 0
  -9595475.644 7  -7322285.397 7  22138039.457 0  22138039.685 0
 88  2 25  9 20 59.0800000  0  4  3 13 11  9
  -8565472.468 7  77961724.191 7  22501144.588 0  22501145.327 0
  -2310084.908 8  53935123.501 6  21016610.538 0  21016611.355 0
   5431630.268 7   4448746.020 7  23427639.959 0  23427641.005 0
  -9489089.515 8  -7239387.128 7  22158284.592 0  22158284.819 0
 88  2 25  9 21 29.0800000  0  4  3 13 11  9
  -8613119.917 7  77924596.322 7  22492077.221 0  22492078.481 0
  -2285639.672 8  53954171.740 7  21021262.342 0  21021263.264 0
   5497481.716 7   4500058.822 7  23440171.650 0  23440173.046 0
  -9382365.749 7  -7156225.754 7  22178593.114 0  22178593.627 0
 88  2 25  9 21 59.0800000  0  4  3 13 11  9
  -8660573.867 8  77887619.231 7  22483047.462 0  22483047.232 0
  -2261022.044 7  53973354.320 6  21025947.576 0  21025946.891 0
   5563307.256 7   4551351.444 7  23452697.581 0  23452698.712 0
  -9275308.080 7  -7072804.215 7  22198965.027 0  22198965.882 0
 88  2 25  9 22 29.0800000  0  4  3 13 11  9
  -8707835.398 7  77850792.076 7  22474053.845 0  22474055.029 0
  -2236233.641 7  53992669.974 7  21030663.813 0  21030664.813 0
   5629106.533 7   4602623.592 7  23465218.832 0  23465219.563 0
  -9167919.756 7  -6989125.010 7  22219400.729 0  22219401.672 0
 88  2 25  9 22 59.0800000  0  4  3 13 11  9
  -8754904.790 7  77814114.639 6  22465096.478 0  22465098.063 0
  -2211275.646 8  54012117.767 7  21035413.741 0  21035413.799 0
   5694878.858 7   4653874.768 8  23477734.697 0  23477735.297 0
  -9060203.978 7  -6905190.638 7  22239898.790 0  22239898.859 0
 88  2 25  9 23 29.0800000  0  4  3 13 11  9
  -8801782.402 7  77777586.656 7  22456176.283 0  22456176.779 0
  -2186148.986 7  54031696.986 6  21040195.077 0  21040194.544 0
   5760624.189 7   4705104.893 7  23490246.245 0  23490247.034 0
  -8952163.573 7  -6821003.313 7  22260458.210 0  22260457.795 0
 88  2 25  9 23 59.0800000  0  4  3 13 11  9
  -8848469.712 8  77741206.952 8  22447291.125 0  22447292.763 0
  -2160856.392 7  54051405.502 7  21045008.375 0  21045008.793 0
   5826341.228 7   4756312.966 8  23502751.634 0  23502752.079 0
  -8843803.026 7  -6736566.537 7  22281077.701 0  22281078.372 0
 88  2 25  9 24 29.0800000  0  4  3 13 11  9
  -8894966.746 7  77704975.535 7  22438444.021 0  22438444.537 0
  -2135398.708 8  54071242.663 7  21049852.386 0  21049852.992 0
   5892029.898 7   4807498.943 7  23515250.843 0  23515252.240 0
  -8735124.851 8  -6651882.245 7  22301759.436 0  22301759.307 0
 88  2 25  9 24 59.0800000  0  4  3 13 11  9
  -8941273.709 8  77668892.197 7  22429632.392 0  22429632.824 0
  -2109776.676 7  54091207.895 7  21054727.779 0  21054728.238 0
   5957690.647 7   4858663.151 7  23527746.123 0  23527746.782 0
  -8626132.107 7  -6566952.849 7  22322499.494 0  22322499.722 0
 88  2 25  9 25 29.0800000  0  4  3 13 11  9
  -8987391.424 8  77632956.334 7  22420855.972 0  22420856.890 0
  -2083991.415 8  54111300.318 7  21059634.867 0  21059635.602 0
   6023322.596 7   4909804.927 7  23540236.073 0  23540236.776 0
  -8516827.823 7  -6481780.681 7  22343299.333 0  22343299.433 0
 88  2 25  9 25 59.0800000  0  4  3 13 11  9
  -9033321.601 7  77597166.616 7  22412115.929 0  22412116.461 0
  -2058045.566 8  54131517.875 7  21064572.512 0  21064572.618 0
   6088924.411 7   4960923.210 7  23552718.619 0  23552720.822 0
  -8407216.597 7  -6396369.341 7  22364157.518 0  22364158.343 0
 88  2 25  9 26 29.0800000  0  4  3 13 11  9
  -9079064.406 8  77561522.889 8  22403410.592 0  22403411.625 0
  -2031940.296 8  54151859.635 7  21069540.350 0  21069541.000 0
   6154496.118 7   5012018.036 7  23565197.187 0  23565198.451 0
  -8297301.177 7  -6310720.967 7  22385073.592 0  22385074.100 0
 88  2 25  9 26 59.0800000  0  4  3 13 11  9
  -9124621.093 7  77526024.200 7  22394741.458 0  22394743.219 0
  -2005677.487 8  54172324.171 7  21074537.979 0  21074537.514 0
   6220036.320 7   5063088.321 7  23577669.735 0  23577670.638 0
  -8187085.873 8  -6224838.938 7  22406046.852 0  22406047.861 0
 88  2 25  9 27 29.0800000  0  4  3 13 11  9
  -9169991.009 7  77490671.035 7  22386108.375 0  22386108.982 0
  -1979257.187 8  54192911.413 7  21079564.942 0  21079566.165 0
   6285546.053 8   5114134.870 7  23590134.270 0  23590136.405 0
  -8076572.865 8  -6138724.910 7  22427076.925 0  22427078.211 0
 88  2 25  9 27 59.0800000  0  4  3 13 11  9
  -9215176.174 7  77455461.831 7  22377509.940 0  22377510.523 0
  -1952682.066 7  54213619.303 7  21084622.554 0  21084621.889 0
   6351024.284 7   5165156.847 7  23602594.688 0  23602595.919 0
  -7965766.160 7  -6052382.039 7  22448162.201 0  22448163.324 0
 88  2 25  9 28 29.0800000  0  4  3 13 11  9
  -9260176.697 8  77420396.523 7  22368946.759 0  22368947.026 0
  -1925953.174 8  54234447.010 7  21089709.087 0  21089708.806 0
   6416470.145 7   5216153.623 7  23615049.187 0  23615049.552 0
  -7854669.232 8  -5965813.017 7  22469303.965 0  22469303.513 0
 88  2 25  9 28 59.0800000  0  4  3 13 11  9
  -9304993.021 7  77385474.726 7  22360418.366 0  22360418.381 0
  -1899071.257 8  54255393.959 7  21094824.337 0  21094824.345 0
   6481884.278 7   5267125.665 7  23627497.555 0  23627498.294 0
  -7743284.663 8  -5879019.842 7  22490500.645 0  22490500.148 0
 88  2 25  9 29 29.0800000  0  4  3 13 11  9
  -9349626.560 8  77350695.362 7  22351924.941 0  22351925.902 0
  -1872038.392 8  54276458.536 7  21099968.407 0  21099968.873 0
   6547265.286 7   5318071.903 7  23639938.489 0  23639939.089 0
  -7631616.581 8  -5792005.762 7  22511749.818 0  22511750.042 0
 88  2 25  9 29 59.0800000  0  4  3 13 11  9
  -9394077.879 7  77316057.989 7  22343465.330 0  22343466.586 0
  -1844855.758 8  54297639.808 7  21105140.379 0  21105141.988 0
   6612613.010 7   5368992.190 7  23652373.635 0  23652374.642 0
  -7519668.236 7  -5704773.273 7  22533052.390 0  22533052.439 0
 88  2 25  9 30 29.0800000  0  4  3 13 11  9
  -9438347.319 7  77281562.338 7  22335041.046 0  22335042.944 0
  -1817524.256 7  54318937.083 7  21110341.857 0  21110342.664 0
   6677927.546 7   5419886.645 6  23664802.292 0  23664803.378 0
  -7407442.805 7  -5617324.899 7  22554407.679 0  22554408.787 0
 88  2 25  9 30 59.0800000  0  4  3 13 11  9
  -9482436.479 8  77247207.168 7  22326651.448 0  22326652.534 0
  -1790046.322 8  54340348.456 7  21115570.852 0  21115571.158 0
   6743207.544 7   5470754.169 7  23677224.472 0  23677226.068 0
  -7294944.387 7  -5529663.780 7  22575815.884 0  22575815.390 0
 88  2 25  9 31 29.0800000  0  4  3 13 11  9
  -9526346.299 7  77212991.747 7  22318296.417 0  22318296.780 0
  -1762423.532 8  54361872.721 6  21120827.305 0  21120827.671 0
   6808452.340 7   5521594.268 7  23689641.396 0  23689642.290 0
  -7182176.927 7  -5441793.060 7  22597274.922 0  22597275.320 0
 88  2 25  9 31 59.0800000  0  4  3 13 11  9
  -9570075.906 8  77178916.736 7  22309974.232 0  22309974.189 0
  -1734655.749 8  54383509.954 7  21126110.846 0  21126112.025 0
   6873663.247 7   5572407.955 7  23702049.660 0  23702052.067 0
  -7069142.386 7  -5353714.201 7  22618783.648 0  22618784.708 0
 88  2 25  9 32 29.0800000  0  4  3 13 11  9
  -9613626.120 7  77144981.508 7  22301687.640 0  22301688.075 0
  -1706744.269 8  54405259.163 6  21131422.762 0  21131422.252 0
   6938839.566 7   5623194.686 7  23714453.471 0  23714454.212 0
  -6955843.972 8  -5265429.724 7  22640344.106 0  22640344.018 0
 88  2 25  9 32 59.0800000  0  4  3 13 11  9
  -9656998.681 6  77111184.722 7  22293433.848 0  22293434.026 0
  -1678691.488 7  54427118.484 7  21136760.937 0  21136761.271 0
   7003980.143 8   5673953.572 7  23726848.379 0  23726849.294 0
  -6842286.031 7  -5176943.035 7  22661954.236 0  22661953.932 0
 88  2 25  9 33 29.0800000  0  4  3 13 11  9
  -9700194.070 8  77077525.999 7  22285213.924 0  22285214.296 0
  -1650498.024 8  54449087.421 7  21142126.296 0  21142126.503 0
   7069084.998 7   5724684.630 7  23739237.314 0  23739237.935 0
  -6728472.168 7  -5088256.909 7  22683611.505 0  22683612.799 0
 88  2 25  9 33 59.0800000  0  4  3 13 11  9
  -9743212.221 7  77044005.392 7  22277027.006 0  22277028.619 0
  -1622165.091 8  54471165.037 7  21147518.330 0  21147518.179 0
   7134154.445 7   5775388.088 7  23751620.544 0  23751621.141 0
  -6614404.362 8  -4999372.907 7  22705319.028 0  22705319.517 0
 88  2 25  9 34 29.0800000  0  4  3 13 11  9
  -9786054.333 8  77010621.954 7  22268875.654 0  22268875.028 0
  -1593694.396 8  54493349.993 7  21152935.605 0  21152935.697 0
   7199187.643 7   5826063.298 7  23763995.557 0  23763996.208 0
  -6500087.150 8  -4910294.577 7  22727073.583 0  22727072.804 0
 88  2 25  9 34 59.0800000  0  4  3 13 11  9
  -9828721.721 7  76977374.654 7  22260755.864 0  22260756.497 0
  -1565087.213 8  54515641.313 7  21158379.837 0  21158379.028 0
   7264183.931 7   5876709.753 7  23776363.499 0  23776365.459 0
  -6385524.010 8  -4821024.608 7  22748873.167 0  22748873.014 0
 88  2 25  9 35 29.0800000  0  4  3 13 11  9
  -9871214.664 7  76944263.295 6  22252669.056 0  22252670.687 0
  -1536344.435 8  54538038.287 7  21163848.425 0  21163849.460 0
   7329143.331 7   5927327.481 7  23788724.995 0  23788726.123 0
  -6270718.268 7  -4731565.584 8  22770720.752 0  22770720.494 0
 88  2 25  9 35 59.0800000  0  4  3 13 11  9
  -9913533.722 7  76911287.439 7  22244617.268 0  22244617.078 0
  -1507468.146 8  54560539.292 7  21169343.485 0  21169344.651 0
   7394066.003 7   5977916.602 6  23801079.200 0  23801080.734 0
  -6155673.029 8  -4641919.951 8  22792612.287 0  22792613.127 0
 88  2 25  9 36 29.0800000  0  4  3 13 11  9
  -9955680.194 7  76878446.056 6  22236596.892 0  22236596.809 0
  -1478459.134 7  54583143.700 7  21174863.728 0  21174864.076 0
   7458951.074 7   6028476.382 7  23813427.440 0  23813427.082 0
  -6040392.140 8  -4552090.698 8  22814549.893 0  22814549.987 0
 88  2 25  9 36 59.0800000  0  4  3 13 11  9
  -9997654.047 8  76845739.187 7  22228608.986 0  22228609.246 0
  -1449318.156 7  54605850.949 7  21180409.428 0  21180410.265 0
   7523798.881 7   6079007.136 7  23825766.092 0  23825768.154 0
  -5924878.517 7  -4462080.080 8  22836531.674 0  22836531.202 0
 88  2 25  9 37 29.0800000  0  4  3 13 11  9
 -10039457.431 7  76813165.143 7  22220653.418 0  22220653.890 0
  -1420048.257 8  54628658.653 7  21185978.608 0  21185979.315 0
   7588607.967 7   6129507.719 7  23838098.025 0  23838101.045 0
  -5809137.023 7  -4371891.916 7  22858556.019 0  22858556.769 0
 88  2 25  9 37 59.0800000  0  4  3 13 11  9
 -10081090.074 7  76780724.147 7  22212731.929 0  22212732.549 0
  -1390649.160 8  54651567.049 7  21191573.547 0  21191573.581 0
   7653378.662 7   6179978.375 7  23850425.732 0  23850426.261 0
  -5693169.806 7  -4281527.866 7  22880624.693 0  22880623.420 0
 88  2 25  9 38 29.0800000  0  4  3 13 11  9
 -10122550.827 7  76748417.087 7  22204841.697 0  22204841.528 0
  -1361120.697 8  54674576.238 6  21197192.924 0  21197192.803 0
   7718112.677 7   6230420.469 7  23862742.982 0  23862744.644 0
  -5576978.753 7  -4190989.394 7  22902734.353 0  22902734.613 0
 88  2 25  9 38 59.0800000  0  4  3 13 11  9
 -10163843.439 8  76716241.043 7  22196983.251 0  22196983.812 0
  -1331466.377 7  54697683.506 7  21202835.910 0  21202836.405 0
   7782807.671 7   6280832.159 6  23875055.091 0  23875054.611 0
  -5460570.045 6  -4100281.333 7  22924886.626 0  22924886.385 0
 88  2 25  9 39 29.0800000  0  4  3 13 11  9
 -10204968.542 8  76684195.533 7  22189158.515 0  22189158.916 0
  -1301687.898 8  54720887.517 6  21208502.009 0  21208502.445 0
   7847462.991 6   6331212.925 7  23887357.675 0  23887358.557 0
  -5343946.996 7  -4009406.233 6  22947079.271 0  22947078.540 0
 88  2 25  9 39 59.0800000  0  4  3 13 11  9
 -10245924.496 8  76652281.813 7  22181364.533 0  22181364.778 0
  -1271784.312 8  54744189.022 6  21214192.676 0  21214192.438 0
   7912080.738 7   6381564.388 8  23899653.243 0  23899655.875 0
  -5227110.666 7  -3918364.941 7  22969312.023 0  22969311.807 0
 88  2 25  9 40 29.0800000  0  4  3 13 11  9
 -10286713.149 8  76620498.474 7  22173603.157 0  22173603.421 0
  -1241757.465 8  54767586.561 6  21219906.594 0  21219907.071 0
   7976659.624 6   6431885.589 7  23911944.246 0  23911944.404 0
  -5110065.803 7  -3827161.155 7  22991584.113 0  22991584.017 0
 88  2 25  9 40 59.0800000  0  4  3 13 11  9
 -10327337.113 8  76588843.451 7  22165872.190 0  22165872.427 0
  -1211609.845 8  54791078.229 7  21225643.392 0  21225643.829 0
   8041197.792 7   6482175.067 7  23924224.837 0  23924225.204 0
  -4992817.009 7  -3735798.460 7  23013896.976 0  23013897.005 0
 88  2 25  9 41 29.0800000  0  4  3 13 11  9
 -10367795.529 7  76557317.437 7  22158172.579 0  22158173.937 0
  -1181341.645 7  54814663.845 6  21231403.716 0  21231403.251 0
   8105696.593 7   6532433.858 7  23936498.518 0  23936499.471 0
  -4875367.003 7  -3644278.962 7  23036247.027 0  23036246.540 0
 88  2 25  9 41 59.0800000  0  4  3 13 11  9
 -10408089.092 7  76525919.864 7  22150506.366 0  22150505.715 0
  -1150953.944 8  54838342.581 6  21237185.789 0  21237186.395 0
   8170155.622 7   6582661.648 7  23948763.583 0  23948764.952 0
  -4757719.067 7  -3552605.252 7  23058634.252 0  23058634.148 0
 88  2 25  9 42 29.0800000  0  4  3 13 11  9
 -10448218.092 8  76494650.540 7  22142869.913 0  22142870.777 0
  -1120447.579 7  54862113.757 7  21242991.243 0  21242991.779 0
   8234575.363 7   6632858.846 6  23961023.384 0  23961024.300 0
  -4639875.545 8  -3460779.124 7  23081059.859 0  23081059.416 0
 88  2 25  9 42 59.0800000  0  4  3 13 11  9
 -10488184.224 8  76463508.116 7  22135263.944 0  22135264.141 0
  -1089824.231 7  54885976.114 6  21248818.663 0  21248819.311 0
   8298955.332 7   6683025.058 6  23973274.644 0  23973275.332 0
  -4521840.751 7  -3368803.951 7  23103520.573 0  23103520.461 0
 88  2 25  9 43 29.0800000  0  4  3 13 11  9
 -10527988.525 8  76432491.774 7  22127689.049 0  22127689.009 0
  -1059085.416 8  54909928.434 6  21254668.232 0  21254667.191 0
   8363294.748 7   6733159.669 6  23985517.940 0  23985517.969 0
  -4403618.909 7  -3276683.035 7  23126017.726 0  23126017.657 0
 88  2 25  9 43 59.0800000  0  4  3 13 11  9
 -10567631.953 7  76401600.825 7  22120146.248 0  22120145.655 0
  -1028232.717 7  54933969.496 6  21260538.965 0  21260538.828 0
   8427593.312 7   6783262.444 7  23997752.585 0  23997754.466 0
  -4285213.232 7  -3184418.879 8  23148548.310 0  23148549.520 0
 88  2 25  9 44 29.0800000  0  4  3 13 11  9
 -10607113.004 8  76370836.381 7  22112632.224 0  22112633.484 0
   -997264.994 8  54958100.194 6  21266431.976 0  21266431.523 0
   8491853.009 7   6833334.926 7  24009981.587 0  24009982.674 0
  -4166625.389 7  -3092012.777 7  23171115.504 0  23171115.680 0
 88  2 25  9 44 59.0800000  0  4  3 13 11  9
 -10646432.914 7  76340197.502 7  22105149.830 0  22105150.914 0
   -966183.995 8  54982319.146 7  21272346.567 0  21272346.459 0
   8556073.102 8   6883376.555 7  24022201.950 0  24022203.260 0
  -4047859.294 8  -2999467.772 7  23193715.810 0  23193716.142 0
 88  2 25  9 45 29.0800000  0  4  3 13 11  9
 -10685594.128 7  76309682.297 7  22097697.228 0  22097697.850 0
   -934992.237 8  55006624.410 7  21278282.021 0  21278282.629 0
   8620251.992 8   6933386.057 7  24034415.769 0  24034416.012 0
  -3928919.766 7  -2906787.632 7  23216349.186 0  23216349.782 0
 88  2 25  9 45 59.0800000  0  4  3 13 11  9
 -10724597.211 7  76279290.305 7  22090275.708 0  22090276.176 0
   -903691.042 8  55031014.948 7  21284237.778 0  21284239.231 0
   8684389.331 8   6983363.207 7  24046620.335 0  24046620.765 0
  -3809810.589 7  -2813975.318 7  23239014.141 0  23239015.415 0
 88  2 25  9 46 29.0800000  0  4  3 13 11  9
 -10763441.541 7  76249022.014 7  22082884.059 0  22082885.129 0
   -872279.922 8  55055491.151 7  21290215.944 0  21290215.236 0
   8748486.578 7   7033309.089 7  24058817.506 0  24058818.429 0
  -3690533.467 6  -2721032.118 8  23261712.191 0  23261713.226 0
 88  2 25  9 46 59.0800000  0  4  3 13 11  9
 -10802127.530 7  76218877.104 6  22075521.951 0  22075524.120 0
   -840759.635 8  55080052.409 7  21296213.402 0  21296214.108 0
   8812544.291 7   7083224.169 7  24071007.835 0  24071007.899 0
  -3571091.580 7  -2627960.540 7  23284441.464 0  23284442.100 0
 88  2 25  9 47 29.0800000  0  4  3 13 11  9
 -10840656.926 7  76188854.210 6  22068189.915 0  22068190.927 0
   -809132.326 8  55104697.068 7  21302232.620 0  21302232.954 0
   8876561.517 7   7133107.712 7  24083189.630 0  24083190.452 0
  -3451488.710 7  -2534763.517 7  23307200.573 0  23307201.581 0
 88  2 25  9 47 59.0800000  0  4  3 13 11  9
 -10879032.662 8  76158951.063 7  22060888.494 0  22060888.161 0
   -777400.944 8  55129422.813 7  21308271.055 0  21308270.660 0
   8940535.912 8   7182957.882 7  24095362.902 0  24095363.818 0
  -3331730.913 6  -2441445.772 7  23329989.205 0  23329990.499 0
 88  2 25  9 48 29.0800000  0  4  3 13 12  9
 -10917252.861 7  76129169.097 7  22053614.273 0  22053616.303 0
   -745563.649 8  55154231.101 7  21314329.241 0  21314328.821 0
          .026 8          .382 7  21041821.142 0          .000 0
  -3211818.977 7  -2348007.912 7  23352809.869 0  23352809.737 0
 88  2 25  9 48 59.0800000  0  4  3 13 12  9
 -10955317.239 8  76099508.547 7  22046371.074 0  22046372.031 0
   -713620.964 8  55179121.513 6  21320407.637 0  21320407.792 0
     48318.676 8 120405467.125 7  21051049.937 0  21051051.053 0
  -3091755.331 7  -2254451.822 7  23375656.195 0  23375657.029 0
 88  2 25  9 49 29.0800000  0  4  3 13 12  9
 -10993228.933 8  76069966.977 7  22039156.923 0  22039157.739 0
   -681575.733 7  55204091.826 7  21326505.453 0  21326504.662 0
     97219.838 7 120443571.923 7  21060355.048 0  21060356.338 0
  -2971545.465 7  -2160781.785 7  23398531.527 0  23398531.358 0
 88  2 25  9 49 59.0800000  0  4  3 13 12  9
 -11030988.974 7  76040543.585 7  22031971.763 0  22031972.263 0
   -649429.959 7  55229140.474 7  21332622.393 0  21332622.659 0
    146700.830 8 120482128.534 7  21069772.153 0  21069771.961 0
  -2851193.198 7  -2067000.786 7  23421434.350 0  23421434.502 0
 88  2 25  9 50 29.0800000  0  4  3 13 12  9
 -11068596.058 7  76011239.386 7  22024815.651 0  22024816.165 0
   -617182.595 8  55254268.300 7  21338759.095 0  21338759.207 0
    196761.634 8 120521136.928 6  21079298.143 0  21079298.743 0
  -2730700.124 8  -1973110.062 6  23444362.815 0  23444364.273 0
 88  2 25  9 50 59.0800000  0  4  3 13 12  9
 -11106051.727 8  75982053.159 7  22017687.414 0  22017688.428 0
   -584835.396 8  55279473.907 6  21344914.641 0  21344915.072 0
    247399.599 8 120560595.071 7  21088934.657 0  21088935.243 0
  -2610070.458 7  -1879112.910 7  23467318.986 0  23467318.442 0
 88  2 25  9 51 29.0800000  0  4  3 13 12  9
 -11143357.378 7  75952983.817 7  22010588.108 0  22010588.925 0
   -552389.676 8  55304756.291 6  21351089.125 0  21351088.697 0
    298612.519 8 120600501.230 7  21098680.028 0  21098680.114 0
  -2489307.904 7  -1785012.205 6  23490297.767 0  23490299.470 0
 88  2 25  9 51 59.0800000  0  4  3 13 12  9
 -11180513.561 7  75924030.960 7  22003517.279 0  22003517.709 0
   -519846.087 8  55330114.944 6  21357281.794 0  21357282.249 0
    350398.329 8 120640853.795 7  21108534.361 0  21108535.127 0
  -2368415.742 7  -1690810.537 7  23513302.131 0  23513304.005 0
 88  2 25  9 52 29.0800000  0  4  3 13 12  9
 -11217520.295 7  75895194.568 7  21996475.754 0  21996476.456 0
   -487205.480 8  55355549.188 6  21363493.071 0  21363492.958 0
    402755.252 8 120681651.378 7  21118498.119 0  21118498.562 0
  -2247396.611 7  -1596509.926 8  23536332.817 0  23536333.235 0
 88  2 25  9 52 59.0800000  0  4  3 13 12  9
 -11254377.686 8  75866474.534 7  21989462.335 0  21989462.218 0
   -454467.668 8  55381059.163 6  21369723.419 0  21369723.348 0
    455681.476 8 120722892.580 7  21128568.902 0  21128569.841 0
  -2126253.722 7  -1502112.877 7  23559384.873 0  23559385.848 0
 88  2 25  9 53 29.0800000  0  4  3 13 12  9
 -11291087.301 7  75837869.656 7  21982475.929 0  21982476.171 0
   -421635.669 7  55406642.532 6  21375971.265 0  21375970.735 0
    509174.367 8 120764575.333 6  21138749.251 0  21138749.909 0
  -2004991.521 7  -1407622.856 7  23582460.751 0  23582462.236 0
 88  2 25  9 53 59.0800000  0  4  3 13 12  9
 -11327650.006 7  75809379.251 6  21975518.572 0  21975518.912 0
   -388709.764 8  55432299.096 6  21382236.103 0  21382236.463 0
    563231.509 8 120806697.772 7  21149035.730 0  21149035.458 0
  -1883613.096 6  -1313042.292 7  23605558.305 0  23605559.341 0
 88  2 25  9 54 29.0800000  0  4  3 13 12  9
 -11364067.278 7  75781002.179 7  21968589.175 0  21968589.101 0
   -355690.813 8  55458028.148 7  21388519.555 0  21388519.595 0
    617850.546 8 120849258.041 7  21159428.606 0  21159428.920 0
  -1762122.428 7  -1218374.279 7  23628676.992 0  23628679.187 0
 88  2 25  9 54 59.0800000  0  4  3 13 12  9
 -11400338.771 7  75752738.685 7  21961685.933 0  21961686.620 0
   -322579.182 8  55483829.417 7  21394820.344 0  21394820.539 0
    673030.273 8 120892255.230 7  21169929.688 0  21169929.831 0
  -1640521.643 7  -1123620.449 7  23651817.303 0  23651816.856 0
 88  2 25  9 55 29.0800000  0  4  3 13 12  9
 -11436464.902 7  75724588.456 7  21954812.598 0  21954812.169 0
   -289375.569 8  55509702.364 7  21401138.573 0  21401139.355 0
    728768.611 8 120935687.676 7  21180535.786 0  21180536.543 0
  -1518813.834 7  -1028783.190 7  23674977.855 0  23674977.715 0
 88  2 25  9 55 59.0800000  0  4  3 13 12  9
 -11472447.975 7  75696549.710 7  21947964.706 0  21947964.920 0
   -256081.798 8  55535645.558 7  21407474.512 0  21407475.376 0
    785062.122 8 120979552.732 7  21191247.455 0  21191249.624 0
  -1397004.148 8   -933866.568 6  23698157.278 0  23698158.013 0
 88  2 25  9 56 29.0800000  0  4  3 13 12  9
 -11508287.586 7  75668622.743 7  21941144.030 0  21941143.657 0
   -222698.513 8  55561658.505 6  21413827.416 0  21413827.605 0
    841909.373 8 121023849.282 7  21202065.843 0  21202066.387 0
  -1275094.723 7   -838872.225 7  23721356.363 0  23721355.685 0
 88  2 25  9 56 59.0800000  0  4  3 13 12  9
 -11543984.124 8  75640807.263 7  21934351.973 0  21934351.700 0
   -189226.880 8  55587740.304 7  21420196.436 0  21420195.885 0
    899307.942 8 121068575.426 7  21212988.825 0  21212990.177 0
  -1153088.747 7   -743802.629 7  23744572.904 0  23744573.263 0
 88  2 25  9 57 29.0800000  0  4  3 13 12  9
 -11579538.634 7  75613102.462 7  21927586.616 0  21927586.930 0
   -155666.923 8  55613890.921 7  21426582.990 0  21426583.165 0
    957255.774 8 121113729.552 7  21224015.326 0  21224016.812 0
  -1030989.745 7   -648660.551 7  23767807.431 0  23767807.423 0
 88  2 25  9 57 59.0800000  0  4  3 13 12  9
 -11614952.035 7  75585507.610 7  21920846.185 0  21920847.386 0
   -122019.897 8  55640109.382 7  21432985.820 0  21432986.030 0
   1015750.165 8 121159309.586 7  21235146.455 0  21235148.394 0
   -908801.610 8   -553449.024 8  23791059.712 0  23791059.249 0
 88  2 25  9 58 29.0800000  0  4  3 13 12  9
 -11650226.175 7  75558021.286 7  21914134.718 0  21914134.959 0
    -88288.066 8  55666393.928 8  21439404.466 0  21439405.143 0
   1074788.164 8 121205313.214 7  21246380.640 0  21246383.401 0
   -786528.385 8   -458171.179 7  23814326.781 0  23814326.985 0
 88  2 25  9 58 59.0800000  0  4  3 13 12  9
 -11685359.883 7  75530644.388 6  21907448.548 0  21907448.960 0
    -54470.519 7  55692745.256 7  21445840.162 0  21445839.853 0
   1134368.156 8 121251739.156 7  21257718.638 0  21257719.654 0
   -664171.670 7   -362828.287 7  23837610.683 0  23837610.275 0
 88  2 25  9 59 29.0800000  0  4  3 13 12  9
 -11720354.514 7  75503375.861 7  21900790.022 0  21900789.134 0
    -20568.534 7  55719162.397 7  21452291.015 0  21452291.019 0
   1194487.655 8 121298585.520 6  21269158.883 0  21269160.400 0
   -541735.358 7   -267423.351 7  23860910.471 0  23860909.816 0
 88  2 25  9 59 59.0800000  0  4  3 13 12  9
 -11755210.643 8  75476215.235 7  21894157.082 0  21894156.839 0
     13417.510 8  55745645.032 7  21458758.684 0  21458759.582 0
   1255144.384 8 121345850.483 8  21280701.509 0  21280703.198 0
   -419222.741 7   -171958.983 7  23884222.778 0  23884222.714 0
 88  2 25 10  0 29.0800000  0  4  3 13 12  9
 -11789928.352 8  75449162.491 6  21887549.500 0  21887550.057 0
     47486.729 8  55772192.478 7  21465242.333 0  21465242.002 0
   1316336.255 8 121393532.445 7  21292346.468 0  21292347.469 0
   -296636.528 7    -76437.275 7  23907551.491 0  23907550.462 0
 88  2 25 10  0 59.0800000  0  4  3 13 12  9
 -11824509.504 8  75422216.147 8  21880969.333 0  21880968.216 0
     81637.638 7  55798803.574 7  21471740.446 0  21471741.205 0
   1378059.721 8 121441628.644 7  21304091.382 0  21304093.135 0
   -173981.528 7     19138.055 7  23930891.607 0  23930891.124 0
 88  2 25 10  1 29.0800000  0  4  3 13 12  9
 -11858954.997 7  75395375.527 6  21874415.151 0  21874415.335 0
    115869.238 8  55825477.543 7  21478254.505 0  21478254.708 0
   1440312.373 8 121490137.182 7  21315937.693 0  21315938.239 0
    -51260.727 7    114764.636 7  23954243.849 0  23954243.401 0
 88  2 25 10  1 59.0800000  0  4  3 13 12  9
 -11893264.844 7  75368640.584 7  21867885.351 0  21867886.637 0
    150181.242 8  55852214.167 7  21484784.111 0  21484782.851 0
   1503092.182 8 121539056.501 7  21327885.621 0  21327885.162 0
     71523.206 7    210440.407 7  23977608.573 0  23977608.412 0
 88  2 25 10  2 29.0800000  0  4  3 13 12  9
 -11927439.472 7  75342011.027 7  21861382.311 0  21861383.054 0
    184573.474 8  55879013.310 6  21491328.917 0  21491328.664 0
   1566397.042 8 121588384.943 7  21339930.872 0  21339932.639 0
    194366.522 7    306162.476 7  24000985.913 0  24000985.041 0
 88  2 25 10  2 59.0800000  0  4  3 13 12  9
 -11961479.896 7  75315486.034 7  21854904.253 0  21854905.270 0
    219044.633 7  55905873.949 7  21497887.844 0  21497888.608 0
   1630223.898 8 121638120.139 7  21352076.659 0  21352077.919 0
    317266.155 7    401928.414 7  24024372.484 0  24024372.169 0
 88  2 25 10  3 29.0800000  0  4  3 13 12  9
 -11995387.331 8  75289064.666 7  21848452.726 0  21848452.524 0
    253593.626 8  55932795.251 7  21504462.975 0  21504462.875 0
   1694569.515 8 121688259.557 7  21364321.215 0  21364322.312 0
    440218.514 7    497735.434 7  24047769.330 0  24047769.176 0
 88  2 25 10  3 59.0800000  0  4  3 13 12  9
 -12029162.544 7  75262746.329 6  21842025.179 0  21842025.752 0
    288219.101 7  55959776.141 7  21511051.740 0  21511051.453 0
   1759431.569 8 121738801.403 7  21376664.834 0  21376665.320 0
    563220.196 7    593580.884 7  24071175.276 0  24071175.521 0
 88  2 25 10  4 29.0800000  0  4  3 13 12  9
 -12062804.525 7  75236531.797 7  21835623.334 0  21835623.792 0
    322922.357 8  55986817.634 7  21517655.408 0  21517655.689 0
   1824809.248 8 121789745.012 7  21389105.305 0  21389106.515 0
    686269.181 7    689463.214 6  24094591.039 0  24094591.160 0
 88  2 25 10  4 59.0800000  0  4  3 13 12  9
 -12096314.549 8  75210420.093 7  21829246.529 0  21829247.658 0
    357702.152 8  56013918.751 7  21524273.262 0  21524274.266 0
   1890698.893 8 121841087.596 7  21401643.837 0  21401644.939 0
    809361.410 8    785379.234 7  24118014.303 0  24118014.793 0
 88  2 25 10  5 29.0800000  0  4  3 13 12  9
 -12129693.053 7  75184410.887 7  21822894.879 0  21822894.277 0
    392557.548 8  56041078.810 7  21530906.150 0  21530906.628 0
   1957097.951 8 121892827.103 7  21414279.342 0  21414280.551 0
    932494.039 7    881326.725 7  24141446.153 0  24141446.868 0
 88  2 25 10  5 59.0800000  0  4  3 13 12  9
 -12162941.926 7  75158502.683 7  21816567.469 0  21816567.956 0
    427486.958 7  56068296.542 7  21537552.598 0  21537554.494 0
   2024002.538 7 121944960.523 7  21427010.477 0  21427011.815 0
   1055663.019 7    977302.556 7  24164883.694 0  24164885.130 0
 88  2 25 10  6 29.0800000  0  4  3 13 12  9
 -12196062.296 8  75132694.616 7  21810265.732 0  21810265.169 0
    462489.526 8  56095571.266 8  21544213.469 0  21544214.720 0
   2091410.279 7 121997486.019 7  21439838.018 0  21439839.112 0
   1178864.293 7   1073303.539 7  24188328.562 0  24188328.779 0
 88  2 25 10  6 59.0800000  0  4  3 13 12  9
 -12229053.884 7  75106986.886 7  21803986.972 0  21803986.970 0
    497565.338 8  56122903.065 7  21550888.673 0  21550889.469 0
   2159319.344 8 122050402.164 7  21452760.593 0  21452761.916 0
   1302095.939 7   1169328.200 7  24211779.263 0  24211780.333 0
 88  2 25 10  7 29.0800000  0  4  3 13 12  9
 -12261916.099 7  75081379.975 6  21797734.027 0  21797733.307 0
    532714.581 8  56150292.078 7  21557577.430 0  21557577.983 0
   2227727.358 8 122103707.086 7  21465778.268 0  21465779.426 0
   1425355.474 7   1265374.586 7  24235235.414 0  24235234.700 0
 88  2 25 10  7 59.0800000  0  4  3 13 12  9
 -12294650.774 7  75055872.439 6  21791504.436 0  21791504.734 0
    567934.799 8  56177736.412 7  21564280.119 0  21564280.001 0
   2296630.665 7 122157397.963 7  21478890.456 0  21478890.126 0
   1548638.080 7   1361438.950 7  24258695.061 0  24258694.994 0
 88  2 25 10  8 29.0800000  0  4  3 13 12  9
 -12327258.522 7  75030463.827 6  21785299.283 0  21785298.923 0
    603226.399 7  56205236.366 7  21570995.422 0  21570995.575 0
   2366026.740 8 122211472.807 7  21492095.753 0  21492097.041 0
   1671940.986 6   1457519.125 7  24282158.228 0  24282158.635 0
 88  2 25 10  8 59.0800000  0  4  3 13 12  9
 -12359739.873 8  75005153.696 7  21779117.885 0  21779118.613 0
    638588.993 8  56232791.633 7  21577724.343 0  21577724.330 0
   2435913.019 8 122265929.638 7  21505395.482 0  21505396.380 0
   1795261.550 7   1553613.064 6  24305624.649 0  24305625.016 0
 88  2 25 10  9 29.0800000  0  4  3 13 12  9
 -12392095.682 8  74979941.385 7  21772961.241 0  21772960.837 0
    674021.316 8  56260401.228 7  21584467.304 0  21584468.392 0
   2506286.584 7 122320766.158 7  21518786.871 0  21518787.166 0
   1918595.808 6   1649717.674 7  24329094.144 0  24329095.531 0
 88  2 25 10  9 59.0800000  0  4  3 13 12  9
 -12424326.572 7  74954826.407 7  21766828.521 0  21766828.662 0
    709522.996 7  56288064.871 7  21591222.777 0  21591223.539 0
   2577144.544 7 122375980.131 7  21532270.361 0  21532271.742 0
   2041940.704 7   1745830.539 7  24352565.831 0  24352566.605 0
 88  2 25 10 10 29.0800000  0  4  3 13 12  9
 -12456432.420 7  74929808.878 6  21760718.697 0  21760718.453 0
    745094.122 7  56315782.641 7  21597992.088 0  21597991.676 0
   2648484.626 7 122431569.795 7  21545846.031 0  21545847.346 0
   2165293.723 7   1841949.787 7  24376040.073 0  24376040.793 0
 88  2 25 10 10 59.0800000  0  4  3 13 12  9
 -12488414.970 7  74904887.420 7  21754632.797 0  21754632.008 0
    780733.110 8  56343553.265 7  21604773.683 0  21604774.468 0
   2720302.479 8 122487531.738 7  21559512.662 0  21559514.709 0
   2288650.345 7   1938071.825 6  24399514.413 0  24399513.467 0
 88  2 25 10 11 29.0800000  0  4  3 13 12  9
 -12520274.451 8  74880061.854 6  21748569.822 0  21748569.792 0
    816439.634 8  56371376.523 7  21611567.831 0  21611569.280 0
   2792595.951 7 122543864.296 7  21573269.723 0  21573270.723 0
   2412008.113 7   2034194.762 6  24422988.524 0  24422988.795 0
 88  2 25 10 11 59.0800000  0  4  3 13 12  9
 -12552010.556 7  74855332.428 7  21742529.882 0  21742530.811 0
    852213.785 7  56399252.483 7  21618376.746 0  21618376.834 0
   2865363.874 8 122600566.542 7  21587116.214 0  21587118.060 0
   2535364.575 7   2130316.681 6  24446462.411 0  24446462.600 0
 88  2 25 10 12 29.0800000  0  4  3 13 12  9
 -12583625.577 7  74830697.358 7  21736513.842 0  21736514.686 0
    888053.232 7  56427179.322 7  21625196.089 0  21625197.050 0
   2938601.188 7 122657634.564 7  21601053.756 0  21601054.380 0
   2658715.168 7   2226434.017 6  24469934.458 0  24469934.369 0
 88  2 25 10 12 59.0800000  0  4  3 13 12  9
 -12615118.995 8  74806157.036 7  21730521.667 0  21730521.351 0
    923958.934 7  56455157.793 7  21632028.041 0  21632029.120 0
   3012305.833 8 122715066.742 7  21615078.820 0  21615080.393 0
   2782057.552 7   2322544.979 7  24493406.058 0  24493406.507 0
 88  2 25 10 13 29.0800000  0  4  3 13 12  9
 -12646490.811 8  74781711.467 7  21724551.472 0  21724552.571 0
    959930.775 8  56483187.796 6  21638874.107 0  21638874.603 0
   3086475.260 8 122772861.080 7  21629193.373 0  21629194.053 0
   2905389.164 8   2418647.526 7  24516876.081 0  24516875.874 0
 88  2 25 10 13 59.0800000  0  4  3 13 12  9
 -12677742.631 8  74757359.401 7  21718605.232 0  21718604.301 0
    995966.548 8  56511267.620 7  21645731.193 0  21645732.051 0
   3161105.926 7 122831014.835 7  21643394.003 0  21643395.720 0
   3028705.341 8   2514738.060 7  24540342.273 0  24540342.088 0
 88  2 25 10 14 29.0800000  0  4  3 13 12  9
 -12708875.467 8  74733100.057 7  21712680.337 0  21712680.151 0
   1032066.662 7  56539397.573 6  21652600.596 0  21652601.630 0
   3236194.679 8 122889525.539 7  21657683.807 0  21657685.196 0
   3152003.243 7   2610814.355 7  24563805.412 0  24563805.388 0
 88  2 25 10 14 59.0800000  0  4  3 13 12  9
 -12739889.392 6  74708933.390 6  21706778.971 0  21706778.296 0
   1068231.064 9  56567577.622 7  21659482.549 0  21659483.693 0
   3311738.911 7 122948391.144 7  21672058.178 0  21672060.305 0
   3275280.111 7   2706874.251 7  24587264.228 0  24587264.125 0
 88  2 25 10 15 29.0800000  0  4  3 13 12  9
 -12770785.096 7  74684858.816 7  21700899.093 0  21700899.279 0
   1104458.238 7  56595806.601 6  21666376.128 0  21666375.846 0
   3387735.089 7 123007608.932 7  21686519.824 0  21686521.703 0
   3398532.737 8   2802915.246 7  24610718.605 0  24610718.169 0
 88  2 25 10 15 59.0800000  0  4  3 13 12  9
 -12801562.687 7  74660876.270 7  21695042.258 0  21695043.271 0
   1140748.345 8  56624084.608 7  21673281.848 0  21673282.794 0
   3464181.171 7 123067177.295 7  21701067.774 0  21701069.126 0
   3521758.510 7   2898935.325 7  24634167.414 0  24634167.443 0
 88  2 25 10 16 29.0800000  0  4  3 13 12  9
 -12832222.858 8  74636985.248 7  21689208.514 0  21689207.223 0
   1177100.889 7  56652411.266 7  21680199.484 0  21680200.580 0
   3541074.097 7 123127093.831 6  21715700.620 0  21715701.399 0
   3644953.885 7   2994931.728 7  24657610.703 0  24657609.969 0
 88  2 25 10 16 59.0800000  0  4  3 13 12  9
 -12862765.475 8  74613185.811 7  21683395.921 0  21683396.463 0
   1213515.871 9  56680786.584 7  21687130.134 0  21687129.918 0
   3618410.939 8 123187356.296 7  21730416.475 0  21730417.577 0
   3768115.985 6   3090902.199 7  24681047.578 0  24681047.437 0
 88  2 25 10 17 29.0800000  0  4  3 13 12  9
 -12893191.911 7  74589476.902 7  21677605.420 0  21677605.535 0
   1249992.141 8  56709209.668 7  21694071.065 0  21694070.407 0
   3696188.379 7 123247962.063 7  21745216.989 0  21745218.698 0
   3891241.469 6   3186844.114 7  24704476.832 0  24704477.571 0
 88  2 25 10 17 59.0800000  0  4  3 13 12  9
 -12923502.796 8  74565858.039 6  21671837.213 0  21671837.742 0
   1286529.138 8  56737680.039 7  21701023.484 0  21701024.700 0
   3774402.806 8 123308908.351 6  21760100.781 0  21760102.427 0
   4014327.101 6   3282754.997 7  24727899.777 0  24727899.876 0
 88  2 25 10 18 29.0800000  0  4  3 13 12  9
 -12953698.554 8  74542328.880 6  21666091.587 0  21666091.543 0
   1323126.999 8  56766197.851 6  21707988.071 0  21707987.171 0
   3853051.528 7 123370193.055 6  21775067.040 0  21775069.187 0
   4137370.155 7   3378632.675 7  24751313.250 0  24751314.099 0
 88  2 25 10 18 59.0800000  0  4  3 13 12  9
 -12983780.434 8  74518888.472 7  21660367.023 0  21660366.635 0
   1359784.079 8  56794761.815 7  21714964.082 0  21714964.066 0
   3932130.611 8 123431813.107 7  21790115.347 0  21790117.407 0
   4260366.629 6   3474474.030 6  24774717.492 0  24774719.613 0
 88  2 25 10 19 29.0800000  0  4  3 13 12  9
 -13013747.918 8  74495537.187 7  21654664.840 0  21654664.595 0
   1396501.046 8  56823372.444 6  21721950.940 0  21721951.241 0
   4011638.566 8 123493767.342 7  21805245.402 0  21805247.527 0
   4383314.209 6   3570277.343 7  24798114.440 0  24798116.100 0
 88  2 25 10 19 59.0800000  0  4  3 13 12  9
 -13043601.910 8  74472274.343 7  21648983.317 0  21648983.531 0
   1433278.207 8  56852029.961 7  21728949.605 0  21728949.174 0
   4091571.769 8 123556052.937 7  21820456.060 0  21820457.053 0
   4506210.383 6   3666040.585 8  24821501.707 0  24821501.857 0
 88  2 25 10 20 29.0800000  0  4  3 13 12  9
 -13073341.732 8  74449100.461 7  21643324.749 0  21643324.561 0
   1470115.068 8  56880734.005 7  21735959.868 0  21735958.474 0
   4171927.341 7 123618667.649 7  21835747.679 0  21835748.503 0
   4629052.022 6   3761761.331 7  24844878.434 0  24844877.028 0
 88  2 25 10 20 59.0800000  0  4  3 13 12  9
 -13102969.584 7  74426013.824 8  21637686.326 0  21637687.197 0
   1507009.400 7  56909482.841 7  21742980.032 0  21742979.242 0
   4252700.747 7 123681607.946 7  21851117.992 0  21851119.811 0
   4751834.552 7   3857436.009 7  24868242.422 0  24868242.677 0
 88  2 25 10 21 29.0800000  0  4  3 13 12  9
 -13132486.682 7  74403013.495 6  21632069.481 0  21632070.110 0
   1543961.050 8  56938276.324 7  21750011.191 0  21750012.178 0
   4333888.608 8 123744871.202 7  21866567.745 0  21866568.869 0
   4874555.136 7   3953062.422 7  24891594.798 0  24891596.033 0
 88  2 25 10 21 59.0800000  0  4  3 13 12  9
 -13161891.401 7  74380100.748 7  21626473.699 0  21626473.399 0
   1580970.799 8  56967115.087 7  21757054.015 0  21757054.857 0
   4415489.567 8 123808456.353 7  21882096.382 0  21882097.533 0
   4997211.815 7   4048639.039 6  24914935.960 0  24914936.074 0
 88  2 25 10 22 29.0800000  0  3  3 13 12
 -13191183.642 7  74357275.626 7  21620899.814 0  21620899.538 0
   1618039.458 7  56995999.745 7  21764107.760 0  21764107.940 0
   4497501.338 7 123872361.603 8  21897702.911 0  21897703.864 0
 88  2 25 10 22 59.0800000  0  3  3 13 12
 -13220366.135 7  74334536.020 7  21615346.875 0  21615346.501 0
   1655164.160 7  57024928.087 8  21771172.322 0  21771174.010 0
   4579918.163 7 123936582.496 8  21913386.453 0  21913386.647 0
 88  2 25 10 23 29.0800000  0  3  3 13 12
 -13249440.201 7  74311880.904 7  21609813.336 0  21609814.279 0
   1692344.300 8  57053899.611 7  21778246.501 0  21778248.303 0
   4662736.631 8 124001116.345 7  21929145.467 0  21929146.984 0
 88  2 25 10 23 59.0800000  0  3  3 13 12
 -13278403.563 7  74289312.056 7  21604301.896 0  21604302.811 0
   1729582.339 7  57082916.275 6  21785333.643 0  21785333.458 0
   4745956.106 8 124065962.682 7  21944982.819 0  21944982.963 0
 88  2 25 10 24 29.0800000  0  3  3 13 12
 -13307257.536 7  74266828.449 7  21598812.317 0  21598811.630 0
   1766876.811 8  57111976.887 7  21792430.882 0  21792430.573 0
   4829572.341 8 124131118.173 7  21960893.955 0  21960894.985 0
 88  2 25 10 24 59.0800000  0  3  3 13 12
 -13336003.245 7  74244429.204 6  21593341.341 0  21593340.969 0
   1804226.429 8  57141080.495 7  21799538.899 0  21799538.670 0
   4913581.878 8 124196580.141 7  21976880.301 0  21976880.407 0
 88  2 25 10 25 29.0800000  0  3  3 13 12
 -13364640.816 7  74222114.214 6  21587891.455 0  21587892.171 0
   1841631.348 8  57170227.181 6  21806656.051 0  21806656.546 0
   4997980.920 8 124262345.614 7  21992940.080 0  21992941.540 0
 88  2 25 10 25 59.0800000  0  3  3 13 12
 -13393170.712 7  74199883.138 7  21582462.863 0  21582463.078 0
   1879091.545 8  57199416.952 7  21813784.776 0  21813784.804 0
   5082766.658 8 124328412.404 7  22009074.398 0  22009075.965 0
 88  2 25 10 26 29.0800000  0  3  3 13 12
 -13421592.287 7  74177736.471 6  21577055.078 0  21577054.704 0
   1916607.721 8  57228650.326 7  21820923.797 0  21820923.555 0
   5167936.846 7 124394778.768 8  22025281.821 0  22025283.308 0
 88  2 25 10 26 59.0800000  0  3  3 13 12
 -13449907.739 8  74155672.485 7  21571665.492 0  21571666.292 0
   1954178.342 8  57257926.150 6  21828073.728 0  21828073.811 0
   5253486.960 7 124461441.185 7  22041561.498 0  22041562.935 0
 88  2 25 10 27 29.0800000  0  3  3 13 12
 -13478117.712 8  74133690.696 6  21566297.686 0  21566298.369 0
   1991802.639 8  57287243.791 6  21835233.447 0  21835232.436 0
   5339413.320 8 124528396.772 7  22057912.198 0  22057913.423 0
 88  2 25 10 27 59.0800000  0  3  3 13 12
 -13506221.498 7  74111791.645 7  21560950.170 0  21560950.925 0
   2029481.116 8  57316603.643 7  21842403.491 0  21842403.573 0
   5425713.281 7 124595643.470 7  22074334.825 0  22074336.983 0
 88  2 25 10 28 29.0800000  0  3  3 13 12
 -13534219.573 7  74089974.972 7  21555622.771 0  21555622.898 0
   2067213.507 8  57346005.504 7  21849583.437 0  21849582.396 0
   5512383.787 7 124663178.914 7  22090827.384 0  22090829.354 0
 88  2 25 10 28 59.0800000  0  3  3 13 12
 -13562113.024 8  74068239.815 6  21550314.948 0  21550314.634 0
   2104999.170 7  57375448.879 7  21856772.782 0  21856774.155 0
   5599420.892 7 124731000.023 7  22107390.469 0  22107392.223 0
 88  2 25 10 29 29.0800000  0  3  3 13 12
 -13589901.642 7  74046586.351 7  21545025.642 0  21545026.543 0
   2142838.206 8  57404933.849 7  21863973.550 0  21863974.086 0
   5686821.649 7 124799104.486 7  22124021.866 0  22124024.098 0
 88  2 25 10 29 59.0800000  0  3  3 13 12
 -13617584.364 8  74025015.405 7  21539757.629 0  21539757.941 0
   2180731.684 7  57434461.230 6  21871185.086 0  21871184.831 0
   5774584.399 8 124867491.017 7  22140722.719 0  22140724.731 0
 88  2 25 10 30 29.0800000  0  3  3 13 12
 -13645162.565 7  74003525.897 7  21534510.706 0  21534510.276 0
   2218679.454 8  57464030.933 7  21878405.698 0  21878406.305 0
   5862704.722 7 124936156.191 7  22157491.771 0  22157493.888 0
 88  2 25 10 30 59.0800000  0  3  3 13 12
 -13672639.200 7  73982115.532 7  21529281.755 0  21529282.539 0
   2256677.547 7  57493639.830 7  21885637.089 0  21885636.606 0
   5951176.671 7 125005095.357 7  22174327.259 0  22174329.184 0
 88  2 25 10 31 29.0800000  0  3  3 13 12
 -13700012.506 7  73960785.690 7  21524072.750 0  21524072.823 0
   2294728.319 7  57523289.786 6  21892878.015 0  21892877.989 0
   6039999.182 8 125074307.684 6  22191230.897 0  22191231.431 0
 88  2 25 10 31 59.0800000  0  3  3 13 12
 -13727281.814 8  73939536.898 7  21518883.924 0  21518882.549 0
   2332832.814 8  57552981.605 6  21900128.598 0  21900128.340 0
   6129169.620 7 125143791.138 7  22208198.149 0  22208199.767 0
 88  2 25 10 32 29.0800000  0  3  3 13 12
 -13754447.271 7  73918369.003 7  21513714.099 0  21513714.097 0
   2370991.141 8  57582715.362 7  21907389.974 0  21907390.378 0
   6218685.337 8 125213543.629 8  22225233.504 0  22225234.040 0
 88  2 25 10 32 59.0800000  0  3  3 13 12
 -13781511.648 8  73897279.891 7  21508563.762 0  21508564.360 0
   2409200.722 8  57612489.061 7  21914661.104 0  21914661.239 0
   6308540.622 7 125283560.720 7  22242332.517 0  22242333.509 0
 88  2 25 10 33 29.0800000  0  3  3 13 12
 -13808475.869 7  73876268.812 6  21503432.343 0  21503433.202 0
   2447461.228 8  57642302.433 7  21921941.689 0  21921941.984 0
   6398731.384 8 125353839.228 7  22259494.291 0  22259495.763 0
 88  2 25 10 33 59.0800000  0  3  3 13 12
 -13835338.096 7  73855337.226 7  21498321.274 0  21498321.313 0
   2485774.350 7  57672156.815 6  21929232.590 0  21929232.925 0
   6489256.137 7 125424377.970 7  22276720.999 0  22276722.287 0
 88  2 25 10 34 29.0800000  0  3  3 13 12
 -13862098.429 7  73834485.014 7  21493228.345 0  21493227.455 0
   2524140.223 8  57702052.297 7  21936533.677 0  21936534.496 0
   6580112.020 8 125495174.772 7  22294011.469 0  22294011.420 0
 88  2 25 10 34 59.0800000  0  3  3 13 12
 -13888758.054 7  73813711.290 6  21488155.193 0  21488155.692 0
   2562557.779 7  57731988.056 7  21943844.072 0  21943843.927 0
   6671294.307 8 125566225.894 7  22311362.038 0  22311363.320 0
 88  2 25 10 35 29.0800000  0  3  3 13 12
 -13915317.681 7  73793015.484 7  21483101.788 0  21483101.057 0
   2601026.459 7  57761963.652 7  21951163.823 0  21951165.225 0
   6762799.395 7 125637528.559 7  22328774.167 0  22328775.426 0
 88  2 25 10 35 59.0800000  0  3  3 13 12
 -13941777.353 7  73772397.560 7  21478066.613 0  21478067.282 0
   2639546.411 7  57791979.176 7  21958494.532 0  21958495.525 0
   6854624.113 8 125709080.268 7  22346248.882 0  22346249.571 0
 88  2 25 10 36 29.0800000  0  3  3 13 12
 -13968136.761 7  73751857.762 7  21473050.353 0  21473050.452 0
   2678118.104 7  57822035.045 7  21965834.020 0  21965835.028 0
   6946765.473 7 125780878.729 7  22363782.237 0  22363783.941 0
 88  2 25 10 36 59.0800000  0  3  3 13 12
 -13994396.848 7  73731395.367 7  21468053.898 0  21468053.296 0
   2716741.103 8  57852130.884 7  21973183.748 0  21973184.773 0
   7039219.870 8 125852921.110 7  22381374.710 0  22381376.793 0
 88  2 25 10 37 29.0800000  0  3  3 13 12
 -14020556.910 7  73711010.896 6  21463075.704 0  21463075.730 0
   2755416.119 7  57882267.244 7  21980543.085 0  21980544.273 0
   7131984.869 7 125925205.517 7  22399027.633 0  22399029.114 0
 88  2 25 10 37 59.0800000  0  3  3 13 12
 -14046618.416 7  73690703.237 7  21458115.449 0  21458115.806 0
   2794141.638 7  57912442.970 7  21987912.730 0  21987913.393 0
   7225055.192 7 125997727.844 7  22416739.059 0  22416739.372 0
 88  2 25 10 38 29.0800000  0  3  3 13 12
 -14072581.452 8  73670472.319 7  21453175.603 0  21453175.216 0
   2832918.215 7  57942658.488 7  21995292.108 0  21995292.780 0
   7318428.167 8 126070486.010 7  22434507.298 0  22434507.644 0
 88  2 25 10 38 59.0800000  0  3  3 13 12
 -14098445.993 7  73650318.133 7  21448253.443 0  21448254.413 0
   2871746.617 7  57972914.393 7  22002679.880 0  22002681.500 0
   7412100.503 8 126143477.432 7  22452332.426 0  22452333.140 0
 88  2 25 10 39 29.0800000  0  3  3 13 12
 -14124211.388 8  73630241.211 6  21443350.797 0  21443350.067 0
   2910627.017 7  58003210.802 7  22010079.038 0  22010079.693 0
   7506069.155 7 126216699.746 7  22470214.223 0  22470215.405 0
 88  2 25 10 39 59.0800000  0  3  3 13 12
 -14149878.330 7  73610241.016 6  21438466.013 0  21438465.480 0
   2949558.878 7  58033547.304 7  22017487.490 0  22017488.423 0
   7600330.484 8 126290150.120 7  22488151.506 0  22488153.095 0
 88  2 25 10 40 29.0800000  0  3  3 13 12
 -14175448.684 7  73590316.073 6  21433600.542 0  21433600.957 0
   2988541.127 8  58063923.078 6  22024906.314 0  22024906.728 0
   7694879.768 8 126363824.891 7  22506143.305 0  22506144.185 0
 88  2 25 10 40 59.0800000  0  3  3 13 12
 -14200921.873 7  73570466.840 7  21428752.619 0  21428752.661 0
   3027573.609 7  58094337.997 7  22032333.231 0  22032334.000 0
   7789713.793 7 126437721.528 7  22524190.051 0  22524190.889 0
 88  2 25 10 41 29.0800000  0  3  3 13 12
 -14226296.155 7  73550694.686 7  21423923.923 0  21423924.266 0
   3066659.233 7  58124794.325 7  22039770.691 0  22039771.880 0
   7884831.400 8 126511839.129 7  22542289.643 0  22542290.996 0
 88  2 25 10 41 59.0800000  0  3  3 13 12
 -14251572.962 7  73530998.477 7  21419114.033 0  21419114.575 0
   3105796.787 8  58155291.125 7  22047218.626 0  22047219.109 0
   7980228.466 8 126586174.512 8  22560443.980 0  22560444.825 0
 88  2 25 10 42 29.0800000  0  3  3 13 12
 -14276753.633 7  73511377.192 7  21414322.828 0  21414322.470 0
   3144984.711 8  58185827.169 7  22054675.849 0  22054676.424 0
   8075899.843 8 126660723.618 7  22578649.510 0  22578650.433 0
 88  2 25 10 42 59.0800000  0  3  3 13 12
 -14301838.818 7  73491830.301 6  21409549.225 0  21409549.338 0
   3184223.186 8  58216402.603 6  22062142.242 0  22062142.690 0
   8171841.869 8 126735483.645 7  22596906.445 0  22596907.459 0
 88  2 25 10 43 29.0800000  0  3  3 13 12
 -14326827.134 8  73472358.884 7  21404793.364 0  21404794.093 0
   3223513.334 8  58247018.303 7  22069620.026 0  22069619.809 0
   8268052.207 8 126810452.733 7  22615214.284 0  22615216.460 0
 88  2 25 10 43 59.0800000  0  3  3 13 12
 -14351718.941 8  73452962.674 7  21400057.968 0  21400056.334 0
   3262855.275 8  58277674.359 6  22077106.280 0  22077105.930 0
   8364527.173 7 126885628.022 6  22633573.580 0  22633575.369 0
 88  2 25 10 44 29.0800000  0  3  3 13 12
 -14376513.929 7  73433641.925 7  21395338.254 0  21395337.995 0
   3302249.386 8  58308371.063 6  22084602.981 0  22084603.527 0
   8461263.509 7 126961006.962 7  22651980.095 0  22651983.803 0
 88  2 25 10 44 59.0800000  0  3  3 13 12
 -14401212.551 7  73414396.234 7  21390638.916 0  21390638.268 0
   3341695.217 8  58339108.074 7  22092109.462 0  22092109.010 0
   8558257.612 7 127036586.778 7  22670437.967 0  22670439.984 0
 88  2 25 10 45 29.0800000  0  3  3 13 12
 -14425816.566 7  73395224.307 7  21385956.888 0  21385956.902 0
   3381191.213 8  58369884.178 6  22099624.186 0  22099625.603 0
   8655504.581 7 127112363.624 7  22688944.084 0  22688945.635 0
 88  2 25 10 45 59.0800000  0  3  3 13 12
 -14450324.996 7  73376126.828 7  21381293.325 0  21381292.936 0
   3420738.931 8  58400700.567 7  22107150.151 0  22107150.356 0
   8753002.213 7 127188335.779 7  22707496.630 0  22707499.092 0
 88  2 25 10 46 29.0800000  0  3  3 13 12
 -14474736.879 7  73357104.578 7  21376647.103 0  21376646.298 0
   3460339.745 8  58431558.355 7  22114686.488 0  22114686.705 0
   8850748.065 7 127264501.371 7  22726097.688 0  22726099.355 0
 88  2 25 10 46 59.0800000  0  3  3 13 12
 -14499052.993 7  73338156.963 7  21372021.199 0  21372019.336 0
   3499992.934 7  58462456.943 7  22122231.771 0  22122232.343 0
   8948737.818 7 127340857.029 7  22744745.142 0  22744745.513 0
 88  2 25 10 47 29.0800000  0  3  3 13 12
 -14523274.259 7  73319283.253 7  21367410.347 0  21367410.889 0
   3539697.367 8  58493395.463 7  22129787.425 0  22129788.150 0
   9046967.037 8 127417399.279 7  22763436.989 0  22763437.870 0
 88  2 25 10 47 59.0800000  0  3  3 13 12
 -14547398.946 7  73300484.802 7  21362820.302 0  21362820.430 0
   3579455.179 8  58524375.576 7  22137353.147 0  22137353.836 0
   9145434.216 8 127494126.940 6  22782175.614 0  22782175.221 0
 88  2 25 10 48 29.0800000  0  3  3 13 12
 -14571428.200 7  73281760.702 7  21358247.285 0  21358247.998 0
   3619266.122 8  58555397.075 7  22144928.748 0  22144929.647 0
   9244134.853 8 127571036.522 7  22800957.082 0  22800958.348 0
 88  2 25 10 48 59.0800000  0  3  3 13 12
 -14595364.377 8  73263109.131 7  21353692.183 0  21353692.125 0
   3659127.902 8  58586458.200 6  22152514.348 0  22152514.394 0
   9343063.534 8 127648123.815 7  22819783.186 0  22819784.631 0
 88  2 25 10 49 29.0800000  0  3  3 13 12
 -14619206.019 8  73244531.245 7  21349156.827 0  21349155.595 0
   3699041.994 8  58617560.105 7  22160109.170 0  22160110.078 0
   9442217.462 8 127725386.609 6  22838651.273 0  22838651.658 0
 88  2 25 10 49 59.0800000  0  3  3 13 12
 -14642951.951 8  73226027.926 7  21344637.013 0  21344637.367 0
   3739010.154 7  58648704.121 7  22167714.551 0  22167714.737 0
   9541594.483 8 127802823.254 7  22857562.317 0  22857563.410 0
 88  2 25 10 50 29.0800000  0  3  3 13 12
 -14666602.356 8  73207599.045 7  21340135.798 0  21340136.998 0
   3779031.708 8  58679889.747 7  22175331.150 0  22175331.542 0
   9641190.810 8 127880430.775 7  22876515.071 0  22876514.957 0
 88  2 25 10 50 59.0800000  0  3  3 13 12
 -14690158.096 7  73189243.928 7  21335654.273 0  21335653.859 0
   3819105.656 7  58711116.195 6  22182956.919 0  22182957.184 0
   9741002.229 8 127958205.896 7  22895508.672 0  22895509.816 0
 88  2 25 10 51 29.0800000  0  3  3 13 12
 -14713619.297 7  73170962.483 6  21331189.463 0  21331190.334 0
   3859233.417 8  58742384.575 7  22190592.887 0  22190593.138 0
   9841025.695 8 128036146.245 7  22914542.153 0  22914543.118 0
 88  2 25 10 51 59.0800000  0  3  3 13 12
 -14736985.287 8  73152755.222 7  21326742.996 0  21326743.352 0
   3899415.298 8  58773695.139 7  22198239.513 0  22198239.137 0
   9941258.595 7 128114249.794 7  22933615.699 0  22933616.943 0
 88  2 25 10 52 29.0800000  0  3  3 13 12
 -14760256.528 7  73134621.791 7  21322314.674 0  21322314.714 0
   3939650.901 8  58805047.552 7  22205895.448 0  22205895.773 0
  10041696.153 7 128192512.803 7  22952728.608 0  22952729.237 0
 88  2 25 10 52 59.0800000  0  3  3 13 12
 -14783432.538 8  73116562.564 7  21317904.781 0  21317904.779 0
   3979941.079 8  58836442.500 7  22213562.393 0  22213563.042 0
  10142335.361 7 128270932.960 7  22971878.959 0  22971881.054 0
 88  2 25 10 53 29.0800000  0  3  3 13 12
 -14806514.580 7  73098576.554 7  21313511.516 0  21313512.618 0
   4020285.121 7  58867879.413 7  22221240.172 0  22221240.369 0
  10243172.164 8 128349507.064 7  22991068.459 0  22991069.347 0
 88  2 25 10 53 59.0800000  0  3  3 13 12
 -14829503.344 7  73080663.239 7  21309136.853 0  21309137.467 0
   4060681.738 8  58899357.286 7  22228927.339 0  22228927.092 0
  10344202.297 8 128428231.828 7  23010292.817 0  23010294.104 0
 88  2 25 10 54 29.0800000  0  3  3 13 12
 -14852396.858 7  73062824.143 6  21304781.191 0  21304782.178 0
   4101133.632 7  58930878.234 7  22236625.192 0  22236624.617 0
  10445423.488 7 128507105.457 7  23029554.557 0  23029555.358 0
 88  2 25 10 54 59.0800000  0  3  3 13 12
 -14875194.468 7  73045059.770 7  21300442.644 0  21300443.059 0
   4141642.073 7  58962443.255 6  22244333.366 0  22244334.365 0
  10546833.007 7 128586125.864 7  23048852.928 0  23048853.694 0
 88  2 25 10 55 29.0800000  0  3  3 13 12
 -14897897.403 8  73027369.184 7  21296122.645 0  21296122.871 0
   4182205.670 7  58994051.254 7  22252052.825 0  22252052.483 0
  10648426.087 7 128665289.299 7  23068184.862 0  23068185.686 0
 88  2 25 10 55 59.0800000  0  3  3 13 12
 -14920505.704 7  73009752.325 7  21291819.582 0  21291820.528 0
   4222824.830 8  59025702.540 7  22259782.295 0  22259782.445 0
  10750199.225 8 128744593.033 6  23087551.876 0  23087552.883 0
 88  2 25 10 56 29.0800000  0  3  3 13 12
 -14943019.563 7  72992209.058 7  21287537.702 0  21287536.040 0
   4263499.322 7  59057396.940 6  22267522.280 0  22267521.941 0
  10852148.946 8 128824034.372 7  23106952.365 0  23106953.229 0
 88  2 25 10 56 59.0800000  0  3  3 13 12
 -14965438.859 8  72974739.472 7  21283270.586 0  21283269.683 0
   4304229.929 8  59089135.065 6  22275273.758 0  22275273.361 0
  10954271.859 8 128903610.668 7  23126385.865 0  23126386.882 0
 88  2 25 10 57 29.0800000  0  3  3 13 12
 -14987762.622 7  72957344.340 6  21279021.986 0  21279022.172 0
   4345017.451 8  59120917.550 7  22283034.166 0  22283035.204 0
  11056565.054 8 128983319.657 7  23145851.569 0  23145852.535 0
 88  2 25 10 57 59.0800000  0  3  3 13 12
 -15009990.449 7  72940023.964 6  21274792.133 0  21274791.603 0
   4385862.212 7  59152744.615 7  22290806.620 0  22290807.792 0
  11159024.849 8 129063158.450 6  23165348.675 0  23165349.246 0
 88  2 25 10 58 29.0800000  0  3  3 13 12
 -15032123.614 7  72922777.349 7  21270581.138 0  21270580.149 0
   4426763.643 7  59184615.872 6  22298590.346 0  22298590.237 0
  11261646.910 8 129143123.707 7  23184877.323 0  23184878.088 0
 88  2 25 10 58 59.0800000  0  3  3 13 12
 -15054161.140 8  72905605.241 7  21266386.944 0  21266386.283 0
   4467722.601 7  59216531.940 7  22306384.924 0  22306384.972 0
  11364428.123 8 129223212.967 7  23204436.316 0  23204437.432 0
 88  2 25 10 59 29.0800000  0  3  3 13 12
 -15076103.916 7  72888506.987 7  21262211.205 0  21262211.950 0
   4508738.682 7  59248492.507 7  22314188.899 0  22314190.920 0
  11467364.488 8 129303423.115 6  23224024.134 0  23224024.042 0
 88  2 25 10 59 59.0800000  0  3  3 13 12
 -15097950.710 7  72871483.513 6  21258053.386 0  21258053.198 0
   4549812.871 7  59280498.368 6  22322006.532 0  22322005.863 0
  11570453.684 7 129383752.360 7  23243641.371 0  23243642.731 0
 88  2 25 11  0 29.0800000  0  3  3 13 12
 -15119702.108 7  72854534.369 7  21253914.021 0  21253914.276 0
   4590945.389 7  59312549.675 7  22329833.259 0  22329833.557 0
  11673691.506 8 129464197.419 7  23263286.025 0  23263288.149 0
 88  2 25 11  0 59.0800000  0  3  3 13 12
 -15141358.476 7  72837659.279 7  21249793.089 0  21249793.832 0
   4632135.265 8  59344645.676 8  22337671.246 0  22337672.533 0
  11777073.664 7 129544754.928 7  23282958.876 0  23282960.579 0
 88  2 25 11  1 29.0800000  0  3  3 13 12
 -15162919.105 7  72820858.793 7  21245690.357 0  21245691.143 0
   4673384.206 8  59376787.701 7  22345520.615 0  22345521.427 0
  11880597.513 7 129625422.846 7  23302658.777 0  23302660.214 0
 88  2 25 11  1 59.0800000  0  3  3 13 12
 -15184383.247 7  72804133.488 7  21241606.059 0  21241606.541 0
   4714693.710 8  59408976.918 7  22353381.874 0  22353382.706 0
  11984260.291 7 129706199.034 7  23322386.268 0  23322387.421 0
 88  2 25 11  2 29.0800000  0  3  3 13 12
 -15205751.738 7  72787482.720 7  21237539.444 0  21237540.056 0
   4756062.351 8  59441212.236 7  22361253.852 0  22361254.225 0
  12088057.459 8 129787079.917 7  23342137.668 0  23342139.221 0
 88  2 25 11  2 59.0800000  0  3  3 13 12
 -15227023.592 8  72770907.258 7  21233491.199 0  21233491.728 0
   4797490.616 7  59473493.990 7  22369138.136 0  22369137.591 0
  12191985.869 7 129868063.082 7  23361914.645 0  23361916.536 0
 88  2 25 11  3 29.0800000  0  3  3 13 12
 -15248198.982 7  72754406.950 7  21229462.534 0  21229462.519 0
   4838979.351 8  59505822.875 7  22377032.358 0  22377032.914 0
  12296041.780 7 129949145.584 7  23381716.244 0  23381717.308 0
 88  2 25 11  3 59.0800000  0  3  3 13 12
 -15269277.432 7  72737982.181 6  21225451.495 0  21225451.510 0
   4880529.032 8  59538199.249 7  22384939.246 0  22384939.754 0
  12400221.933 8 130030324.924 7  23401540.662 0  23401541.572 0
 88  2 25 11  4 29.0800000  0  3  3 13 12
 -15290258.462 7  72721633.323 7  21221458.832 0  21221458.429 0
   4922140.527 7  59570623.792 7  22392858.026 0  22392857.345 0
  12504523.169 8 130111598.593 7  23421388.279 0  23421389.959 0
 88  2 25 11  4 59.0800000  0  3  3 13 12
 -15311143.844 7  72705358.998 7  21217485.139 0  21217485.439 0
   4963812.217 8  59603095.235 7  22400787.401 0  22400788.389 0
  12608940.166 8 130192962.490 7  23441258.675 0  23441259.992 0
 88  2 25 11  5 29.0800000  0  3  3 13 12
 -15331931.604 8  72689160.756 7  21213527.960 0  21213528.105 0
   5005546.664 8  59635615.574 6  22408728.923 0  22408730.220 0
  12713471.098 8 130274415.165 7  23461150.376 0  23461151.385 0
 88  2 25 11  5 59.0800000  0  3  3 13 12
 -15352620.051 8  72673039.894 7  21209591.732 0  21209592.073 0
   5047344.642 7  59668185.420 6  22416682.750 0  22416682.554 0
  12818113.925 8 130355955.029 7  23481062.678 0  23481063.499 0
 88  2 25 11  6 29.0800000  0  3  3 13 12
 -15373211.362 7  72656994.715 7  21205673.675 0  21205672.830 0
   5089205.295 8  59700804.123 7  22424648.712 0  22424648.640 0
  12922863.146 8 130437577.807 7  23500996.063 0  23500997.351 0
 88  2 25 11  6 59.0800000  0  3  3 13 12
 -15393705.171 7  72641025.512 7  21201773.363 0  21201773.760 0
   5131128.209 8  59733471.321 7  22432626.058 0  22432626.994 0
  13027714.485 8 130519280.156 6  23520948.922 0  23520949.567 0
 88  2 25 11  7 29.0800000  0  3  3 13 12
 -15414100.650 7  72625132.942 7  21197892.825 0  21197891.937 0
   5173115.319 8  59766188.543 7  22440616.098 0  22440616.884 0
  13132665.786 8 130601060.394 7  23540919.948 0  23540921.357 0
 88  2 25 11  7 59.0800000  0  3  3 13 12
 -15434397.036 7  72609317.572 7  21194030.028 0  21194030.243 0
   5215166.799 8  59798955.936 6  22448618.218 0  22448619.103 0
  13237714.114 8 130682916.234 6  23560911.013 0  23560912.035 0
 88  2 25 11  8 29.0800000  0  3  3 13 12
 -15454594.694 7  72593579.151 7  21190186.839 0  21190186.364 0
   5257282.807 7  59831773.599 7  22456633.099 0  22456633.866 0
  13342855.152 8 130764844.335 6  23580917.288 0  23580918.499 0
 88  2 25 11  8 59.0800000  0  3  3 13 12
 -15474694.294 8  72577917.118 6  21186362.536 0  21186361.258 0
   5299462.904 7  59864641.200 7  22464659.719 0  22464660.095 0
  13448084.412 7 130846841.138 7  23600941.708 0  23600943.246 0
 88  2 25 11  9 29.0800000  0  3  3 13 12
 -15494694.010 6  72562332.921 7  21182555.776 0  21182555.832 0
   5341709.001 7  59897560.215 7  22472699.609 0  22472698.319 0
  13553400.459 7 130928905.600 7  23620982.978 0  23620983.962 0
 88  2 25 11  9 59.0800000  0  3  3 13 12
 -15514592.871 8  72546827.308 7  21178769.393 0  21178770.048 0
   5384021.502 7  59930530.998 7  22480750.212 0  22480751.794 0
  13658800.124 7 131011035.195 6  23641040.752 0  23641041.388 0
 88  2 25 11 10 29.0800000  0  3  3 13 12
 -15534391.991 8  72531399.428 7  21175001.783 0  21175002.054 0
   5426400.198 8  59963553.364 7  22488815.124 0  22488816.139 0
  13764278.417 7 131093226.059 7  23661112.005 0  23661113.121 0
 88  2 25 11 10 59.0800000  0  3  3 13 12
 -15554090.548 8  72516049.914 7  21171252.687 0  21171252.874 0
   5468846.077 8  59996628.068 7  22496892.010 0  22496892.218 0
  13869832.564 8 131175476.032 7  23681199.105 0  23681199.207 0
 88  2 25 11 11 29.0800000  0  3  3 13 12
 -15573687.990 7  72500779.183 7  21167523.397 0  21167523.926 0
   5511359.869 8  60029755.702 7  22504982.828 0  22504983.135 0
  13975458.814 7 131257782.197 7  23701298.270 0  23701300.214 0
 88  2 25 11 11 59.0800000  0  3  3 13 12
 -15593185.137 8  72485586.610 6  21163813.913 0  21163813.411 0
   5553940.712 8  60062935.578 7  22513085.414 0  22513085.251 0
  14081153.243 7 131340141.485 7  23721410.914 0  23721411.931 0
 88  2 25 11 12 29.0800000  0  3  3 13 12
 -15612580.362 7  72470473.444 7  21160123.086 0  21160122.140 0
   5596590.124 8  60096168.883 7  22521201.009 0  22521201.187 0
  14186913.500 7 131422552.065 7  23741536.749 0  23741538.615 0
 88  2 25 11 12 59.0800000  0  3  3 13 12
 -15631873.487 7  72455439.838 7  21156451.633 0  21156451.404 0
   5639307.974 7  60129455.506 7  22529330.164 0  22529331.476 0
  14292735.235 8 131505010.561 7  23761673.747 0  23761675.042 0
 88  2 25 11 13 29.0800000  0  3  3 13 12
 -15651064.997 7  72440485.425 7  21152799.842 0  21152798.938 0
   5682094.600 7  60162795.728 7  22537472.478 0  22537472.567 0
  14398615.113 8 131587514.377 7  23781823.631 0  23781823.600 0
 88  2 25 11 13 59.0800000  0  3  3 13 12
 -15670154.210 8  72425610.715 7  21149166.595 0  21149166.063 0
   5724950.877 7  60196190.225 7  22545626.776 0  22545627.830 0
  14504549.732 8 131670060.828 7  23801981.196 0  23801982.447 0
 88  2 25 11 14 29.0800000  0  3  3 13 12
 -15689139.754 8  72410816.780 7  21145553.812 0  21145552.836 0
   5767877.958 8  60229639.900 7  22553795.923 0  22553796.719 0
  14610536.892 8 131752648.221 7  23822148.886 0  23822150.761 0
 88  2 25 11 14 59.0800000  0  3  3 13 12
 -15708021.385 8  72396103.820 6  21141960.516 0  21141961.571 0
   5810876.208 8  60263145.005 8  22561977.690 0  22561978.887 0
  14716572.465 7 131835273.335 7  23842326.163 0  23842328.304 0
 88  2 25 11 15 29.0800000  0  3  3 13 12
 -15726798.887 7  72381472.013 7  21138387.711 0  21138386.978 0
   5853946.484 8  60296706.276 7  22570174.854 0  22570173.955 0
  14822653.047 8 131917933.550 7  23862513.681 0  23862515.062 0
 88  2 25 11 15 59.0800000  0  3  3 13 12
 -15745472.951 7  72366920.788 7  21134833.938 0  21134833.651 0
   5897087.626 8  60330322.742 7  22578383.723 0  22578384.846 0
  14928774.475 8 132000625.558 7  23882707.227 0  23882710.712 0
 88  2 25 11 16 29.0800000  0  3  3 13 12
 -15764043.005 7  72352450.624 6  21131300.397 0  21131300.010 0
   5940300.517 8  60363995.121 7  22586607.513 0  22586607.719 0
  15034933.191 8 132083346.639 7  23902908.452 0  23902912.000 0
 88  2 25 11 16 59.0800000  0  3  3 13 12
 -15782507.434 8  72338062.757 7  21127787.004 0  21127786.431 0
   5983587.568 7  60397725.283 7  22594844.141 0  22594844.691 0
  15141127.388 7 132166095.348 7  23923115.312 0  23923120.035 0
 88  2 25 11 17 29.0800000  0  3  3 13 12
 -15800865.523 7  72323757.759 7  21124293.845 0  21124292.600 0
   6026948.394 7  60431512.935 6  22603095.909 0  22603095.495 0
  15247353.529 7 132248868.971 7  23943332.228 0  23943333.938 0
 88  2 25 11 17 59.0800000  0  3  3 13 12
 -15819118.049 8  72309535.016 6  21120820.060 0  21120819.844 0
   6070382.448 7  60465357.642 6  22611360.458 0  22611361.219 0
  15353606.748 7 132331663.677 7  23963551.352 0  23963552.439 0
 88  2 25 11 18 29.0800000  0  3  3 13 12
 -15837264.192 7  72295395.146 7  21117366.079 0  21117366.779 0
   6113890.747 7  60499260.207 6  22619640.455 0  22619640.311 0
  15459884.228 7 132414477.298 6  23983774.575 0  23983776.407 0
 88  2 25 11 18 59.0800000  0  3  3 13 12
 -15855303.167 7  72281338.811 7  21113934.077 0  21113934.520 0
   6157474.767 7  60533221.771 7  22627933.748 0  22627935.023 0
  15566183.610 6 132497307.961 7  24004003.984 0  24004004.367 0
 88  2 25 11 19 29.0800000  0  3  3 13 12
 -15873233.600 7  72267367.045 6  21110522.339 0  21110522.437 0
   6201135.183 7  60567242.874 6  22636241.560 0  22636242.612 0
  15672501.717 7 132580153.228 7  24024234.382 0  24024235.449 0
 88  2 25 11 19 59.0800000  0  3  3 13 12
 -15891056.339 7  72253479.199 6  21107130.831 0  21107130.298 0
   6244871.760 7  60601323.316 7  22644565.268 0  22644565.802 0
  15778833.684 7 132663009.308 6  24044469.155 0  24044470.128 0
 88  2 25 11 20 29.0800000  0  3  3 13 12
 -15908770.560 7  72239675.903 6  21103758.839 0  21103759.412 0
   6288685.333 8  60635463.749 7  22652901.380 0  22652903.116 0
  15885177.025 8 132745874.255 6  24064706.609 0  24064706.567 0
 88  2 25 11 20 59.0800000  0  3  3 13 12
 -15926375.572 8  72225957.714 7  21100408.629 0  21100408.858 0
   6332576.714 7  60669664.821 6  22661254.633 0  22661254.314 0
  15991528.416 7 132828745.478 7  24084944.177 0  24084945.574 0
 88  2 25 11 21 29.0800000  0  3  3 13 12
 -15943871.623 7  72212324.439 7  21097079.798 0  21097080.353 0
   6376545.735 7  60703926.380 7  22669621.630 0  22669621.757 0
  16097883.633 8 132911619.678 6  24105181.748 0  24105183.910 0
 88  2 25 11 21 59.0800000  0  3  3 13 12
 -15961257.425 7  72198777.068 6  21093770.967 0  21093771.653 0
   6420593.367 7  60738249.206 7  22678003.589 0  22678004.117 0
  16204240.078 8 132994494.833 7  24125420.947 0  24125422.362 0
 88  2 25 11 22 29.0800000  0  3  3 13 12
 -15978532.547 7  72185315.934 7  21090484.348 0  21090484.645 0
   6464720.180 7  60772633.726 6  22686400.338 0  22686401.765 0
  16310594.373 8 133077368.292 6  24145660.141 0  24145660.906 0
 88  2 25 11 22 59.0800000  0  3  3 13 12
 -15995696.064 7  72171941.769 6  21087218.189 0  21087218.216 0
   6508927.493 7  60807080.978 6  22694813.163 0  22694813.029 0
  16416943.777 7 133160237.992 7  24165898.449 0  24165898.741 0
 88  2 25 11 23 29.0800000  0  3  3 13 12
 -16012747.844 8  72158654.667 6  21083973.552 0  21083974.282 0
   6553214.799 7  60841590.575 7  22703240.476 0  22703241.458 0
  16523283.956 7 133243100.450 7  24186133.469 0  24186134.900 0
 88  2 25 11 23 59.0800000  0  3  3 13 12
 -16029687.184 7  72145455.181 7  21080749.060 0  21080749.604 0
   6597583.599 7  60876163.652 6  22711682.607 0  22711684.447 0
  16629612.061 8 133325953.512 7  24206367.239 0  24206368.363 0
 88  2 25 11 24 29.0800000  0  3  3 13 12
 -16046513.191 8  72132344.015 7  21077548.009 0  21077548.727 0
   6642034.385 8  60910800.633 6  22720142.558 0  22720143.492 0
  16735925.123 8 133408794.844 7  24226597.239 0  24226599.714 0
 88  2 25 11 24 59.0800000  0  3  3 13 12
 -16063225.543 7  72119321.407 7  21074368.165 0  21074367.103 0
   6686567.294 8  60945501.596 7  22728616.671 0  22728616.855 0
  16842219.812 8 133491621.882 7  24246824.013 0  24246826.608 0
 88  2 25 11 25 29.0800000  0  3  3 13 12
 -16079824.047 7  72106387.520 7  21071209.124 0  21071209.137 0
   6731182.994 8  60980267.080 7  22737106.922 0  22737106.976 0
  16948492.781 8 133574431.996 7  24267048.361 0  24267049.290 0
 88  2 25 11 25 59.0800000  0  3  3 13 12
 -16096307.804 7  72093543.044 7  21068072.035 0  21068072.032 0
   6775882.090 7  61015097.543 7  22745612.438 0  22745613.139 0
  17054740.878 7 133657222.700 7  24287265.953 0  24287266.869 0
 88  2 25 11 26 29.0800000  0  3  3 13 12
 -16112675.767 7  72080788.785 7  21064958.298 0  21064957.667 0
   6820666.114 7  61049994.181 7  22754135.856 0  22754135.061 0
  17160961.065 7 133739991.647 7  24307479.633 0  24307480.735 0
 88  2 25 11 26 59.0800000  0  3  3 13 12
 -16128927.494 7  72068125.096 7  21061864.708 0  21061864.850 0
   6865534.548 8  61084956.591 6  22762673.418 0  22762673.817 0
  17267149.463 7 133822735.868 7  24327686.109 0  24327688.277 0
 88  2 25 11 27 29.0800000  0  3  3 13 12
 -16145063.204 7  72055551.823 7  21058795.186 0  21058794.311 0
   6910487.706 7  61119985.017 7  22771226.789 0  22771227.353 0
  17373302.387 7 133905452.400 7  24347887.032 0  24347888.260 0
 88  2 25 11 27 59.0800000  0  3  3 13 12
 -16161080.926 7  72043070.497 7  21055747.188 0  21055745.495 0
   6955527.696 8  61155081.113 7  22779798.750 0  22779798.759 0
  17479417.717 7 133988139.645 7  24368078.732 0  24368082.132 0
 88  2 25 11 28 29.0800000  0  3  3 13 12
 -16176980.221 7  72030681.429 7  21052720.763 0  21052720.648 0
   7000654.349 8  61190244.736 7  22788384.987 0  22788386.504 0
  17585491.907 7 134070794.868 7  24388267.041 0  24388265.941 0
 88  2 25 11 28 59.0800000  0  3  3 13 12
 -16192761.608 7  72018384.248 7  21049718.640 0  21049717.823 0
   7045867.506 8  61225475.765 7  22796989.911 0  22796989.966 0
  17691520.541 7 134153414.562 7  24408441.359 0  24408443.548 0
 88  2 25 11 29 29.0800000  0  3  3 13 12
 -16208422.963 8  72006180.608 6  21046738.234 0  21046737.933 0
   7091169.463 8  61260775.984 7  22805610.633 0  22805610.752 0
  17797502.448 7 134235997.826 7  24428611.709 0  24428611.135 0
 88  2 25 11 29 59.0800000  0  3  3 13 12
 -16223963.623 8  71994071.002 6  21043780.784 0  21043780.610 0
   7136560.382 7  61296145.534 7  22814248.371 0  22814248.696 0
  17903433.505 7 134318541.475 7  24448767.465 0  24448769.111 0
 88  2 25 11 30 29.0800000  0  3  3 13 12
 -16239383.674 7  71982055.381 7  21040846.084 0  21040846.424 0
   7182040.588 7  61331584.657 7  22822902.083 0  22822903.328 0
  18009309.871 7 134401042.536 6  24468915.983 0  24468916.125 0
 88  2 25 11 30 59.0800000  0  3  3 13 12
 -16254682.835 7  71970133.962 6  21037934.449 0  21037934.704 0
   7227610.419 7  61367093.609 7  22831574.306 0  22831574.543 0
  18115128.769 8 134483498.861 6  24489050.875 0  24489053.072 0
 88  2 25 11 31 29.0800000  0  3  3 13 12
 -16269859.368 7  71958308.097 7  21035046.481 0  21035046.950 0
   7273270.755 7  61402673.090 7  22840262.978 0  22840262.893 0
  18220887.450 7 134565908.245 6  24509176.674 0  24509177.590 0
 88  2 25 11 31 59.0800000  0  3  3 13 12
 -16284912.438 7  71946578.441 7  21032182.183 0  21032182.196 0
   7319023.010 8  61438324.180 7  22848969.344 0  22848969.751 0
  18326583.211 7 134648268.546 6  24529289.574 0  24529291.901 0
 88  2 25 11 32 29.0800000  0  3  3 13 12
 -16299841.535 7  71934945.385 6  21029340.349 0  21029340.935 0
   7364867.526 8  61474047.185 7  22857693.430 0  22857693.547 0
  18432212.608 8 134730577.178 7  24549390.489 0  24549391.743 0
 88  2 25 11 32 59.0800000  0  2  3 13
 -16314647.289 7  71923408.424 7  21026523.242 0  21026524.470 0
   7410803.776 7  61509841.651 7  22866434.748 0  22866434.940 0
 88  2 25 11 33 29.0800000  0  2  3 13
 -16329327.640 7  71911969.200 7  21023730.572 0  21023730.715 0
   7456833.454 7  61545708.933 7  22875193.731 0  22875194.328 0
 88  2 25 11 33 59.0800000  0  2  3 13
 -16343880.180 7  71900629.560 7  21020961.659 0  21020961.300 0
   7502958.682 7  61581650.661 7  22883971.452 0  22883971.450 0
 88  2 25 11 34 29.0800000  0  2  3 13
 -16358306.213 7  71889388.492 7  21018216.356 0  21018215.367 0
   7549178.130 7  61617665.810 8  22892765.619 0  22892766.563 0
 88  2 25 11 34 59.0800000  0  2  3 13
 -16372606.073 7  71878245.749 7  21015494.490 0  21015494.832 0
   7595491.822 7  61653754.384 7  22901578.970 0  22901580.186 0
 88  2 25 11 35 29.0800000  0  2  3 13
 -16386776.912 7  71867203.527 7  21012797.723 0  21012798.035 0
   7641901.650 7  61689917.875 8  22910411.691 0  22910411.708 0
 88  2 25 11 35 59.0800000  0  2  3 13
 -16400817.853 8  71856262.520 7  21010126.742 0  21010125.967 0
   7688409.098 7  61726157.435 7  22919261.920 0  22919261.721 0
 88  2 25 11 36 29.0800000  0  2  3 13
 -16414728.625 7  71845422.975 7  21007478.310 0  21007478.694 0
   7735014.150 7  61762473.052 7  22928129.550 0  22928129.916 0
 88  2 25 11 36 59.0800000  0  2  3 13
 -16428509.004 7  71834685.014 6  21004857.070 0  21004857.168 0
   7781716.803 7  61798864.715 7  22937015.857 0  22937017.696 0
 88  2 25 11 37 29.0800000  0  2  3 13
 -16442158.460 7  71824049.081 7  21002258.176 0  21002258.933 0
   7828517.648 7  61835332.891 7  22945923.254 0  22945923.995 0
 88  2 25 11 37 59.0800000  0  2  3 13
 -16455674.667 7  71813516.966 6  20999686.843 0  20999687.584 0
   7875418.924 7  61871879.329 7  22954849.007 0  22954849.182 0
 88  2 25 11 38 29.0800000  0  2  3 13
 -16469057.143 7  71803089.072 7  20997140.980 0  20997140.306 0
   7922420.423 7  61908503.861 7  22963791.891 0  22963792.242 0
 88  2 25 11 38 59.0800000  0  2  3 13
 -16482304.505 7  71792766.460 6  20994619.788 0  20994618.957 0
   7969523.745 7  61945207.733 8  22972754.877 0  22972756.563 0
 88  2 25 11 39 29.0800000  0  2  3 13
 -16495417.783 7  71782548.326 7  20992124.063 0  20992123.819 0
   8016727.685 7  61981990.015 7  22981736.871 0  22981739.181 0
 88  2 25 11 39 59.0800000  0  2  3 13
 -16508395.517 7  71772435.807 7  20989655.071 0  20989654.727 0
   8064033.410 7  62018851.593 7  22990740.517 0  22990741.122 0
 88  2 25 11 40 29.0800000  0  2  3 13
 -16521235.457 7  71762430.642 7  20987210.031 0  20987211.576 0
   8111442.558 7  62055793.777 7  22999760.924 0  22999762.664 0
 88  2 25 11 40 59.0800000  0  2  3 13
 -16533936.968 7  71752533.375 6  20984794.670 0  20984793.610 0
   8158956.139 7  62092817.341 7  23008803.200 0  23008803.749 0
 88  2 25 11 41 29.0800000  0  2  3 13
 -16546499.939 7  71742744.044 6  20982403.947 0  20982403.731 0
   8206574.143 7  62129922.269 7  23017864.341 0  23017865.990 0
 88  2 25 11 41 59.0800000  0  2  3 13
 -16558922.620 7  71733064.038 7  20980039.554 0  20980039.695 0
   8254298.282 7  62167109.906 7  23026946.917 0  23026947.395 0
 88  2 25 11 42 29.0800000  0  2  3 13
 -16571205.021 8  71723493.339 6  20977702.062 0  20977703.091 0
   8302128.185 7  62204379.960 6  23036048.468 0  23036049.469 0
 88  2 25 11 42 59.0800000  0  2  3 13
 -16583347.068 7  71714031.993 7  20975391.585 0  20975391.712 0
   8350063.516 7  62241732.142 6  23045170.028 0  23045170.158 0
 88  2 25 11 43 29.0800000  0  2  3 13
 -16595347.187 7  71704681.254 7  20973108.155 0  20973108.839 0
   8398105.932 7  62279167.809 7  23054312.188 0  23054312.994 0
 88  2 25 11 43 59.0800000  0  2  3 13
 -16607203.679 7  71695442.425 7  20970851.165 0  20970852.567 0
   8446256.520 8  62316687.746 7  23063474.941 0  23063474.947 0
 88  2 25 11 44 29.0800000  0  2  3 13
 -16618914.906 7  71686316.805 7  20968623.682 0  20968623.352 0
   8494516.732 8  62354293.111 7  23072658.649 0  23072658.122 0
 88  2 25 11 44 59.0800000  0  2  3 13
 -16630480.579 7  71677304.605 7  20966422.701 0  20966422.012 0
   8542886.534 8  62391983.853 7  23081862.938 0  23081864.205 0
 88  2 25 11 45 29.0800000  0  2  3 13
 -16641900.452 7  71668405.998 6  20964249.192 0  20964249.032 0
   8591366.010 7  62429760.064 6  23091087.566 0  23091089.408 0
 88  2 25 11 45 59.0800000  0  2  3 13
 -16653172.286 7  71659622.756 7  20962104.617 0  20962103.973 0
   8639956.933 8  62467623.114 6  23100335.476 0  23100334.450 0
 88  2 25 11 46 29.0800000  0  2  3 13
 -16664295.721 8  71650955.138 7  20959988.060 0  20959987.371 0
   8688659.401 8  62505573.107 6  23109602.452 0  23109602.504 0
 88  2 25 11 46 59.0800000  0  2  3 13
 -16675270.589 7  71642403.277 7  20957899.891 0  20957898.759 0
   8737473.506 8  62543610.073 6  23118891.790 0  23118891.962 0
 88  2 25 11 47 29.0800000  0  2  3 13
 -16686095.483 7  71633968.301 7  20955839.712 0  20955839.568 0
   8786399.964 8  62581734.588 6  23128202.850 0  23128201.764 0
 88  2 25 11 47 59.0800000  0  2  3 13
 -16696769.014 7  71625651.265 7  20953809.151 0  20953809.094 0
   8835440.811 8  62619948.229 6  23137534.905 0  23137534.683 0
 88  2 25 11 48 29.0800000  0  2  3 13
 -16707288.832 7  71617454.014 7  20951806.838 0  20951807.137 0
   8884597.989 8  62658252.536 7  23146887.994 0  23146888.758 0
 88  2 25 11 48 59.0800000  0  2  3 13
 -16717655.917 8  71609375.769 8  20949833.973 0  20949834.113 0
   8933869.893 7  62696646.217 6  23156265.127 0  23156265.276 0
 88  2 25 11 49 29.0800000  0  2  3 13
 -16727869.740 7  71601416.938 7  20947889.813 0  20947890.555 0
   8983256.556 8  62735129.337 7  23165663.548 0  23165663.175 0
 88  2 25 11 49 59.0800000  0  2  3 13
 -16737927.485 7  71593579.747 7  20945976.473 0  20945976.399 0
   9032760.377 7  62773703.733 7  23175081.949 0  23175082.509 0
 88  2 25 11 50 29.0800000  0  2  3 13
 -16747828.309 8  71585864.817 7  20944092.841 0  20944092.824 0
   9082382.617 7  62812370.419 7  23184525.173 0  23184526.147 0
 88  2 25 11 50 59.0800000  0  2  3 13
 -16757571.611 8  71578272.625 7  20942238.513 0  20942238.184 0
   9132123.037 7  62851129.171 7  23193990.309 0  23193991.102 0
 88  2 25 11 51 29.0800000  0  2  3 13
 -16767156.125 7  71570804.169 7  20940414.978 0  20940414.047 0
   9181982.429 8  62889980.642 7  23203478.248 0  23203479.095 0
 88  2 25 11 51 59.0800000  0  2  3 13
 -16776581.675 8  71563459.578 7  20938620.235 0  20938620.948 0
   9231960.456 7  62928924.538 7  23212989.373 0  23212989.280 0
 88  2 25 11 52 29.0800000  0  2  3 13
 -16785846.472 8  71556240.264 6  20936857.113 0  20936858.160 0
   9282058.952 7  62967962.313 7  23222523.136 0  23222524.156 0
 88  2 25 11 52 59.0800000  0  2  3 13
 -16794949.933 7  71549146.663 7  20935124.385 0  20935125.144 0
   9332278.615 6  63007094.510 7  23232078.226 0  23232080.076 0
 88  2 25 11 53 29.0800000  0  2  3 13
 -16803890.115 7  71542180.294 6  20933423.940 0  20933423.064 0
   9382619.978 6  63046321.543 7  23241659.946 0  23241659.654 0
 88  2 25 11 53 59.0800000  0  2  3 13
 -16812665.840 7  71535342.056 7  20931753.800 0  20931753.956 0
   9433084.325 7  63085644.393 7  23251260.697 0  23251262.592 0
 88  2 25 11 54 29.0800000  0  2  3 13
 -16821277.625 8  71528631.576 6  20930114.910 0  20930114.866 0
   9483670.802 7  63125062.396 7  23260887.846 0  23260889.104 0
 88  2 25 11 54 59.0800000  0  2  3 13
 -16829722.116 7  71522051.452 7  20928507.846 0  20928508.117 0
   9534382.019 6  63164577.606 7  23270538.322 0  23270539.338 0
 88  2 25 11 55 29.0800000  0  2  3 13
 -16837999.389 7  71515601.639 7  20926932.636 0  20926933.263 0
   9585218.129 7  63204190.162 7  23280212.022 0  23280212.771 0
 88  2 25 11 55 59.0800000  0  2  3 13
 -16846109.274 8  71509282.245 7  20925389.959 0  20925390.562 0
   9636178.796 7  63243899.749 7  23289909.630 0  23289910.734 0
 88  2 25 11 56 29.0800000  0  2  3 13
 -16854048.310 7  71503095.991 7  20923879.625 0  20923879.825 0
   9687266.794 7  63283708.562 7  23299631.426 0  23299632.788 0
 88  2 25 11 56 59.0800000  0  2  3 13
 -16861817.521 7  71497042.044 7  20922400.485 0  20922401.273 0
   9738480.916 7  63323615.648 7  23309376.914 0  23309378.212 0
 88  2 25 11 57 29.0800000  0  2  3 13
 -16869414.796 8  71491122.088 7  20920954.857 0  20920955.857 0
   9789822.787 7  63363622.287 7  23319146.490 0  23319148.440 0
 88  2 25 11 57 59.0800000  0  2  3 13
 -16876839.000 8  71485337.004 8  20919542.484 0  20919542.955 0
   9841293.014 7  63403728.948 7  23328941.470 0  23328942.201 0
 88  2 25 11 58 29.0800000  0  2  3 13
 -16884088.975 7  71479687.670 7  20918162.563 0  20918162.905 0
   9892892.014 7  63443935.954 8  23338761.176 0  23338761.814 0
 88  2 25 11 58 59.0800000  0  2  3 13
 -16891163.205 7  71474175.279 7  20916816.527 0  20916816.669 0
   9944620.902 7  63484244.172 7  23348604.383 0  23348604.217 0
 88  2 25 11 59 29.0800000  0  2  3 13
 -16898060.891 7  71468800.449 7  20915503.858 0  20915504.344 0
   9996479.907 8  63524653.777 8  23358473.455 0  23358473.439 0
 88  2 25 11 59 59.0800000  0  2  3 13
 -16904780.044 8  71463564.754 7  20914224.359 0  20914224.358 0
  10048470.768 7  63565166.129 8  23368366.608 0  23368367.371 0
 88  2 25 12  0 29.0800000  0  2  3 13
 -16911320.638 7  71458468.191 7  20912980.720 0  20912980.305 0
  10100592.948 8  63605780.802 7  23378285.058 0  23378285.905 0
 88  2 25 12  0 59.0800000  0  2  3 13
 -16917682.112 7  71453511.206 7  20911770.764 0  20911770.248 0
  10152846.225 7  63646497.645 8  23388228.395 0  23388228.933 0
 88  2 25 12  1 29.0800000  0  2  3 13
 -16923861.824 8  71448695.840 7  20910594.262 0  20910595.063 0
  10205233.662 7  63687319.002 7  23398197.391 0  23398198.408 0
 88  2 25 12  1 59.0800000  0  2  3 13
 -16929858.723 7  71444022.930 7  20909452.447 0  20909453.118 0
  10257756.040 7  63728245.528 8  23408191.955 0  23408193.106 0
 88  2 25 12  2 29.0800000  0  2  3 13
 -16935672.144 7  71439492.993 7  20908346.434 0  20908348.105 0
  10310412.822 8  63769276.792 7  23418212.282 0  23418213.486 0
 88  2 25 12  2 59.0800000  0  2  3 13
 -16941299.980 7  71435107.649 8  20907276.194 0  20907276.004 0
  10363205.457 8  63810413.898 7  23428258.548 0  23428258.228 0
 88  2 25 12  3 29.0800000  0  2  3 13
 -16946742.262 7  71430866.917 6  20906240.207 0  20906240.864 0
  10416133.417 8  63851656.451 7  23438329.866 0  23438331.085 0
 88  2 25 12  3 59.0800000  0  2  3 13
 -16951997.105 8  71426772.218 7  20905240.082 0  20905241.024 0
  10469198.114 7  63893005.580 7  23448428.676 0  23448429.228 0
 88  2 25 12  4 29.0800000  0  2  3 13
 -16957063.065 7  71422824.726 7  20904276.473 0  20904276.472 0
  10522400.478 8  63934461.969 7  23458552.594 0  23458553.150 0
 88  2 25 12  4 59.0800000  0  2  3 13
 -16961939.498 8  71419024.913 7  20903347.406 0  20903348.291 0
  10575740.464 8  63976025.596 7  23468703.249 0  23468702.629 0
 88  2 25 12  5 29.0800000  0  2  3 13
 -16966625.463 7  71415373.511 7  20902456.316 0  20902456.702 0
  10629218.822 8  64017697.046 7  23478879.288 0  23478879.339 0
 88  2 25 12  5 59.0800000  0  2  3 13
 -16971118.407 7  71411872.509 7  20901600.972 0  20901601.800 0
  10682837.207 7  64059477.613 6  23489082.223 0  23489082.830 0
 88  2 25 12  6 29.0800000  0  2  3 13
 -16975417.918 7  71408522.245 7  20900783.487 0  20900784.515 0
  10736595.939 7  64101367.538 6  23499312.230 0  23499312.687 0
 88  2 25 12  6 59.0800000  0  2  3 13
 -16979522.483 8  71405323.887 7  20900002.150 0  20900002.619 0
  10790495.954 8  64143367.539 7  23509569.024 0  23509569.609 0
 88  2 25 12  7 29.0800000  0  2  3 13
 -16983430.632 7  71402278.577 8  20899258.016 0  20899259.015 0
  10844537.533 7  64185477.853 6  23519853.195 0  23519853.418 0
 88  2 25 12  7 59.0800000  0  2  3 13
 -16987141.115 7  71399387.287 7  20898553.373 0  20898553.229 0
  10898720.994 7  64227698.752 7  23530162.572 0  23530163.923 0
 88  2 25 12  8 29.0800000  0  2  3 13
 -16990652.706 7  71396650.978 7  20897884.590 0  20897884.717 0
  10953047.877 8  64270031.383 6  23540502.308 0  23540501.805 0
 88  2 25 12  8 59.0800000  0  2  3 13
 -16993965.267 7  71394069.758 7  20897253.300 0  20897253.757 0
  11007517.358 7  64312475.139 6  23550865.758 0  23550866.701 0
 88  2 25 12  9 29.0800000  0  2  3 13
 -16997076.112 7  71391645.727 7  20896661.728 0  20896662.100 0
  11062131.878 7  64355031.901 6  23561259.439 0  23561260.564 0
 88  2 25 12  9 59.0800000  0  2  3 13
 -16999984.261 7  71389379.636 7  20896108.909 0  20896109.151 0
  11116891.380 7  64397701.635 6  23571679.622 0  23571680.235 0
 88  2 25 12 10 29.0800000  0  2  3 13
 -17002688.965 7  71387272.069 7  20895593.777 0  20895593.678 0
  11171795.897 7  64440484.390 6  23582127.908 0  23582128.655 0
 88  2 25 12 10 59.0800000  0  2  3 13
 -17005188.722 7  71385324.202 7  20895117.771 0  20895118.269 0
  11226846.845 7  64483381.235 6  23592603.982 0  23592604.656 0
 88  2 25 12 11 29.0800000  0  2  3 13
 -17007482.769 7  71383536.638 7  20894681.857 0  20894681.510 0
  11282044.057 7  64526392.045 7  23603107.438 0  23603107.641 0
